<?xml version='1.0' encoding='UTF-8'?>
<gpx version="1.1" creator="https://www.komoot.de" xmlns="http://www.topografix.com/GPX/1/1" xmlns:xsi="http://www.w3.org/2001/XMLSchema-instance" xsi:schemaLocation="http://www.topografix.com/GPX/1/1 http://www.topografix.com/GPX/1/1/gpx.xsd">
  <metadata>
    <name>DVV Schleswig - Wikingerland</name>
    <author>
      <link href="https://www.komoot.de">
        <text>komoot</text>
        <type>text/html</type>
      </link>
    </author>
  </metadata>
  <trk>
    <name>DVV Schleswig - Wikingerland</name>
    <trkseg>
      <trkpt lat="54.499067" lon="9.552020">
        <ele>-8.899308</ele>
        <time>2021-02-13T12:08:46.000Z</time>
      </trkpt>
      <trkpt lat="54.499110" lon="9.551937">
        <ele>-8.899308</ele>
        <time>2021-02-13T12:08:53.000Z</time>
      </trkpt>
      <trkpt lat="54.499137" lon="9.551924">
        <ele>-8.899308</ele>
        <time>2021-02-13T12:08:55.000Z</time>
      </trkpt>
      <trkpt lat="54.499163" lon="9.551901">
        <ele>-8.899308</ele>
        <time>2021-02-13T12:08:57.000Z</time>
      </trkpt>
      <trkpt lat="54.499175" lon="9.551894">
        <ele>-8.899308</ele>
        <time>2021-02-13T12:08:58.000Z</time>
      </trkpt>
      <trkpt lat="54.499235" lon="9.551994">
        <ele>-8.899308</ele>
        <time>2021-02-13T12:09:04.000Z</time>
      </trkpt>
      <trkpt lat="54.499248" lon="9.552069">
        <ele>-8.899308</ele>
        <time>2021-02-13T12:09:07.000Z</time>
      </trkpt>
      <trkpt lat="54.499253" lon="9.552117">
        <ele>-8.899308</ele>
        <time>2021-02-13T12:09:09.000Z</time>
      </trkpt>
      <trkpt lat="54.499257" lon="9.552234">
        <ele>-8.899308</ele>
        <time>2021-02-13T12:09:14.000Z</time>
      </trkpt>
      <trkpt lat="54.499275" lon="9.552272">
        <ele>-8.899308</ele>
        <time>2021-02-13T12:09:17.000Z</time>
      </trkpt>
      <trkpt lat="54.499285" lon="9.552279">
        <ele>-8.899308</ele>
        <time>2021-02-13T12:09:18.000Z</time>
      </trkpt>
      <trkpt lat="54.499289" lon="9.552279">
        <ele>-8.899308</ele>
        <time>2021-02-13T12:09:19.000Z</time>
      </trkpt>
      <trkpt lat="54.499290" lon="9.552276">
        <ele>-8.899308</ele>
        <time>2021-02-13T12:09:20.000Z</time>
      </trkpt>
      <trkpt lat="54.499290" lon="9.552270">
        <ele>-8.899308</ele>
        <time>2021-02-13T12:09:21.000Z</time>
      </trkpt>
      <trkpt lat="54.499273" lon="9.552203">
        <ele>-8.899308</ele>
        <time>2021-02-13T12:09:25.000Z</time>
      </trkpt>
      <trkpt lat="54.499229" lon="9.552079">
        <ele>-8.899308</ele>
        <time>2021-02-13T12:09:32.000Z</time>
      </trkpt>
      <trkpt lat="54.499233" lon="9.552074">
        <ele>-8.899308</ele>
        <time>2021-02-13T12:09:33.000Z</time>
      </trkpt>
      <trkpt lat="54.499247" lon="9.552114">
        <ele>-8.899308</ele>
        <time>2021-02-13T12:09:36.000Z</time>
      </trkpt>
      <trkpt lat="54.499247" lon="9.552158">
        <ele>-8.899308</ele>
        <time>2021-02-13T12:09:38.000Z</time>
      </trkpt>
      <trkpt lat="54.499259" lon="9.552253">
        <ele>-8.899308</ele>
        <time>2021-02-13T12:09:42.000Z</time>
      </trkpt>
      <trkpt lat="54.499281" lon="9.552278">
        <ele>-8.899308</ele>
        <time>2021-02-13T12:09:45.000Z</time>
      </trkpt>
      <trkpt lat="54.499300" lon="9.552276">
        <ele>-8.899308</ele>
        <time>2021-02-13T12:09:47.000Z</time>
      </trkpt>
      <trkpt lat="54.499310" lon="9.552268">
        <ele>-8.899308</ele>
        <time>2021-02-13T12:09:48.000Z</time>
      </trkpt>
      <trkpt lat="54.499338" lon="9.552244">
        <ele>-8.899308</ele>
        <time>2021-02-13T12:09:51.000Z</time>
      </trkpt>
      <trkpt lat="54.499348" lon="9.552241">
        <ele>-8.899308</ele>
        <time>2021-02-13T12:09:52.000Z</time>
      </trkpt>
      <trkpt lat="54.499443" lon="9.552143">
        <ele>-8.899308</ele>
        <time>2021-02-13T12:09:59.000Z</time>
      </trkpt>
      <trkpt lat="54.499465" lon="9.552124">
        <ele>-8.899308</ele>
        <time>2021-02-13T12:10:01.000Z</time>
      </trkpt>
      <trkpt lat="54.499524" lon="9.552111">
        <ele>-8.901088</ele>
        <time>2021-02-13T12:10:05.000Z</time>
      </trkpt>
      <trkpt lat="54.499582" lon="9.552076">
        <ele>-8.903637</ele>
        <time>2021-02-13T12:10:09.000Z</time>
      </trkpt>
      <trkpt lat="54.499610" lon="9.552049">
        <ele>-8.904969</ele>
        <time>2021-02-13T12:10:12.000Z</time>
      </trkpt>
      <trkpt lat="54.499668" lon="9.552015">
        <ele>-8.907510</ele>
        <time>2021-02-13T12:10:17.000Z</time>
      </trkpt>
      <trkpt lat="54.499694" lon="9.552011">
        <ele>-8.908593</ele>
        <time>2021-02-13T12:10:19.000Z</time>
      </trkpt>
      <trkpt lat="54.499775" lon="9.551990">
        <ele>-8.911991</ele>
        <time>2021-02-13T12:10:26.000Z</time>
      </trkpt>
      <trkpt lat="54.499787" lon="9.551983">
        <ele>-8.912517</ele>
        <time>2021-02-13T12:10:30.000Z</time>
      </trkpt>
      <trkpt lat="54.499792" lon="9.551996">
        <ele>-8.912892</ele>
        <time>2021-02-13T12:10:32.000Z</time>
      </trkpt>
      <trkpt lat="54.499804" lon="9.552007">
        <ele>-8.913456</ele>
        <time>2021-02-13T12:10:33.000Z</time>
      </trkpt>
      <trkpt lat="54.499843" lon="9.552067">
        <ele>-8.915626</ele>
        <time>2021-02-13T12:10:36.000Z</time>
      </trkpt>
      <trkpt lat="54.499854" lon="9.552094">
        <ele>-8.916420</ele>
        <time>2021-02-13T12:10:37.000Z</time>
      </trkpt>
      <trkpt lat="54.499894" lon="9.552168">
        <ele>-8.918856</ele>
        <time>2021-02-13T12:10:42.000Z</time>
      </trkpt>
      <trkpt lat="54.499903" lon="9.552172">
        <ele>-8.919241</ele>
        <time>2021-02-13T12:10:43.000Z</time>
      </trkpt>
      <trkpt lat="54.499962" lon="9.552206">
        <ele>-8.921822</ele>
        <time>2021-02-13T12:10:48.000Z</time>
      </trkpt>
      <trkpt lat="54.499974" lon="9.552211">
        <ele>-8.922334</ele>
        <time>2021-02-13T12:10:49.000Z</time>
      </trkpt>
      <trkpt lat="54.500000" lon="9.552211">
        <ele>-8.923413</ele>
        <time>2021-02-13T12:10:51.000Z</time>
      </trkpt>
      <trkpt lat="54.500067" lon="9.552212">
        <ele>-8.926192</ele>
        <time>2021-02-13T12:10:56.000Z</time>
      </trkpt>
      <trkpt lat="54.500186" lon="9.552208">
        <ele>-8.931130</ele>
        <time>2021-02-13T12:11:05.000Z</time>
      </trkpt>
      <trkpt lat="54.500242" lon="9.552211">
        <ele>-8.933454</ele>
        <time>2021-02-13T12:11:10.000Z</time>
      </trkpt>
      <trkpt lat="54.500252" lon="9.552210">
        <ele>-8.933870</ele>
        <time>2021-02-13T12:11:13.000Z</time>
      </trkpt>
      <trkpt lat="54.500254" lon="9.552204">
        <ele>-8.934036</ele>
        <time>2021-02-13T12:11:18.000Z</time>
      </trkpt>
      <trkpt lat="54.500246" lon="9.552184">
        <ele>-8.934621</ele>
        <time>2021-02-13T12:11:21.000Z</time>
      </trkpt>
      <trkpt lat="54.500232" lon="9.552189">
        <ele>-8.935215</ele>
        <time>2021-02-13T12:11:25.000Z</time>
      </trkpt>
      <trkpt lat="54.500231" lon="9.552241">
        <ele>-8.936468</ele>
        <time>2021-02-13T12:11:32.000Z</time>
      </trkpt>
      <trkpt lat="54.500199" lon="9.552254">
        <ele>-8.937832</ele>
        <time>2021-02-13T12:11:37.000Z</time>
      </trkpt>
      <trkpt lat="54.500199" lon="9.552251">
        <ele>-8.937904</ele>
        <time>2021-02-13T12:11:38.000Z</time>
      </trkpt>
      <trkpt lat="54.500187" lon="9.552246">
        <ele>-8.938416</ele>
        <time>2021-02-13T12:11:45.000Z</time>
      </trkpt>
      <trkpt lat="54.500167" lon="9.552254">
        <ele>-8.939268</ele>
        <time>2021-02-13T12:11:47.000Z</time>
      </trkpt>
      <trkpt lat="54.500122" lon="9.552259">
        <ele>-8.941139</ele>
        <time>2021-02-13T12:11:50.000Z</time>
      </trkpt>
      <trkpt lat="54.500069" lon="9.552272">
        <ele>-8.943359</ele>
        <time>2021-02-13T12:11:54.000Z</time>
      </trkpt>
      <trkpt lat="54.500026" lon="9.552262">
        <ele>-8.945159</ele>
        <time>2021-02-13T12:11:57.000Z</time>
      </trkpt>
      <trkpt lat="54.499980" lon="9.552248">
        <ele>-8.947097</ele>
        <time>2021-02-13T12:12:00.000Z</time>
      </trkpt>
      <trkpt lat="54.499899" lon="9.552212">
        <ele>-8.950568</ele>
        <time>2021-02-13T12:12:05.000Z</time>
      </trkpt>
      <trkpt lat="54.499850" lon="9.552153">
        <ele>-8.953048</ele>
        <time>2021-02-13T12:12:09.000Z</time>
      </trkpt>
      <trkpt lat="54.499825" lon="9.552125">
        <ele>-8.954285</ele>
        <time>2021-02-13T12:12:11.000Z</time>
      </trkpt>
      <trkpt lat="54.499805" lon="9.552101">
        <ele>-8.955296</ele>
        <time>2021-02-13T12:12:13.000Z</time>
      </trkpt>
      <trkpt lat="54.499788" lon="9.552073">
        <ele>-8.956272</ele>
        <time>2021-02-13T12:12:16.000Z</time>
      </trkpt>
      <trkpt lat="54.499786" lon="9.552062">
        <ele>-8.956550</ele>
        <time>2021-02-13T12:12:18.000Z</time>
      </trkpt>
      <trkpt lat="54.499777" lon="9.552053">
        <ele>-8.956982</ele>
        <time>2021-02-13T12:12:20.000Z</time>
      </trkpt>
      <trkpt lat="54.499755" lon="9.552054">
        <ele>-8.957894</ele>
        <time>2021-02-13T12:12:23.000Z</time>
      </trkpt>
      <trkpt lat="54.499734" lon="9.552074">
        <ele>-8.958890</ele>
        <time>2021-02-13T12:12:26.000Z</time>
      </trkpt>
      <trkpt lat="54.499730" lon="9.552091">
        <ele>-8.959332</ele>
        <time>2021-02-13T12:12:27.000Z</time>
      </trkpt>
      <trkpt lat="54.499738" lon="9.552129">
        <ele>-8.960306</ele>
        <time>2021-02-13T12:12:29.000Z</time>
      </trkpt>
      <trkpt lat="54.499749" lon="9.552146">
        <ele>-8.960919</ele>
        <time>2021-02-13T12:12:30.000Z</time>
      </trkpt>
      <trkpt lat="54.499758" lon="9.552164">
        <ele>-8.961491</ele>
        <time>2021-02-13T12:12:31.000Z</time>
      </trkpt>
      <trkpt lat="54.499768" lon="9.552192">
        <ele>-8.962283</ele>
        <time>2021-02-13T12:12:32.000Z</time>
      </trkpt>
      <trkpt lat="54.499785" lon="9.552268">
        <ele>-8.964245</ele>
        <time>2021-02-13T12:12:35.000Z</time>
      </trkpt>
      <trkpt lat="54.499804" lon="9.552330">
        <ele>-8.965933</ele>
        <time>2021-02-13T12:12:38.000Z</time>
      </trkpt>
      <trkpt lat="54.499831" lon="9.552372">
        <ele>-8.967443</ele>
        <time>2021-02-13T12:12:41.000Z</time>
      </trkpt>
      <trkpt lat="54.499851" lon="9.552458">
        <ele>-8.969675</ele>
        <time>2021-02-13T12:12:46.000Z</time>
      </trkpt>
      <trkpt lat="54.499852" lon="9.552511">
        <ele>-8.970952</ele>
        <time>2021-02-13T12:12:48.000Z</time>
      </trkpt>
      <trkpt lat="54.499847" lon="9.552601">
        <ele>-8.973130</ele>
        <time>2021-02-13T12:12:51.000Z</time>
      </trkpt>
      <trkpt lat="54.499846" lon="9.552658">
        <ele>-8.976939</ele>
        <time>2021-02-13T12:12:53.000Z</time>
      </trkpt>
      <trkpt lat="54.499839" lon="9.552670">
        <ele>-8.979065</ele>
        <time>2021-02-13T12:12:54.000Z</time>
      </trkpt>
      <trkpt lat="54.499782" lon="9.552725">
        <ele>-8.993128</ele>
        <time>2021-02-13T12:12:59.000Z</time>
      </trkpt>
      <trkpt lat="54.499683" lon="9.552867">
        <ele>-9.020858</ele>
        <time>2021-02-13T12:13:07.000Z</time>
      </trkpt>
      <trkpt lat="54.499671" lon="9.552894">
        <ele>-9.025108</ele>
        <time>2021-02-13T12:13:08.000Z</time>
      </trkpt>
      <trkpt lat="54.499624" lon="9.553050">
        <ele>-9.047073</ele>
        <time>2021-02-13T12:13:15.000Z</time>
      </trkpt>
      <trkpt lat="54.499625" lon="9.553076">
        <ele>-9.050330</ele>
        <time>2021-02-13T12:13:16.000Z</time>
      </trkpt>
      <trkpt lat="54.499614" lon="9.553198">
        <ele>-9.065760</ele>
        <time>2021-02-13T12:13:20.000Z</time>
      </trkpt>
      <trkpt lat="54.499603" lon="9.553378">
        <ele>-9.088381</ele>
        <time>2021-02-13T12:13:26.000Z</time>
      </trkpt>
      <trkpt lat="54.499623" lon="9.553586">
        <ele>-9.114732</ele>
        <time>2021-02-13T12:13:33.000Z</time>
      </trkpt>
      <trkpt lat="54.499627" lon="9.553643">
        <ele>-9.121908</ele>
        <time>2021-02-13T12:13:35.000Z</time>
      </trkpt>
      <trkpt lat="54.499645" lon="9.553717">
        <ele>-9.131935</ele>
        <time>2021-02-13T12:13:38.000Z</time>
      </trkpt>
      <trkpt lat="54.499679" lon="9.553874">
        <ele>-9.152878</ele>
        <time>2021-02-13T12:13:46.000Z</time>
      </trkpt>
      <trkpt lat="54.499717" lon="9.554016">
        <ele>-9.172419</ele>
        <time>2021-02-13T12:13:52.000Z</time>
      </trkpt>
      <trkpt lat="54.499719" lon="9.554049">
        <ele>-9.176566</ele>
        <time>2021-02-13T12:13:53.000Z</time>
      </trkpt>
      <trkpt lat="54.499747" lon="9.554328">
        <ele>-9.211953</ele>
        <time>2021-02-13T12:14:01.000Z</time>
      </trkpt>
      <trkpt lat="54.499756" lon="9.554412">
        <ele>-9.222629</ele>
        <time>2021-02-13T12:14:04.000Z</time>
      </trkpt>
      <trkpt lat="54.499763" lon="9.554484">
        <ele>-9.231753</ele>
        <time>2021-02-13T12:14:07.000Z</time>
      </trkpt>
      <trkpt lat="54.499770" lon="9.554532">
        <ele>-9.237938</ele>
        <time>2021-02-13T12:14:09.000Z</time>
      </trkpt>
      <trkpt lat="54.499780" lon="9.554636">
        <ele>-9.251113</ele>
        <time>2021-02-13T12:14:13.000Z</time>
      </trkpt>
      <trkpt lat="54.499784" lon="9.554660">
        <ele>-9.254234</ele>
        <time>2021-02-13T12:14:14.000Z</time>
      </trkpt>
      <trkpt lat="54.499792" lon="9.554685">
        <ele>-9.257802</ele>
        <time>2021-02-13T12:14:15.000Z</time>
      </trkpt>
      <trkpt lat="54.499822" lon="9.554819">
        <ele>-9.275751</ele>
        <time>2021-02-13T12:14:20.000Z</time>
      </trkpt>
      <trkpt lat="54.499853" lon="9.554862">
        <ele>-9.284318</ele>
        <time>2021-02-13T12:14:22.000Z</time>
      </trkpt>
      <trkpt lat="54.499903" lon="9.555008">
        <ele>-9.305502</ele>
        <time>2021-02-13T12:14:29.000Z</time>
      </trkpt>
      <trkpt lat="54.499948" lon="9.555217">
        <ele>-9.333361</ele>
        <time>2021-02-13T12:14:38.000Z</time>
      </trkpt>
      <trkpt lat="54.499988" lon="9.555396">
        <ele>-9.357332</ele>
        <time>2021-02-13T12:14:46.000Z</time>
      </trkpt>
      <trkpt lat="54.500005" lon="9.555480">
        <ele>-9.365421</ele>
        <time>2021-02-13T12:14:50.000Z</time>
      </trkpt>
      <trkpt lat="54.500036" lon="9.555563">
        <ele>-9.372716</ele>
        <time>2021-02-13T12:14:54.000Z</time>
      </trkpt>
      <trkpt lat="54.500041" lon="9.555586">
        <ele>-9.374532</ele>
        <time>2021-02-13T12:14:55.000Z</time>
      </trkpt>
      <trkpt lat="54.500124" lon="9.555763">
        <ele>-9.391349</ele>
        <time>2021-02-13T12:15:03.000Z</time>
      </trkpt>
      <trkpt lat="54.500176" lon="9.555894">
        <ele>-9.403079</ele>
        <time>2021-02-13T12:15:10.000Z</time>
      </trkpt>
      <trkpt lat="54.500194" lon="9.555905">
        <ele>-9.405510</ele>
        <time>2021-02-13T12:15:11.000Z</time>
      </trkpt>
      <trkpt lat="54.500225" lon="9.555921">
        <ele>-9.409630</ele>
        <time>2021-02-13T12:15:13.000Z</time>
      </trkpt>
      <trkpt lat="54.500237" lon="9.555921">
        <ele>-9.411158</ele>
        <time>2021-02-13T12:15:14.000Z</time>
      </trkpt>
      <trkpt lat="54.500246" lon="9.555915">
        <ele>-9.412386</ele>
        <time>2021-02-13T12:15:16.000Z</time>
      </trkpt>
      <trkpt lat="54.500247" lon="9.555917">
        <ele>-9.412581</ele>
        <time>2021-02-13T12:15:17.000Z</time>
      </trkpt>
      <trkpt lat="54.500247" lon="9.555925">
        <ele>-9.413173</ele>
        <time>2021-02-13T12:15:18.000Z</time>
      </trkpt>
      <trkpt lat="54.500252" lon="9.555929">
        <ele>-9.413874</ele>
        <time>2021-02-13T12:15:19.000Z</time>
      </trkpt>
      <trkpt lat="54.500328" lon="9.555961">
        <ele>-9.423834</ele>
        <time>2021-02-13T12:15:25.000Z</time>
      </trkpt>
      <trkpt lat="54.500363" lon="9.555937">
        <ele>-9.428630</ele>
        <time>2021-02-13T12:15:29.000Z</time>
      </trkpt>
      <trkpt lat="54.500365" lon="9.555917">
        <ele>-9.430130</ele>
        <time>2021-02-13T12:15:30.000Z</time>
      </trkpt>
      <trkpt lat="54.500365" lon="9.555891">
        <ele>-9.432052</ele>
        <time>2021-02-13T12:15:31.000Z</time>
      </trkpt>
      <trkpt lat="54.500394" lon="9.555756">
        <ele>-9.442692</ele>
        <time>2021-02-13T12:15:37.000Z</time>
      </trkpt>
      <trkpt lat="54.500452" lon="9.555628">
        <ele>-9.454694</ele>
        <time>2021-02-13T12:15:44.000Z</time>
      </trkpt>
      <trkpt lat="54.500550" lon="9.555501">
        <ele>-9.470307</ele>
        <time>2021-02-13T12:15:53.000Z</time>
      </trkpt>
      <trkpt lat="54.500618" lon="9.555373">
        <ele>-9.483131</ele>
        <time>2021-02-13T12:16:00.000Z</time>
      </trkpt>
      <trkpt lat="54.500653" lon="9.555294">
        <ele>-9.490476</ele>
        <time>2021-02-13T12:16:03.000Z</time>
      </trkpt>
      <trkpt lat="54.500703" lon="9.555161">
        <ele>-9.502188</ele>
        <time>2021-02-13T12:16:08.000Z</time>
      </trkpt>
      <trkpt lat="54.500780" lon="9.554968">
        <ele>-9.519497</ele>
        <time>2021-02-13T12:16:16.000Z</time>
      </trkpt>
      <trkpt lat="54.500814" lon="9.554902">
        <ele>-9.526019</ele>
        <time>2021-02-13T12:16:19.000Z</time>
      </trkpt>
      <trkpt lat="54.500836" lon="9.554858">
        <ele>-9.530311</ele>
        <time>2021-02-13T12:16:21.000Z</time>
      </trkpt>
      <trkpt lat="54.500865" lon="9.554792">
        <ele>-9.536429</ele>
        <time>2021-02-13T12:16:24.000Z</time>
      </trkpt>
      <trkpt lat="54.500929" lon="9.554681">
        <ele>-9.547992</ele>
        <time>2021-02-13T12:16:30.000Z</time>
      </trkpt>
      <trkpt lat="54.500952" lon="9.554645">
        <ele>-9.551948</ele>
        <time>2021-02-13T12:16:32.000Z</time>
      </trkpt>
      <trkpt lat="54.501019" lon="9.554557">
        <ele>-9.562675</ele>
        <time>2021-02-13T12:16:37.000Z</time>
      </trkpt>
      <trkpt lat="54.501058" lon="9.554511">
        <ele>-9.568692</ele>
        <time>2021-02-13T12:16:40.000Z</time>
      </trkpt>
      <trkpt lat="54.501166" lon="9.554352">
        <ele>-9.586779</ele>
        <time>2021-02-13T12:16:49.000Z</time>
      </trkpt>
      <trkpt lat="54.501275" lon="9.554217">
        <ele>-9.650920</ele>
        <time>2021-02-13T12:16:58.000Z</time>
      </trkpt>
      <trkpt lat="54.501377" lon="9.554089">
        <ele>-9.721473</ele>
        <time>2021-02-13T12:17:06.000Z</time>
      </trkpt>
      <trkpt lat="54.501471" lon="9.553991">
        <ele>-9.782900</ele>
        <time>2021-02-13T12:17:13.000Z</time>
      </trkpt>
      <trkpt lat="54.501577" lon="9.553904">
        <ele>-9.848543</ele>
        <time>2021-02-13T12:17:20.000Z</time>
      </trkpt>
      <trkpt lat="54.501591" lon="9.553891">
        <ele>-9.857434</ele>
        <time>2021-02-13T12:17:21.000Z</time>
      </trkpt>
      <trkpt lat="54.501651" lon="9.553839">
        <ele>-9.894983</ele>
        <time>2021-02-13T12:17:25.000Z</time>
      </trkpt>
      <trkpt lat="54.501693" lon="9.553805">
        <ele>-9.920927</ele>
        <time>2021-02-13T12:17:28.000Z</time>
      </trkpt>
      <trkpt lat="54.501732" lon="9.553761">
        <ele>-9.946991</ele>
        <time>2021-02-13T12:17:31.000Z</time>
      </trkpt>
      <trkpt lat="54.501764" lon="9.553722">
        <ele>-9.968906</ele>
        <time>2021-02-13T12:17:33.000Z</time>
      </trkpt>
      <trkpt lat="54.501819" lon="9.553667">
        <ele>-10.004460</ele>
        <time>2021-02-13T12:17:37.000Z</time>
      </trkpt>
      <trkpt lat="54.501934" lon="9.553550">
        <ele>-10.079128</ele>
        <time>2021-02-13T12:17:46.000Z</time>
      </trkpt>
      <trkpt lat="54.501946" lon="9.553538">
        <ele>-10.086886</ele>
        <time>2021-02-13T12:17:47.000Z</time>
      </trkpt>
      <trkpt lat="54.502069" lon="9.553433">
        <ele>-10.163630</ele>
        <time>2021-02-13T12:17:54.000Z</time>
      </trkpt>
      <trkpt lat="54.502183" lon="9.553326">
        <ele>-10.236209</ele>
        <time>2021-02-13T12:18:02.000Z</time>
      </trkpt>
      <trkpt lat="54.502282" lon="9.553240">
        <ele>-10.298194</ele>
        <time>2021-02-13T12:18:10.000Z</time>
      </trkpt>
      <trkpt lat="54.502376" lon="9.553288">
        <ele>-10.353004</ele>
        <time>2021-02-13T12:18:16.000Z</time>
      </trkpt>
      <trkpt lat="54.502429" lon="9.553431">
        <ele>-10.408072</ele>
        <time>2021-02-13T12:18:22.000Z</time>
      </trkpt>
      <trkpt lat="54.502483" lon="9.553614">
        <ele>-10.474705</ele>
        <time>2021-02-13T12:18:30.000Z</time>
      </trkpt>
      <trkpt lat="54.502520" lon="9.553727">
        <ele>-10.516816</ele>
        <time>2021-02-13T12:18:35.000Z</time>
      </trkpt>
      <trkpt lat="54.502524" lon="9.553750">
        <ele>-10.524609</ele>
        <time>2021-02-13T12:18:36.000Z</time>
      </trkpt>
      <trkpt lat="54.502524" lon="9.553773">
        <ele>-10.532075</ele>
        <time>2021-02-13T12:18:37.000Z</time>
      </trkpt>
      <trkpt lat="54.502517" lon="9.553872">
        <ele>-10.564449</ele>
        <time>2021-02-13T12:18:41.000Z</time>
      </trkpt>
      <trkpt lat="54.502511" lon="9.553940">
        <ele>-10.586775</ele>
        <time>2021-02-13T12:18:44.000Z</time>
      </trkpt>
      <trkpt lat="54.502521" lon="9.553997">
        <ele>-10.597256</ele>
        <time>2021-02-13T12:18:47.000Z</time>
      </trkpt>
      <trkpt lat="54.502521" lon="9.554075">
        <ele>-10.601486</ele>
        <time>2021-02-13T12:18:51.000Z</time>
      </trkpt>
      <trkpt lat="54.502520" lon="9.554158">
        <ele>-10.605989</ele>
        <time>2021-02-13T12:18:54.000Z</time>
      </trkpt>
      <trkpt lat="54.502516" lon="9.554247">
        <ele>-10.610830</ele>
        <time>2021-02-13T12:18:57.000Z</time>
      </trkpt>
      <trkpt lat="54.502518" lon="9.554325">
        <ele>-10.615065</ele>
        <time>2021-02-13T12:19:00.000Z</time>
      </trkpt>
      <trkpt lat="54.502502" lon="9.554489">
        <ele>-10.624084</ele>
        <time>2021-02-13T12:19:06.000Z</time>
      </trkpt>
      <trkpt lat="54.502491" lon="9.554685">
        <ele>-10.634764</ele>
        <time>2021-02-13T12:19:13.000Z</time>
      </trkpt>
      <trkpt lat="54.502493" lon="9.554699">
        <ele>-10.635546</ele>
        <time>2021-02-13T12:19:14.000Z</time>
      </trkpt>
      <trkpt lat="54.502486" lon="9.554731">
        <ele>-10.637400</ele>
        <time>2021-02-13T12:19:15.000Z</time>
      </trkpt>
      <trkpt lat="54.502480" lon="9.554764">
        <ele>-10.639276</ele>
        <time>2021-02-13T12:19:16.000Z</time>
      </trkpt>
      <trkpt lat="54.502477" lon="9.554788">
        <ele>-10.640607</ele>
        <time>2021-02-13T12:19:17.000Z</time>
      </trkpt>
      <trkpt lat="54.502477" lon="9.554828">
        <ele>-10.642777</ele>
        <time>2021-02-13T12:19:19.000Z</time>
      </trkpt>
      <trkpt lat="54.502478" lon="9.554848">
        <ele>-10.643865</ele>
        <time>2021-02-13T12:19:20.000Z</time>
      </trkpt>
      <trkpt lat="54.502476" lon="9.554910">
        <ele>-10.647233</ele>
        <time>2021-02-13T12:19:23.000Z</time>
      </trkpt>
      <trkpt lat="54.502473" lon="9.554945">
        <ele>-10.649152</ele>
        <time>2021-02-13T12:19:25.000Z</time>
      </trkpt>
      <trkpt lat="54.502451" lon="9.555018">
        <ele>-10.653613</ele>
        <time>2021-02-13T12:19:28.000Z</time>
      </trkpt>
      <trkpt lat="54.502446" lon="9.555052">
        <ele>-10.655515</ele>
        <time>2021-02-13T12:19:30.000Z</time>
      </trkpt>
      <trkpt lat="54.502408" lon="9.555175">
        <ele>-10.663072</ele>
        <time>2021-02-13T12:19:35.000Z</time>
      </trkpt>
      <trkpt lat="54.502401" lon="9.555191">
        <ele>-10.664158</ele>
        <time>2021-02-13T12:19:36.000Z</time>
      </trkpt>
      <trkpt lat="54.502397" lon="9.555206">
        <ele>-10.665053</ele>
        <time>2021-02-13T12:19:37.000Z</time>
      </trkpt>
      <trkpt lat="54.502355" lon="9.555330">
        <ele>-10.672839</ele>
        <time>2021-02-13T12:19:44.000Z</time>
      </trkpt>
      <trkpt lat="54.502350" lon="9.555342">
        <ele>-10.673640</ele>
        <time>2021-02-13T12:19:45.000Z</time>
      </trkpt>
      <trkpt lat="54.502314" lon="9.555449">
        <ele>-10.680347</ele>
        <time>2021-02-13T12:19:51.000Z</time>
      </trkpt>
      <trkpt lat="54.502295" lon="9.555507">
        <ele>-10.683959</ele>
        <time>2021-02-13T12:19:54.000Z</time>
      </trkpt>
      <trkpt lat="54.502270" lon="9.555581">
        <ele>-10.688602</ele>
        <time>2021-02-13T12:19:58.000Z</time>
      </trkpt>
      <trkpt lat="54.502257" lon="9.555636">
        <ele>-10.691823</ele>
        <time>2021-02-13T12:20:01.000Z</time>
      </trkpt>
      <trkpt lat="54.502253" lon="9.555654">
        <ele>-10.692868</ele>
        <time>2021-02-13T12:20:02.000Z</time>
      </trkpt>
      <trkpt lat="54.502244" lon="9.555714">
        <ele>-10.696229</ele>
        <time>2021-02-13T12:20:05.000Z</time>
      </trkpt>
      <trkpt lat="54.502239" lon="9.555736">
        <ele>-10.697511</ele>
        <time>2021-02-13T12:20:06.000Z</time>
      </trkpt>
      <trkpt lat="54.502236" lon="9.555783">
        <ele>-10.700075</ele>
        <time>2021-02-13T12:20:08.000Z</time>
      </trkpt>
      <trkpt lat="54.502200" lon="9.555953">
        <ele>-10.709889</ele>
        <time>2021-02-13T12:20:13.000Z</time>
      </trkpt>
      <trkpt lat="54.502200" lon="9.555984">
        <ele>-10.711571</ele>
        <time>2021-02-13T12:20:14.000Z</time>
      </trkpt>
      <trkpt lat="54.502194" lon="9.556053">
        <ele>-10.715355</ele>
        <time>2021-02-13T12:20:16.000Z</time>
      </trkpt>
      <trkpt lat="54.502184" lon="9.556216">
        <ele>-10.724245</ele>
        <time>2021-02-13T12:20:22.000Z</time>
      </trkpt>
      <trkpt lat="54.502171" lon="9.556267">
        <ele>-10.727265</ele>
        <time>2021-02-13T12:20:25.000Z</time>
      </trkpt>
      <trkpt lat="54.502165" lon="9.556304">
        <ele>-10.729349</ele>
        <time>2021-02-13T12:20:27.000Z</time>
      </trkpt>
      <trkpt lat="54.502162" lon="9.556365">
        <ele>-10.732669</ele>
        <time>2021-02-13T12:20:30.000Z</time>
      </trkpt>
      <trkpt lat="54.502168" lon="9.556533">
        <ele>-10.741798</ele>
        <time>2021-02-13T12:20:37.000Z</time>
      </trkpt>
      <trkpt lat="54.502190" lon="9.556696">
        <ele>-10.750874</ele>
        <time>2021-02-13T12:20:44.000Z</time>
      </trkpt>
      <trkpt lat="54.502203" lon="9.556746">
        <ele>-10.753846</ele>
        <time>2021-02-13T12:20:46.000Z</time>
      </trkpt>
      <trkpt lat="54.502236" lon="9.556853">
        <ele>-10.760417</ele>
        <time>2021-02-13T12:20:51.000Z</time>
      </trkpt>
      <trkpt lat="54.502254" lon="9.556869">
        <ele>-10.762309</ele>
        <time>2021-02-13T12:20:52.000Z</time>
      </trkpt>
      <trkpt lat="54.502300" lon="9.556924">
        <ele>-10.780308</ele>
        <time>2021-02-13T12:20:56.000Z</time>
      </trkpt>
      <trkpt lat="54.502327" lon="9.556974">
        <ele>-10.795657</ele>
        <time>2021-02-13T12:20:59.000Z</time>
      </trkpt>
      <trkpt lat="54.502361" lon="9.557041">
        <ele>-10.815661</ele>
        <time>2021-02-13T12:21:04.000Z</time>
      </trkpt>
      <trkpt lat="54.502367" lon="9.557055">
        <ele>-10.819572</ele>
        <time>2021-02-13T12:21:05.000Z</time>
      </trkpt>
      <trkpt lat="54.502409" lon="9.557110">
        <ele>-10.840000</ele>
        <time>2021-02-13T12:21:09.000Z</time>
      </trkpt>
      <trkpt lat="54.502423" lon="9.557155">
        <ele>-10.851477</ele>
        <time>2021-02-13T12:21:11.000Z</time>
      </trkpt>
      <trkpt lat="54.502449" lon="9.557176">
        <ele>-10.862595</ele>
        <time>2021-02-13T12:21:12.000Z</time>
      </trkpt>
      <trkpt lat="54.502480" lon="9.557211">
        <ele>-10.876946</ele>
        <time>2021-02-13T12:21:14.000Z</time>
      </trkpt>
      <trkpt lat="54.502523" lon="9.557276">
        <ele>-10.899097</ele>
        <time>2021-02-13T12:21:18.000Z</time>
      </trkpt>
      <trkpt lat="54.502588" lon="9.557327">
        <ele>-10.926750</ele>
        <time>2021-02-13T12:21:22.000Z</time>
      </trkpt>
      <trkpt lat="54.502634" lon="9.557372">
        <ele>-10.947232</ele>
        <time>2021-02-13T12:21:25.000Z</time>
      </trkpt>
      <trkpt lat="54.502725" lon="9.557459">
        <ele>-10.987528</ele>
        <time>2021-02-13T12:21:31.000Z</time>
      </trkpt>
      <trkpt lat="54.502745" lon="9.557503">
        <ele>-11.000089</ele>
        <time>2021-02-13T12:21:33.000Z</time>
      </trkpt>
      <trkpt lat="54.502829" lon="9.557639">
        <ele>-11.044725</ele>
        <time>2021-02-13T12:21:41.000Z</time>
      </trkpt>
      <trkpt lat="54.502885" lon="9.557689">
        <ele>-11.069146</ele>
        <time>2021-02-13T12:21:45.000Z</time>
      </trkpt>
      <trkpt lat="54.502906" lon="9.557742">
        <ele>-11.083570</ele>
        <time>2021-02-13T12:21:48.000Z</time>
      </trkpt>
      <trkpt lat="54.502955" lon="9.557822">
        <ele>-11.109711</ele>
        <time>2021-02-13T12:21:54.000Z</time>
      </trkpt>
      <trkpt lat="54.502956" lon="9.557846">
        <ele>-11.115120</ele>
        <time>2021-02-13T12:21:55.000Z</time>
      </trkpt>
      <trkpt lat="54.502980" lon="9.557967">
        <ele>-11.143864</ele>
        <time>2021-02-13T12:22:01.000Z</time>
      </trkpt>
      <trkpt lat="54.502994" lon="9.558033">
        <ele>-11.159660</ele>
        <time>2021-02-13T12:22:07.000Z</time>
      </trkpt>
      <trkpt lat="54.502991" lon="9.558056">
        <ele>-11.164960</ele>
        <time>2021-02-13T12:22:09.000Z</time>
      </trkpt>
      <trkpt lat="54.502980" lon="9.558085">
        <ele>-11.172747</ele>
        <time>2021-02-13T12:22:14.000Z</time>
      </trkpt>
      <trkpt lat="54.502981" lon="9.558062">
        <ele>-11.177932</ele>
        <time>2021-02-13T12:22:20.000Z</time>
      </trkpt>
      <trkpt lat="54.502982" lon="9.558035">
        <ele>-11.184014</ele>
        <time>2021-02-13T12:22:29.000Z</time>
      </trkpt>
      <trkpt lat="54.502994" lon="9.558043">
        <ele>-11.188996</ele>
        <time>2021-02-13T12:22:32.000Z</time>
      </trkpt>
      <trkpt lat="54.502985" lon="9.558064">
        <ele>-11.194863</ele>
        <time>2021-02-13T12:22:35.000Z</time>
      </trkpt>
      <trkpt lat="54.502984" lon="9.558089">
        <ele>-11.200497</ele>
        <time>2021-02-13T12:22:37.000Z</time>
      </trkpt>
      <trkpt lat="54.502992" lon="9.558159">
        <ele>-11.216535</ele>
        <time>2021-02-13T12:22:42.000Z</time>
      </trkpt>
      <trkpt lat="54.502994" lon="9.558206">
        <ele>-11.227129</ele>
        <time>2021-02-13T12:22:47.000Z</time>
      </trkpt>
      <trkpt lat="54.502993" lon="9.558214">
        <ele>-11.228968</ele>
        <time>2021-02-13T12:22:48.000Z</time>
      </trkpt>
      <trkpt lat="54.502992" lon="9.558239">
        <ele>-11.234602</ele>
        <time>2021-02-13T12:22:50.000Z</time>
      </trkpt>
      <trkpt lat="54.502983" lon="9.558275">
        <ele>-11.243413</ele>
        <time>2021-02-13T12:22:57.000Z</time>
      </trkpt>
      <trkpt lat="54.502978" lon="9.558283">
        <ele>-11.246055</ele>
        <time>2021-02-13T12:23:03.000Z</time>
      </trkpt>
      <trkpt lat="54.502979" lon="9.558271">
        <ele>-11.248781</ele>
        <time>2021-02-13T12:23:07.000Z</time>
      </trkpt>
      <trkpt lat="54.502980" lon="9.558276">
        <ele>-11.249969</ele>
        <time>2021-02-13T12:23:10.000Z</time>
      </trkpt>
      <trkpt lat="54.502979" lon="9.558288">
        <ele>-11.252695</ele>
        <time>2021-02-13T12:23:14.000Z</time>
      </trkpt>
      <trkpt lat="54.502971" lon="9.558297">
        <ele>-11.256394</ele>
        <time>2021-02-13T12:23:21.000Z</time>
      </trkpt>
      <trkpt lat="54.502976" lon="9.558286">
        <ele>-11.259535</ele>
        <time>2021-02-13T12:23:30.000Z</time>
      </trkpt>
      <trkpt lat="54.502981" lon="9.558290">
        <ele>-11.261669</ele>
        <time>2021-02-13T12:23:40.000Z</time>
      </trkpt>
      <trkpt lat="54.502982" lon="9.558293">
        <ele>-11.262447</ele>
        <time>2021-02-13T12:23:42.000Z</time>
      </trkpt>
      <trkpt lat="54.502985" lon="9.558299">
        <ele>-11.264227</ele>
        <time>2021-02-13T12:23:49.000Z</time>
      </trkpt>
      <trkpt lat="54.502968" lon="9.558293">
        <ele>-11.270945</ele>
        <time>2021-02-13T12:23:57.000Z</time>
      </trkpt>
      <trkpt lat="54.502969" lon="9.558292">
        <ele>-11.271393</ele>
        <time>2021-02-13T12:23:58.000Z</time>
      </trkpt>
      <trkpt lat="54.502974" lon="9.558285">
        <ele>-11.273887</ele>
        <time>2021-02-13T12:24:02.000Z</time>
      </trkpt>
      <trkpt lat="54.502983" lon="9.558268">
        <ele>-11.279059</ele>
        <time>2021-02-13T12:24:05.000Z</time>
      </trkpt>
      <trkpt lat="54.502968" lon="9.558245">
        <ele>-11.286835</ele>
        <time>2021-02-13T12:24:14.000Z</time>
      </trkpt>
      <trkpt lat="54.502959" lon="9.558173">
        <ele>-11.303391</ele>
        <time>2021-02-13T12:24:20.000Z</time>
      </trkpt>
      <trkpt lat="54.502952" lon="9.558163">
        <ele>-11.306912</ele>
        <time>2021-02-13T12:24:22.000Z</time>
      </trkpt>
      <trkpt lat="54.502936" lon="9.558150">
        <ele>-11.313762</ele>
        <time>2021-02-13T12:24:26.000Z</time>
      </trkpt>
      <trkpt lat="54.502941" lon="9.558143">
        <ele>-11.316256</ele>
        <time>2021-02-13T12:24:35.000Z</time>
      </trkpt>
      <trkpt lat="54.502940" lon="9.558140">
        <ele>-11.317034</ele>
        <time>2021-02-13T12:24:38.000Z</time>
      </trkpt>
      <trkpt lat="54.502946" lon="9.558131">
        <ele>-11.320115</ele>
        <time>2021-02-13T12:24:43.000Z</time>
      </trkpt>
      <trkpt lat="54.502948" lon="9.558129">
        <ele>-11.321010</ele>
        <time>2021-02-13T12:24:51.000Z</time>
      </trkpt>
      <trkpt lat="54.502948" lon="9.558131">
        <ele>-11.321460</ele>
        <time>2021-02-13T12:24:57.000Z</time>
      </trkpt>
      <trkpt lat="54.502950" lon="9.558124">
        <ele>-11.323213</ele>
        <time>2021-02-13T12:25:01.000Z</time>
      </trkpt>
      <trkpt lat="54.502951" lon="9.558122">
        <ele>-11.323807</ele>
        <time>2021-02-13T12:25:04.000Z</time>
      </trkpt>
      <trkpt lat="54.502951" lon="9.558122">
        <ele>-11.323807</ele>
        <time>2021-02-13T12:25:07.000Z</time>
      </trkpt>
      <trkpt lat="54.502940" lon="9.558127">
        <ele>-11.328211</ele>
        <time>2021-02-13T12:25:15.000Z</time>
      </trkpt>
      <trkpt lat="54.502939" lon="9.558132">
        <ele>-11.329400</ele>
        <time>2021-02-13T12:25:26.000Z</time>
      </trkpt>
      <trkpt lat="54.502927" lon="9.558116">
        <ele>-11.335275</ele>
        <time>2021-02-13T12:25:30.000Z</time>
      </trkpt>
      <trkpt lat="54.502931" lon="9.558105">
        <ele>-11.338193</ele>
        <time>2021-02-13T12:25:32.000Z</time>
      </trkpt>
      <trkpt lat="54.502934" lon="9.558100">
        <ele>-11.339809</ele>
        <time>2021-02-13T12:25:33.000Z</time>
      </trkpt>
      <trkpt lat="54.502937" lon="9.558095">
        <ele>-11.341426</ele>
        <time>2021-02-13T12:25:34.000Z</time>
      </trkpt>
      <trkpt lat="54.502941" lon="9.558092">
        <ele>-11.343115</ele>
        <time>2021-02-13T12:25:35.000Z</time>
      </trkpt>
      <trkpt lat="54.502948" lon="9.558085">
        <ele>-11.346249</ele>
        <time>2021-02-13T12:25:36.000Z</time>
      </trkpt>
      <trkpt lat="54.502963" lon="9.558064">
        <ele>-11.353733</ele>
        <time>2021-02-13T12:25:41.000Z</time>
      </trkpt>
      <trkpt lat="54.502963" lon="9.558064">
        <ele>-11.353733</ele>
        <time>2021-02-13T12:25:42.000Z</time>
      </trkpt>
      <trkpt lat="54.502944" lon="9.558077">
        <ele>-11.361648</ele>
        <time>2021-02-13T12:25:47.000Z</time>
      </trkpt>
      <trkpt lat="54.502903" lon="9.558057">
        <ele>-11.378146</ele>
        <time>2021-02-13T12:25:52.000Z</time>
      </trkpt>
      <trkpt lat="54.502862" lon="9.558055">
        <ele>-11.394025</ele>
        <time>2021-02-13T12:25:56.000Z</time>
      </trkpt>
      <trkpt lat="54.502841" lon="9.558085">
        <ele>-11.404589</ele>
        <time>2021-02-13T12:25:58.000Z</time>
      </trkpt>
      <trkpt lat="54.502795" lon="9.558151">
        <ele>-11.427768</ele>
        <time>2021-02-13T12:26:02.000Z</time>
      </trkpt>
      <trkpt lat="54.502752" lon="9.558194">
        <ele>-11.447019</ele>
        <time>2021-02-13T12:26:06.000Z</time>
      </trkpt>
      <trkpt lat="54.502744" lon="9.558209">
        <ele>-11.451598</ele>
        <time>2021-02-13T12:26:07.000Z</time>
      </trkpt>
      <trkpt lat="54.502718" lon="9.558259">
        <ele>-11.456507</ele>
        <time>2021-02-13T12:26:10.000Z</time>
      </trkpt>
      <trkpt lat="54.502712" lon="9.558271">
        <ele>-11.454782</ele>
        <time>2021-02-13T12:26:11.000Z</time>
      </trkpt>
      <trkpt lat="54.502711" lon="9.558280">
        <ele>-11.453784</ele>
        <time>2021-02-13T12:26:12.000Z</time>
      </trkpt>
      <trkpt lat="54.502710" lon="9.558283">
        <ele>-11.453407</ele>
        <time>2021-02-13T12:26:13.000Z</time>
      </trkpt>
      <trkpt lat="54.502712" lon="9.558285">
        <ele>-11.452974</ele>
        <time>2021-02-13T12:26:15.000Z</time>
      </trkpt>
      <trkpt lat="54.502698" lon="9.558299">
        <ele>-11.449937</ele>
        <time>2021-02-13T12:26:20.000Z</time>
      </trkpt>
      <trkpt lat="54.502626" lon="9.558417">
        <ele>-11.431295</ele>
        <time>2021-02-13T12:26:28.000Z</time>
      </trkpt>
      <trkpt lat="54.502569" lon="9.558471">
        <ele>-11.419093</ele>
        <time>2021-02-13T12:26:33.000Z</time>
      </trkpt>
      <trkpt lat="54.502549" lon="9.558491">
        <ele>-11.414755</ele>
        <time>2021-02-13T12:26:35.000Z</time>
      </trkpt>
      <trkpt lat="54.502473" lon="9.558589">
        <ele>-11.396947</ele>
        <time>2021-02-13T12:26:42.000Z</time>
      </trkpt>
      <trkpt lat="54.502397" lon="9.558656">
        <ele>-11.380933</ele>
        <time>2021-02-13T12:26:49.000Z</time>
      </trkpt>
      <trkpt lat="54.502365" lon="9.558661">
        <ele>-11.374907</ele>
        <time>2021-02-13T12:26:52.000Z</time>
      </trkpt>
      <trkpt lat="54.502318" lon="9.558667">
        <ele>-11.366067</ele>
        <time>2021-02-13T12:26:56.000Z</time>
      </trkpt>
      <trkpt lat="54.502218" lon="9.558710">
        <ele>-11.346735</ele>
        <time>2021-02-13T12:27:04.000Z</time>
      </trkpt>
      <trkpt lat="54.502170" lon="9.558730">
        <ele>-11.337472</ele>
        <time>2021-02-13T12:27:08.000Z</time>
      </trkpt>
      <trkpt lat="54.502155" lon="9.558737">
        <ele>-11.334557</ele>
        <time>2021-02-13T12:27:09.000Z</time>
      </trkpt>
      <trkpt lat="54.502121" lon="9.558766">
        <ele>-11.327441</ele>
        <time>2021-02-13T12:27:12.000Z</time>
      </trkpt>
      <trkpt lat="54.502099" lon="9.558793">
        <ele>-11.322374</ele>
        <time>2021-02-13T12:27:14.000Z</time>
      </trkpt>
      <trkpt lat="54.502078" lon="9.558819">
        <ele>-11.317523</ele>
        <time>2021-02-13T12:27:16.000Z</time>
      </trkpt>
      <trkpt lat="54.502059" lon="9.558844">
        <ele>-11.313038</ele>
        <time>2021-02-13T12:27:18.000Z</time>
      </trkpt>
      <trkpt lat="54.501980" lon="9.558959">
        <ele>-11.293636</ele>
        <time>2021-02-13T12:27:26.000Z</time>
      </trkpt>
      <trkpt lat="54.501910" lon="9.559087">
        <ele>-11.274486</ele>
        <time>2021-02-13T12:27:33.000Z</time>
      </trkpt>
      <trkpt lat="54.501852" lon="9.559230">
        <ele>-11.255489</ele>
        <time>2021-02-13T12:27:39.000Z</time>
      </trkpt>
      <trkpt lat="54.501834" lon="9.559277">
        <ele>-11.249357</ele>
        <time>2021-02-13T12:27:41.000Z</time>
      </trkpt>
      <trkpt lat="54.501772" lon="9.559450">
        <ele>-11.227215</ele>
        <time>2021-02-13T12:27:49.000Z</time>
      </trkpt>
      <trkpt lat="54.501738" lon="9.559556">
        <ele>-11.214026</ele>
        <time>2021-02-13T12:27:55.000Z</time>
      </trkpt>
      <trkpt lat="54.501734" lon="9.559577">
        <ele>-11.211619</ele>
        <time>2021-02-13T12:27:56.000Z</time>
      </trkpt>
      <trkpt lat="54.501682" lon="9.559723">
        <ele>-11.192965</ele>
        <time>2021-02-13T12:28:04.000Z</time>
      </trkpt>
      <trkpt lat="54.501640" lon="9.559836">
        <ele>-11.178352</ele>
        <time>2021-02-13T12:28:12.000Z</time>
      </trkpt>
      <trkpt lat="54.501602" lon="9.559929">
        <ele>-11.165967</ele>
        <time>2021-02-13T12:28:19.000Z</time>
      </trkpt>
      <trkpt lat="54.501589" lon="9.559950">
        <ele>-11.162624</ele>
        <time>2021-02-13T12:28:21.000Z</time>
      </trkpt>
      <trkpt lat="54.501586" lon="9.559980">
        <ele>-11.159308</ele>
        <time>2021-02-13T12:28:24.000Z</time>
      </trkpt>
      <trkpt lat="54.501572" lon="9.560016">
        <ele>-11.154589</ele>
        <time>2021-02-13T12:28:28.000Z</time>
      </trkpt>
      <trkpt lat="54.501555" lon="9.560072">
        <ele>-11.147707</ele>
        <time>2021-02-13T12:28:32.000Z</time>
      </trkpt>
      <trkpt lat="54.501549" lon="9.560098">
        <ele>-11.144660</ele>
        <time>2021-02-13T12:28:33.000Z</time>
      </trkpt>
      <trkpt lat="54.501545" lon="9.560123">
        <ele>-11.141835</ele>
        <time>2021-02-13T12:28:34.000Z</time>
      </trkpt>
      <trkpt lat="54.501510" lon="9.560247">
        <ele>-11.126819</ele>
        <time>2021-02-13T12:28:40.000Z</time>
      </trkpt>
      <trkpt lat="54.501508" lon="9.560263">
        <ele>-11.125036</ele>
        <time>2021-02-13T12:28:41.000Z</time>
      </trkpt>
      <trkpt lat="54.501486" lon="9.560419">
        <ele>-11.119749</ele>
        <time>2021-02-13T12:28:49.000Z</time>
      </trkpt>
      <trkpt lat="54.501487" lon="9.560452">
        <ele>-11.119093</ele>
        <time>2021-02-13T12:28:51.000Z</time>
      </trkpt>
      <trkpt lat="54.501485" lon="9.560471">
        <ele>-11.118709</ele>
        <time>2021-02-13T12:28:52.000Z</time>
      </trkpt>
      <trkpt lat="54.501467" lon="9.560548">
        <ele>-11.117060</ele>
        <time>2021-02-13T12:28:56.000Z</time>
      </trkpt>
      <trkpt lat="54.501436" lon="9.560672">
        <ele>-11.114377</ele>
        <time>2021-02-13T12:29:04.000Z</time>
      </trkpt>
      <trkpt lat="54.501425" lon="9.560710">
        <ele>-11.113534</ele>
        <time>2021-02-13T12:29:06.000Z</time>
      </trkpt>
      <trkpt lat="54.501412" lon="9.560755">
        <ele>-11.112535</ele>
        <time>2021-02-13T12:29:09.000Z</time>
      </trkpt>
      <trkpt lat="54.501397" lon="9.560780">
        <ele>-11.111821</ele>
        <time>2021-02-13T12:29:12.000Z</time>
      </trkpt>
      <trkpt lat="54.501417" lon="9.560811">
        <ele>-11.110900</ele>
        <time>2021-02-13T12:29:18.000Z</time>
      </trkpt>
      <trkpt lat="54.501411" lon="9.560810">
        <ele>-11.110694</ele>
        <time>2021-02-13T12:29:23.000Z</time>
      </trkpt>
      <trkpt lat="54.501408" lon="9.560839">
        <ele>-11.110108</ele>
        <time>2021-02-13T12:29:25.000Z</time>
      </trkpt>
      <trkpt lat="54.501394" lon="9.561004">
        <ele>-11.106795</ele>
        <time>2021-02-13T12:29:33.000Z</time>
      </trkpt>
      <trkpt lat="54.501390" lon="9.561102">
        <ele>-11.104843</ele>
        <time>2021-02-13T12:29:38.000Z</time>
      </trkpt>
      <trkpt lat="54.501385" lon="9.561119">
        <ele>-11.104464</ele>
        <time>2021-02-13T12:29:39.000Z</time>
      </trkpt>
      <trkpt lat="54.501382" lon="9.561139">
        <ele>-11.104054</ele>
        <time>2021-02-13T12:29:40.000Z</time>
      </trkpt>
      <trkpt lat="54.501368" lon="9.561268">
        <ele>-11.101446</ele>
        <time>2021-02-13T12:29:46.000Z</time>
      </trkpt>
      <trkpt lat="54.501362" lon="9.561355">
        <ele>-11.099705</ele>
        <time>2021-02-13T12:29:50.000Z</time>
      </trkpt>
      <trkpt lat="54.501358" lon="9.561377">
        <ele>-11.099247</ele>
        <time>2021-02-13T12:29:51.000Z</time>
      </trkpt>
      <trkpt lat="54.501350" lon="9.561460">
        <ele>-11.097576</ele>
        <time>2021-02-13T12:29:55.000Z</time>
      </trkpt>
      <trkpt lat="54.501335" lon="9.561559">
        <ele>-11.095543</ele>
        <time>2021-02-13T12:30:00.000Z</time>
      </trkpt>
      <trkpt lat="54.501330" lon="9.561608">
        <ele>-11.094554</ele>
        <time>2021-02-13T12:30:02.000Z</time>
      </trkpt>
      <trkpt lat="54.501321" lon="9.561738">
        <ele>-11.091953</ele>
        <time>2021-02-13T12:30:08.000Z</time>
      </trkpt>
      <trkpt lat="54.501320" lon="9.561759">
        <ele>-11.091534</ele>
        <time>2021-02-13T12:30:09.000Z</time>
      </trkpt>
      <trkpt lat="54.501318" lon="9.561781">
        <ele>-11.091092</ele>
        <time>2021-02-13T12:30:10.000Z</time>
      </trkpt>
      <trkpt lat="54.501316" lon="9.561827">
        <ele>-11.090175</ele>
        <time>2021-02-13T12:30:12.000Z</time>
      </trkpt>
      <trkpt lat="54.501313" lon="9.561887">
        <ele>-11.088978</ele>
        <time>2021-02-13T12:30:15.000Z</time>
      </trkpt>
      <trkpt lat="54.501311" lon="9.561910">
        <ele>-11.088516</ele>
        <time>2021-02-13T12:30:16.000Z</time>
      </trkpt>
      <trkpt lat="54.501307" lon="9.561928">
        <ele>-11.088133</ele>
        <time>2021-02-13T12:30:17.000Z</time>
      </trkpt>
      <trkpt lat="54.501293" lon="9.562065">
        <ele>-11.085369</ele>
        <time>2021-02-13T12:30:23.000Z</time>
      </trkpt>
      <trkpt lat="54.501288" lon="9.562190">
        <ele>-11.082880</ele>
        <time>2021-02-13T12:30:29.000Z</time>
      </trkpt>
      <trkpt lat="54.501288" lon="9.562265">
        <ele>-11.081390</ele>
        <time>2021-02-13T12:30:33.000Z</time>
      </trkpt>
      <trkpt lat="54.501298" lon="9.562352">
        <ele>-11.079627</ele>
        <time>2021-02-13T12:30:38.000Z</time>
      </trkpt>
      <trkpt lat="54.501302" lon="9.562389">
        <ele>-11.078880</ele>
        <time>2021-02-13T12:30:40.000Z</time>
      </trkpt>
      <trkpt lat="54.501306" lon="9.562409">
        <ele>-11.078459</ele>
        <time>2021-02-13T12:30:41.000Z</time>
      </trkpt>
      <trkpt lat="54.501310" lon="9.562431">
        <ele>-11.078001</ele>
        <time>2021-02-13T12:30:42.000Z</time>
      </trkpt>
      <trkpt lat="54.501313" lon="9.562451">
        <ele>-11.077591</ele>
        <time>2021-02-13T12:30:43.000Z</time>
      </trkpt>
      <trkpt lat="54.501332" lon="9.562560">
        <ele>-11.075329</ele>
        <time>2021-02-13T12:30:49.000Z</time>
      </trkpt>
      <trkpt lat="54.501354" lon="9.562721">
        <ele>-11.072043</ele>
        <time>2021-02-13T12:30:57.000Z</time>
      </trkpt>
      <trkpt lat="54.501367" lon="9.562785">
        <ele>-11.070696</ele>
        <time>2021-02-13T12:31:02.000Z</time>
      </trkpt>
      <trkpt lat="54.501376" lon="9.562836">
        <ele>-11.069637</ele>
        <time>2021-02-13T12:31:05.000Z</time>
      </trkpt>
      <trkpt lat="54.501383" lon="9.562905">
        <ele>-11.068245</ele>
        <time>2021-02-13T12:31:09.000Z</time>
      </trkpt>
      <trkpt lat="54.501386" lon="9.562939">
        <ele>-11.067562</ele>
        <time>2021-02-13T12:31:11.000Z</time>
      </trkpt>
      <trkpt lat="54.501389" lon="9.562960">
        <ele>-11.067132</ele>
        <time>2021-02-13T12:31:12.000Z</time>
      </trkpt>
      <trkpt lat="54.501409" lon="9.563086">
        <ele>-11.064536</ele>
        <time>2021-02-13T12:31:19.000Z</time>
      </trkpt>
      <trkpt lat="54.501413" lon="9.563116">
        <ele>-11.063925</ele>
        <time>2021-02-13T12:31:21.000Z</time>
      </trkpt>
      <trkpt lat="54.501422" lon="9.563208">
        <ele>-11.062071</ele>
        <time>2021-02-13T12:31:28.000Z</time>
      </trkpt>
      <trkpt lat="54.501422" lon="9.563219">
        <ele>-11.061853</ele>
        <time>2021-02-13T12:31:29.000Z</time>
      </trkpt>
      <trkpt lat="54.501424" lon="9.563233">
        <ele>-11.061566</ele>
        <time>2021-02-13T12:31:30.000Z</time>
      </trkpt>
      <trkpt lat="54.501427" lon="9.563291">
        <ele>-11.059327</ele>
        <time>2021-02-13T12:31:35.000Z</time>
      </trkpt>
      <trkpt lat="54.501428" lon="9.563306">
        <ele>-11.058399</ele>
        <time>2021-02-13T12:31:36.000Z</time>
      </trkpt>
      <trkpt lat="54.501427" lon="9.563330">
        <ele>-11.056919</ele>
        <time>2021-02-13T12:31:38.000Z</time>
      </trkpt>
      <trkpt lat="54.501435" lon="9.563365">
        <ele>-11.054605</ele>
        <time>2021-02-13T12:31:43.000Z</time>
      </trkpt>
      <trkpt lat="54.501449" lon="9.563363">
        <ele>-11.053117</ele>
        <time>2021-02-13T12:31:49.000Z</time>
      </trkpt>
      <trkpt lat="54.501447" lon="9.563363">
        <ele>-11.052906</ele>
        <time>2021-02-13T12:31:51.000Z</time>
      </trkpt>
      <trkpt lat="54.501451" lon="9.563421">
        <ele>-11.049313</ele>
        <time>2021-02-13T12:31:57.000Z</time>
      </trkpt>
      <trkpt lat="54.501465" lon="9.563478">
        <ele>-11.045507</ele>
        <time>2021-02-13T12:32:03.000Z</time>
      </trkpt>
      <trkpt lat="54.501471" lon="9.563485">
        <ele>-11.044739</ele>
        <time>2021-02-13T12:32:04.000Z</time>
      </trkpt>
      <trkpt lat="54.501482" lon="9.563508">
        <ele>-11.042906</ele>
        <time>2021-02-13T12:32:11.000Z</time>
      </trkpt>
      <trkpt lat="54.501491" lon="9.563502">
        <ele>-11.041884</ele>
        <time>2021-02-13T12:32:15.000Z</time>
      </trkpt>
      <trkpt lat="54.501493" lon="9.563511">
        <ele>-11.041292</ele>
        <time>2021-02-13T12:32:19.000Z</time>
      </trkpt>
      <trkpt lat="54.501489" lon="9.563660">
        <ele>-11.032117</ele>
        <time>2021-02-13T12:32:27.000Z</time>
      </trkpt>
      <trkpt lat="54.501491" lon="9.563727">
        <ele>-11.027991</ele>
        <time>2021-02-13T12:32:32.000Z</time>
      </trkpt>
      <trkpt lat="54.501502" lon="9.563751">
        <ele>-11.026111</ele>
        <time>2021-02-13T12:32:34.000Z</time>
      </trkpt>
      <trkpt lat="54.501505" lon="9.563760">
        <ele>-11.025472</ele>
        <time>2021-02-13T12:32:35.000Z</time>
      </trkpt>
      <trkpt lat="54.501518" lon="9.563803">
        <ele>-11.022491</ele>
        <time>2021-02-13T12:32:42.000Z</time>
      </trkpt>
      <trkpt lat="54.501520" lon="9.563831">
        <ele>-11.020756</ele>
        <time>2021-02-13T12:32:49.000Z</time>
      </trkpt>
      <trkpt lat="54.501510" lon="9.563878">
        <ele>-11.017677</ele>
        <time>2021-02-13T12:32:57.000Z</time>
      </trkpt>
      <trkpt lat="54.501512" lon="9.563887">
        <ele>-11.017084</ele>
        <time>2021-02-13T12:32:58.000Z</time>
      </trkpt>
      <trkpt lat="54.501513" lon="9.563898">
        <ele>-11.016399</ele>
        <time>2021-02-13T12:32:59.000Z</time>
      </trkpt>
      <trkpt lat="54.501514" lon="9.563906">
        <ele>-11.015896</ele>
        <time>2021-02-13T12:33:00.000Z</time>
      </trkpt>
      <trkpt lat="54.501518" lon="9.563916">
        <ele>-11.015149</ele>
        <time>2021-02-13T12:33:01.000Z</time>
      </trkpt>
      <trkpt lat="54.501522" lon="9.563925">
        <ele>-11.014452</ele>
        <time>2021-02-13T12:33:02.000Z</time>
      </trkpt>
      <trkpt lat="54.501526" lon="9.563941">
        <ele>-11.013381</ele>
        <time>2021-02-13T12:33:04.000Z</time>
      </trkpt>
      <trkpt lat="54.501534" lon="9.563948">
        <ele>-11.012430</ele>
        <time>2021-02-13T12:33:05.000Z</time>
      </trkpt>
      <trkpt lat="54.501541" lon="9.563967">
        <ele>-11.011046</ele>
        <time>2021-02-13T12:33:09.000Z</time>
      </trkpt>
      <trkpt lat="54.501549" lon="9.563987">
        <ele>-11.009553</ele>
        <time>2021-02-13T12:33:12.000Z</time>
      </trkpt>
      <trkpt lat="54.501563" lon="9.564062">
        <ele>-11.004707</ele>
        <time>2021-02-13T12:33:19.000Z</time>
      </trkpt>
      <trkpt lat="54.501566" lon="9.564088">
        <ele>-11.003077</ele>
        <time>2021-02-13T12:33:21.000Z</time>
      </trkpt>
      <trkpt lat="54.501568" lon="9.564174">
        <ele>-10.997783</ele>
        <time>2021-02-13T12:33:26.000Z</time>
      </trkpt>
      <trkpt lat="54.501568" lon="9.564186">
        <ele>-10.997045</ele>
        <time>2021-02-13T12:33:27.000Z</time>
      </trkpt>
      <trkpt lat="54.501579" lon="9.564253">
        <ele>-10.992763</ele>
        <time>2021-02-13T12:33:32.000Z</time>
      </trkpt>
      <trkpt lat="54.501578" lon="9.564268">
        <ele>-10.991834</ele>
        <time>2021-02-13T12:33:33.000Z</time>
      </trkpt>
      <trkpt lat="54.501586" lon="9.564346">
        <ele>-10.986963</ele>
        <time>2021-02-13T12:33:38.000Z</time>
      </trkpt>
      <trkpt lat="54.501584" lon="9.564354">
        <ele>-10.986427</ele>
        <time>2021-02-13T12:33:40.000Z</time>
      </trkpt>
      <trkpt lat="54.501585" lon="9.564352">
        <ele>-10.986265</ele>
        <time>2021-02-13T12:33:44.000Z</time>
      </trkpt>
      <trkpt lat="54.501587" lon="9.564346">
        <ele>-10.985839</ele>
        <time>2021-02-13T12:33:46.000Z</time>
      </trkpt>
      <trkpt lat="54.501590" lon="9.564347">
        <ele>-10.985515</ele>
        <time>2021-02-13T12:33:47.000Z</time>
      </trkpt>
      <trkpt lat="54.501589" lon="9.564365">
        <ele>-10.984403</ele>
        <time>2021-02-13T12:33:53.000Z</time>
      </trkpt>
      <trkpt lat="54.501574" lon="9.564376">
        <ele>-10.982676</ele>
        <time>2021-02-13T12:33:57.000Z</time>
      </trkpt>
      <trkpt lat="54.501585" lon="9.564430">
        <ele>-10.979157</ele>
        <time>2021-02-13T12:34:02.000Z</time>
      </trkpt>
      <trkpt lat="54.501596" lon="9.564498">
        <ele>-10.974815</ele>
        <time>2021-02-13T12:34:07.000Z</time>
      </trkpt>
      <trkpt lat="54.501597" lon="9.564504">
        <ele>-10.974431</ele>
        <time>2021-02-13T12:34:08.000Z</time>
      </trkpt>
      <trkpt lat="54.501595" lon="9.564503">
        <ele>-10.974211</ele>
        <time>2021-02-13T12:34:09.000Z</time>
      </trkpt>
      <trkpt lat="54.501596" lon="9.564502">
        <ele>-10.974088</ele>
        <time>2021-02-13T12:34:11.000Z</time>
      </trkpt>
      <trkpt lat="54.501597" lon="9.564503">
        <ele>-10.973966</ele>
        <time>2021-02-13T12:34:13.000Z</time>
      </trkpt>
      <trkpt lat="54.501597" lon="9.564501">
        <ele>-10.973843</ele>
        <time>2021-02-13T12:34:16.000Z</time>
      </trkpt>
      <trkpt lat="54.501590" lon="9.564501">
        <ele>-10.973101</ele>
        <time>2021-02-13T12:34:22.000Z</time>
      </trkpt>
      <trkpt lat="54.501588" lon="9.564488">
        <ele>-10.972274</ele>
        <time>2021-02-13T12:34:31.000Z</time>
      </trkpt>
      <trkpt lat="54.501587" lon="9.564478">
        <ele>-10.971650</ele>
        <time>2021-02-13T12:34:37.000Z</time>
      </trkpt>
      <trkpt lat="54.501587" lon="9.564477">
        <ele>-10.971589</ele>
        <time>2021-02-13T12:34:41.000Z</time>
      </trkpt>
      <trkpt lat="54.501609" lon="9.564541">
        <ele>-10.967014</ele>
        <time>2021-02-13T12:34:47.000Z</time>
      </trkpt>
      <trkpt lat="54.501621" lon="9.564589">
        <ele>-10.963800</ele>
        <time>2021-02-13T12:34:49.000Z</time>
      </trkpt>
      <trkpt lat="54.501635" lon="9.564640">
        <ele>-10.960330</ele>
        <time>2021-02-13T12:34:51.000Z</time>
      </trkpt>
      <trkpt lat="54.501650" lon="9.564748">
        <ele>-10.953501</ele>
        <time>2021-02-13T12:34:55.000Z</time>
      </trkpt>
      <trkpt lat="54.501657" lon="9.564863">
        <ele>-10.946389</ele>
        <time>2021-02-13T12:34:59.000Z</time>
      </trkpt>
      <trkpt lat="54.501664" lon="9.564919">
        <ele>-10.942866</ele>
        <time>2021-02-13T12:35:01.000Z</time>
      </trkpt>
      <trkpt lat="54.501671" lon="9.564974">
        <ele>-10.939403</ele>
        <time>2021-02-13T12:35:03.000Z</time>
      </trkpt>
      <trkpt lat="54.501683" lon="9.565106">
        <ele>-10.931185</ele>
        <time>2021-02-13T12:35:09.000Z</time>
      </trkpt>
      <trkpt lat="54.501685" lon="9.565124">
        <ele>-10.930058</ele>
        <time>2021-02-13T12:35:10.000Z</time>
      </trkpt>
      <trkpt lat="54.501692" lon="9.565199">
        <ele>-10.925386</ele>
        <time>2021-02-13T12:35:14.000Z</time>
      </trkpt>
      <trkpt lat="54.501698" lon="9.565264">
        <ele>-10.921338</ele>
        <time>2021-02-13T12:35:17.000Z</time>
      </trkpt>
      <trkpt lat="54.501713" lon="9.565458">
        <ele>-10.909301</ele>
        <time>2021-02-13T12:35:25.000Z</time>
      </trkpt>
      <trkpt lat="54.501712" lon="9.565484">
        <ele>-10.907698</ele>
        <time>2021-02-13T12:35:26.000Z</time>
      </trkpt>
      <trkpt lat="54.501695" lon="9.565609">
        <ele>-10.899802</ele>
        <time>2021-02-13T12:35:33.000Z</time>
      </trkpt>
      <trkpt lat="54.501692" lon="9.565628">
        <ele>-10.898591</ele>
        <time>2021-02-13T12:35:35.000Z</time>
      </trkpt>
      <trkpt lat="54.501688" lon="9.565711">
        <ele>-10.893468</ele>
        <time>2021-02-13T12:35:40.000Z</time>
      </trkpt>
      <trkpt lat="54.501679" lon="9.565806">
        <ele>-10.887548</ele>
        <time>2021-02-13T12:35:44.000Z</time>
      </trkpt>
      <trkpt lat="54.501677" lon="9.565829">
        <ele>-10.886118</ele>
        <time>2021-02-13T12:35:45.000Z</time>
      </trkpt>
      <trkpt lat="54.501667" lon="9.565894">
        <ele>-10.881982</ele>
        <time>2021-02-13T12:35:48.000Z</time>
      </trkpt>
      <trkpt lat="54.501660" lon="9.565938">
        <ele>-10.879176</ele>
        <time>2021-02-13T12:35:50.000Z</time>
      </trkpt>
      <trkpt lat="54.501635" lon="9.566101">
        <ele>-10.861643</ele>
        <time>2021-02-13T12:35:57.000Z</time>
      </trkpt>
      <trkpt lat="54.501631" lon="9.566121">
        <ele>-10.854548</ele>
        <time>2021-02-13T12:35:58.000Z</time>
      </trkpt>
      <trkpt lat="54.501607" lon="9.566244">
        <ele>-10.811026</ele>
        <time>2021-02-13T12:36:04.000Z</time>
      </trkpt>
      <trkpt lat="54.501599" lon="9.566308">
        <ele>-10.789068</ele>
        <time>2021-02-13T12:36:07.000Z</time>
      </trkpt>
      <trkpt lat="54.501597" lon="9.566354">
        <ele>-10.773596</ele>
        <time>2021-02-13T12:36:09.000Z</time>
      </trkpt>
      <trkpt lat="54.501597" lon="9.566410">
        <ele>-10.754813</ele>
        <time>2021-02-13T12:36:12.000Z</time>
      </trkpt>
      <trkpt lat="54.501595" lon="9.566462">
        <ele>-10.737333</ele>
        <time>2021-02-13T12:36:15.000Z</time>
      </trkpt>
      <trkpt lat="54.501586" lon="9.566563">
        <ele>-10.703060</ele>
        <time>2021-02-13T12:36:19.000Z</time>
      </trkpt>
      <trkpt lat="54.501581" lon="9.566642">
        <ele>-10.676405</ele>
        <time>2021-02-13T12:36:22.000Z</time>
      </trkpt>
      <trkpt lat="54.501577" lon="9.566690">
        <ele>-10.660140</ele>
        <time>2021-02-13T12:36:24.000Z</time>
      </trkpt>
      <trkpt lat="54.501575" lon="9.566714">
        <ele>-10.652008</ele>
        <time>2021-02-13T12:36:25.000Z</time>
      </trkpt>
      <trkpt lat="54.501567" lon="9.566896">
        <ele>-10.590788</ele>
        <time>2021-02-13T12:36:34.000Z</time>
      </trkpt>
      <trkpt lat="54.501565" lon="9.566897">
        <ele>-10.589585</ele>
        <time>2021-02-13T12:36:35.000Z</time>
      </trkpt>
      <trkpt lat="54.501558" lon="9.566891">
        <ele>-10.585069</ele>
        <time>2021-02-13T12:36:40.000Z</time>
      </trkpt>
      <trkpt lat="54.501559" lon="9.566891">
        <ele>-10.584491</ele>
        <time>2021-02-13T12:36:44.000Z</time>
      </trkpt>
      <trkpt lat="54.501555" lon="9.566983">
        <ele>-10.553547</ele>
        <time>2021-02-13T12:36:50.000Z</time>
      </trkpt>
      <trkpt lat="54.501526" lon="9.567264">
        <ele>-10.457819</ele>
        <time>2021-02-13T12:37:01.000Z</time>
      </trkpt>
      <trkpt lat="54.501524" lon="9.567288">
        <ele>-10.449687</ele>
        <time>2021-02-13T12:37:02.000Z</time>
      </trkpt>
      <trkpt lat="54.501523" lon="9.567310">
        <ele>-10.442285</ele>
        <time>2021-02-13T12:37:03.000Z</time>
      </trkpt>
      <trkpt lat="54.501517" lon="9.567470">
        <ele>-10.388507</ele>
        <time>2021-02-13T12:37:10.000Z</time>
      </trkpt>
      <trkpt lat="54.501517" lon="9.567494">
        <ele>-10.380457</ele>
        <time>2021-02-13T12:37:11.000Z</time>
      </trkpt>
      <trkpt lat="54.501534" lon="9.567648">
        <ele>-10.327879</ele>
        <time>2021-02-13T12:37:19.000Z</time>
      </trkpt>
      <trkpt lat="54.501536" lon="9.567714">
        <ele>-10.305711</ele>
        <time>2021-02-13T12:37:22.000Z</time>
      </trkpt>
      <trkpt lat="54.501521" lon="9.567801">
        <ele>-10.275271</ele>
        <time>2021-02-13T12:37:26.000Z</time>
      </trkpt>
      <trkpt lat="54.501514" lon="9.567816">
        <ele>-10.268817</ele>
        <time>2021-02-13T12:37:27.000Z</time>
      </trkpt>
      <trkpt lat="54.501503" lon="9.567847">
        <ele>-10.256631</ele>
        <time>2021-02-13T12:37:29.000Z</time>
      </trkpt>
      <trkpt lat="54.501501" lon="9.567891">
        <ele>-10.241828</ele>
        <time>2021-02-13T12:37:31.000Z</time>
      </trkpt>
      <trkpt lat="54.501496" lon="9.567940">
        <ele>-10.225141</ele>
        <time>2021-02-13T12:37:35.000Z</time>
      </trkpt>
      <trkpt lat="54.501497" lon="9.567946">
        <ele>-10.223047</ele>
        <time>2021-02-13T12:37:36.000Z</time>
      </trkpt>
      <trkpt lat="54.501497" lon="9.567960">
        <ele>-10.218351</ele>
        <time>2021-02-13T12:37:37.000Z</time>
      </trkpt>
      <trkpt lat="54.501502" lon="9.568070">
        <ele>-10.181343</ele>
        <time>2021-02-13T12:37:43.000Z</time>
      </trkpt>
      <trkpt lat="54.501506" lon="9.568124">
        <ele>-10.163084</ele>
        <time>2021-02-13T12:37:46.000Z</time>
      </trkpt>
      <trkpt lat="54.501503" lon="9.568166">
        <ele>-10.148890</ele>
        <time>2021-02-13T12:37:48.000Z</time>
      </trkpt>
      <trkpt lat="54.501502" lon="9.568189">
        <ele>-10.141154</ele>
        <time>2021-02-13T12:37:49.000Z</time>
      </trkpt>
      <trkpt lat="54.501501" lon="9.568210">
        <ele>-10.134087</ele>
        <time>2021-02-13T12:37:50.000Z</time>
      </trkpt>
      <trkpt lat="54.501495" lon="9.568251">
        <ele>-10.119905</ele>
        <time>2021-02-13T12:37:52.000Z</time>
      </trkpt>
      <trkpt lat="54.501480" lon="9.568324">
        <ele>-10.093932</ele>
        <time>2021-02-13T12:37:55.000Z</time>
      </trkpt>
      <trkpt lat="54.501462" lon="9.568378">
        <ele>-10.073048</ele>
        <time>2021-02-13T12:37:57.000Z</time>
      </trkpt>
      <trkpt lat="54.501463" lon="9.568391">
        <ele>-10.068649</ele>
        <time>2021-02-13T12:37:58.000Z</time>
      </trkpt>
      <trkpt lat="54.501466" lon="9.568423">
        <ele>-10.057777</ele>
        <time>2021-02-13T12:38:00.000Z</time>
      </trkpt>
      <trkpt lat="54.501459" lon="9.568460">
        <ele>-10.044725</ele>
        <time>2021-02-13T12:38:02.000Z</time>
      </trkpt>
      <trkpt lat="54.501457" lon="9.568525">
        <ele>-10.022892</ele>
        <time>2021-02-13T12:38:06.000Z</time>
      </trkpt>
      <trkpt lat="54.501455" lon="9.568529">
        <ele>-10.021122</ele>
        <time>2021-02-13T12:38:07.000Z</time>
      </trkpt>
      <trkpt lat="54.501451" lon="9.568538">
        <ele>-10.017320</ele>
        <time>2021-02-13T12:38:09.000Z</time>
      </trkpt>
      <trkpt lat="54.501420" lon="9.568555">
        <ele>-9.998528</ele>
        <time>2021-02-13T12:38:12.000Z</time>
      </trkpt>
      <trkpt lat="54.501377" lon="9.568606">
        <ele>-9.968370</ele>
        <time>2021-02-13T12:38:16.000Z</time>
      </trkpt>
      <trkpt lat="54.501352" lon="9.568628">
        <ele>-9.952153</ele>
        <time>2021-02-13T12:38:18.000Z</time>
      </trkpt>
      <trkpt lat="54.501302" lon="9.568650">
        <ele>-9.922344</ele>
        <time>2021-02-13T12:38:22.000Z</time>
      </trkpt>
      <trkpt lat="54.501271" lon="9.568680">
        <ele>-9.901804</ele>
        <time>2021-02-13T12:38:24.000Z</time>
      </trkpt>
      <trkpt lat="54.501235" lon="9.568722">
        <ele>-9.876688</ele>
        <time>2021-02-13T12:38:27.000Z</time>
      </trkpt>
      <trkpt lat="54.501191" lon="9.568746">
        <ele>-9.850028</ele>
        <time>2021-02-13T12:38:31.000Z</time>
      </trkpt>
      <trkpt lat="54.501171" lon="9.568762">
        <ele>-9.837290</ele>
        <time>2021-02-13T12:38:33.000Z</time>
      </trkpt>
      <trkpt lat="54.501152" lon="9.568831">
        <ele>-9.779503</ele>
        <time>2021-02-13T12:38:37.000Z</time>
      </trkpt>
      <trkpt lat="54.501143" lon="9.568875">
        <ele>-9.738442</ele>
        <time>2021-02-13T12:38:39.000Z</time>
      </trkpt>
      <trkpt lat="54.501099" lon="9.569044">
        <ele>-9.575421</ele>
        <time>2021-02-13T12:38:45.000Z</time>
      </trkpt>
      <trkpt lat="54.501089" lon="9.569188">
        <ele>-9.447769</ele>
        <time>2021-02-13T12:38:51.000Z</time>
      </trkpt>
      <trkpt lat="54.501068" lon="9.569244">
        <ele>-9.389093</ele>
        <time>2021-02-13T12:38:53.000Z</time>
      </trkpt>
      <trkpt lat="54.501070" lon="9.569386">
        <ele>-9.264068</ele>
        <time>2021-02-13T12:38:59.000Z</time>
      </trkpt>
      <trkpt lat="54.501086" lon="9.569531">
        <ele>-9.134156</ele>
        <time>2021-02-13T12:39:04.000Z</time>
      </trkpt>
      <trkpt lat="54.501085" lon="9.569571">
        <ele>-9.098915</ele>
        <time>2021-02-13T12:39:06.000Z</time>
      </trkpt>
      <trkpt lat="54.501068" lon="9.569694">
        <ele>-8.987626</ele>
        <time>2021-02-13T12:39:10.000Z</time>
      </trkpt>
      <trkpt lat="54.501051" lon="9.569756">
        <ele>-8.927276</ele>
        <time>2021-02-13T12:39:12.000Z</time>
      </trkpt>
      <trkpt lat="54.501041" lon="9.569800">
        <ele>-8.885686</ele>
        <time>2021-02-13T12:39:14.000Z</time>
      </trkpt>
      <trkpt lat="54.501023" lon="9.569851">
        <ele>-8.833155</ele>
        <time>2021-02-13T12:39:17.000Z</time>
      </trkpt>
      <trkpt lat="54.501013" lon="9.569868">
        <ele>-8.811855</ele>
        <time>2021-02-13T12:39:18.000Z</time>
      </trkpt>
      <trkpt lat="54.501013" lon="9.569872">
        <ele>-8.808335</ele>
        <time>2021-02-13T12:39:19.000Z</time>
      </trkpt>
      <trkpt lat="54.501017" lon="9.569876">
        <ele>-8.801323</ele>
        <time>2021-02-13T12:39:21.000Z</time>
      </trkpt>
      <trkpt lat="54.501025" lon="9.569957">
        <ele>-8.729003</ele>
        <time>2021-02-13T12:39:27.000Z</time>
      </trkpt>
      <trkpt lat="54.500978" lon="9.569963">
        <ele>-8.657566</ele>
        <time>2021-02-13T12:39:32.000Z</time>
      </trkpt>
      <trkpt lat="54.500927" lon="9.569945">
        <ele>-8.578654</ele>
        <time>2021-02-13T12:39:36.000Z</time>
      </trkpt>
      <trkpt lat="54.500904" lon="9.569946">
        <ele>-8.543779</ele>
        <time>2021-02-13T12:39:38.000Z</time>
      </trkpt>
      <trkpt lat="54.500886" lon="9.569941">
        <ele>-8.516142</ele>
        <time>2021-02-13T12:39:40.000Z</time>
      </trkpt>
      <trkpt lat="54.500876" lon="9.569932">
        <ele>-8.499039</ele>
        <time>2021-02-13T12:39:41.000Z</time>
      </trkpt>
      <trkpt lat="54.500852" lon="9.569884">
        <ele>-8.443286</ele>
        <time>2021-02-13T12:39:44.000Z</time>
      </trkpt>
      <trkpt lat="54.500846" lon="9.569867">
        <ele>-8.425775</ele>
        <time>2021-02-13T12:39:45.000Z</time>
      </trkpt>
      <trkpt lat="54.500840" lon="9.569845">
        <ele>-8.404381</ele>
        <time>2021-02-13T12:39:46.000Z</time>
      </trkpt>
      <trkpt lat="54.500830" lon="9.569800">
        <ele>-8.361971</ele>
        <time>2021-02-13T12:39:49.000Z</time>
      </trkpt>
      <trkpt lat="54.500809" lon="9.569772">
        <ele>-8.321713</ele>
        <time>2021-02-13T12:39:52.000Z</time>
      </trkpt>
      <trkpt lat="54.500774" lon="9.569745">
        <ele>-8.263581</ele>
        <time>2021-02-13T12:39:56.000Z</time>
      </trkpt>
      <trkpt lat="54.500749" lon="9.569729">
        <ele>-8.223154</ele>
        <time>2021-02-13T12:39:59.000Z</time>
      </trkpt>
      <trkpt lat="54.500726" lon="9.569711">
        <ele>-8.184859</ele>
        <time>2021-02-13T12:40:01.000Z</time>
      </trkpt>
      <trkpt lat="54.500693" lon="9.569686">
        <ele>-8.130212</ele>
        <time>2021-02-13T12:40:05.000Z</time>
      </trkpt>
      <trkpt lat="54.500664" lon="9.569689">
        <ele>-8.086175</ele>
        <time>2021-02-13T12:40:07.000Z</time>
      </trkpt>
      <trkpt lat="54.500609" lon="9.569704">
        <ele>-8.001768</ele>
        <time>2021-02-13T12:40:11.000Z</time>
      </trkpt>
      <trkpt lat="54.500532" lon="9.569732">
        <ele>-7.882478</ele>
        <time>2021-02-13T12:40:17.000Z</time>
      </trkpt>
      <trkpt lat="54.500507" lon="9.569733">
        <ele>-7.844573</ele>
        <time>2021-02-13T12:40:19.000Z</time>
      </trkpt>
      <trkpt lat="54.500411" lon="9.569683">
        <ele>-7.692548</ele>
        <time>2021-02-13T12:40:27.000Z</time>
      </trkpt>
      <trkpt lat="54.500309" lon="9.569679">
        <ele>-7.537897</ele>
        <time>2021-02-13T12:40:33.000Z</time>
      </trkpt>
      <trkpt lat="54.500286" lon="9.569687">
        <ele>-7.502330</ele>
        <time>2021-02-13T12:40:35.000Z</time>
      </trkpt>
      <trkpt lat="54.500260" lon="9.569690">
        <ele>-7.462831</ele>
        <time>2021-02-13T12:40:38.000Z</time>
      </trkpt>
      <trkpt lat="54.500249" lon="9.569692">
        <ele>-7.446065</ele>
        <time>2021-02-13T12:40:39.000Z</time>
      </trkpt>
      <trkpt lat="54.500218" lon="9.569703">
        <ele>-7.398088</ele>
        <time>2021-02-13T12:40:42.000Z</time>
      </trkpt>
      <trkpt lat="54.500202" lon="9.569713">
        <ele>-7.372288</ele>
        <time>2021-02-13T12:40:43.000Z</time>
      </trkpt>
      <trkpt lat="54.500180" lon="9.569710">
        <ele>-7.338836</ele>
        <time>2021-02-13T12:40:45.000Z</time>
      </trkpt>
      <trkpt lat="54.500095" lon="9.569706">
        <ele>-7.209946</ele>
        <time>2021-02-13T12:40:50.000Z</time>
      </trkpt>
      <trkpt lat="54.500057" lon="9.569700">
        <ele>-7.152104</ele>
        <time>2021-02-13T12:40:52.000Z</time>
      </trkpt>
      <trkpt lat="54.499977" lon="9.569710">
        <ele>-7.008773</ele>
        <time>2021-02-13T12:40:56.000Z</time>
      </trkpt>
      <trkpt lat="54.499923" lon="9.569716">
        <ele>-6.902837</ele>
        <time>2021-02-13T12:40:59.000Z</time>
      </trkpt>
      <trkpt lat="54.499907" lon="9.569731">
        <ele>-6.867173</ele>
        <time>2021-02-13T12:41:00.000Z</time>
      </trkpt>
      <trkpt lat="54.499885" lon="9.569738">
        <ele>-6.823374</ele>
        <time>2021-02-13T12:41:02.000Z</time>
      </trkpt>
      <trkpt lat="54.499878" lon="9.569741">
        <ele>-6.809252</ele>
        <time>2021-02-13T12:41:03.000Z</time>
      </trkpt>
      <trkpt lat="54.499854" lon="9.569759">
        <ele>-6.758005</ele>
        <time>2021-02-13T12:41:05.000Z</time>
      </trkpt>
      <trkpt lat="54.499817" lon="9.569760">
        <ele>-6.685561</ele>
        <time>2021-02-13T12:41:08.000Z</time>
      </trkpt>
      <trkpt lat="54.499803" lon="9.569762">
        <ele>-6.658059</ele>
        <time>2021-02-13T12:41:09.000Z</time>
      </trkpt>
      <trkpt lat="54.499684" lon="9.569801">
        <ele>-6.420910</ele>
        <time>2021-02-13T12:41:15.000Z</time>
      </trkpt>
      <trkpt lat="54.499615" lon="9.569802">
        <ele>-6.285824</ele>
        <time>2021-02-13T12:41:20.000Z</time>
      </trkpt>
      <trkpt lat="54.499573" lon="9.569794">
        <ele>-6.203099</ele>
        <time>2021-02-13T12:41:23.000Z</time>
      </trkpt>
      <trkpt lat="54.499456" lon="9.569745">
        <ele>-5.967371</ele>
        <time>2021-02-13T12:41:29.000Z</time>
      </trkpt>
      <trkpt lat="54.499340" lon="9.569706">
        <ele>-5.735989</ele>
        <time>2021-02-13T12:41:35.000Z</time>
      </trkpt>
      <trkpt lat="54.499207" lon="9.569684">
        <ele>-5.474416</ele>
        <time>2021-02-13T12:41:42.000Z</time>
      </trkpt>
      <trkpt lat="54.499187" lon="9.569692">
        <ele>-5.434219</ele>
        <time>2021-02-13T12:41:43.000Z</time>
      </trkpt>
      <trkpt lat="54.499152" lon="9.569695">
        <ele>-5.365615</ele>
        <time>2021-02-13T12:41:45.000Z</time>
      </trkpt>
      <trkpt lat="54.499093" lon="9.569697">
        <ele>-5.250088</ele>
        <time>2021-02-13T12:41:48.000Z</time>
      </trkpt>
      <trkpt lat="54.498978" lon="9.569664">
        <ele>-5.021847</ele>
        <time>2021-02-13T12:41:54.000Z</time>
      </trkpt>
      <trkpt lat="54.498869" lon="9.569660">
        <ele>-4.808409</ele>
        <time>2021-02-13T12:42:01.000Z</time>
      </trkpt>
      <trkpt lat="54.498727" lon="9.569619">
        <ele>-4.526534</ele>
        <time>2021-02-13T12:42:08.000Z</time>
      </trkpt>
      <trkpt lat="54.498641" lon="9.569606">
        <ele>-4.357524</ele>
        <time>2021-02-13T12:42:13.000Z</time>
      </trkpt>
      <trkpt lat="54.498585" lon="9.569602">
        <ele>-4.247798</ele>
        <time>2021-02-13T12:42:17.000Z</time>
      </trkpt>
      <trkpt lat="54.498571" lon="9.569604">
        <ele>-4.220296</ele>
        <time>2021-02-13T12:42:18.000Z</time>
      </trkpt>
      <trkpt lat="54.498562" lon="9.569598">
        <ele>-4.201402</ele>
        <time>2021-02-13T12:42:19.000Z</time>
      </trkpt>
      <trkpt lat="54.498497" lon="9.569546">
        <ele>-4.061089</ele>
        <time>2021-02-13T12:42:24.000Z</time>
      </trkpt>
      <trkpt lat="54.498454" lon="9.569530">
        <ele>-3.974965</ele>
        <time>2021-02-13T12:42:26.000Z</time>
      </trkpt>
      <trkpt lat="54.498413" lon="9.569511">
        <ele>-3.891844</ele>
        <time>2021-02-13T12:42:28.000Z</time>
      </trkpt>
      <trkpt lat="54.498359" lon="9.569481">
        <ele>-3.780762</ele>
        <time>2021-02-13T12:42:31.000Z</time>
      </trkpt>
      <trkpt lat="54.498342" lon="9.569473">
        <ele>-3.746260</ele>
        <time>2021-02-13T12:42:32.000Z</time>
      </trkpt>
      <trkpt lat="54.498207" lon="9.569436">
        <ele>-3.566503</ele>
        <time>2021-02-13T12:42:39.000Z</time>
      </trkpt>
      <trkpt lat="54.498088" lon="9.569409">
        <ele>-3.527650</ele>
        <time>2021-02-13T12:42:45.000Z</time>
      </trkpt>
      <trkpt lat="54.498069" lon="9.569399">
        <ele>-3.521218</ele>
        <time>2021-02-13T12:42:46.000Z</time>
      </trkpt>
      <trkpt lat="54.497978" lon="9.569380">
        <ele>-3.491546</ele>
        <time>2021-02-13T12:42:52.000Z</time>
      </trkpt>
      <trkpt lat="54.497959" lon="9.569370">
        <ele>-3.485115</ele>
        <time>2021-02-13T12:42:54.000Z</time>
      </trkpt>
      <trkpt lat="54.497933" lon="9.569370">
        <ele>-3.476698</ele>
        <time>2021-02-13T12:42:56.000Z</time>
      </trkpt>
      <trkpt lat="54.497902" lon="9.569369">
        <ele>-3.466662</ele>
        <time>2021-02-13T12:42:58.000Z</time>
      </trkpt>
      <trkpt lat="54.497879" lon="9.569370">
        <ele>-3.459214</ele>
        <time>2021-02-13T12:43:00.000Z</time>
      </trkpt>
      <trkpt lat="54.497839" lon="9.569358">
        <ele>-3.446071</ele>
        <time>2021-02-13T12:43:04.000Z</time>
      </trkpt>
      <trkpt lat="54.497804" lon="9.569350">
        <ele>-3.434642</ele>
        <time>2021-02-13T12:43:07.000Z</time>
      </trkpt>
      <trkpt lat="54.497742" lon="9.569329">
        <ele>-3.414188</ele>
        <time>2021-02-13T12:43:11.000Z</time>
      </trkpt>
      <trkpt lat="54.497731" lon="9.569323">
        <ele>-3.410453</ele>
        <time>2021-02-13T12:43:12.000Z</time>
      </trkpt>
      <trkpt lat="54.497710" lon="9.569310">
        <ele>-3.403229</ele>
        <time>2021-02-13T12:43:14.000Z</time>
      </trkpt>
      <trkpt lat="54.497701" lon="9.569298">
        <ele>-3.399545</ele>
        <time>2021-02-13T12:43:15.000Z</time>
      </trkpt>
      <trkpt lat="54.497689" lon="9.569293">
        <ele>-3.395548</ele>
        <time>2021-02-13T12:43:16.000Z</time>
      </trkpt>
      <trkpt lat="54.497659" lon="9.569277">
        <ele>-3.385382</ele>
        <time>2021-02-13T12:43:18.000Z</time>
      </trkpt>
      <trkpt lat="54.497638" lon="9.569237">
        <ele>-3.375246</ele>
        <time>2021-02-13T12:43:21.000Z</time>
      </trkpt>
      <trkpt lat="54.497627" lon="9.569225">
        <ele>-3.371030</ele>
        <time>2021-02-13T12:43:22.000Z</time>
      </trkpt>
      <trkpt lat="54.497585" lon="9.569184">
        <ele>-3.355402</ele>
        <time>2021-02-13T12:43:25.000Z</time>
      </trkpt>
      <trkpt lat="54.497529" lon="9.569157">
        <ele>-3.336578</ele>
        <time>2021-02-13T12:43:29.000Z</time>
      </trkpt>
      <trkpt lat="54.497511" lon="9.569149">
        <ele>-3.330560</ele>
        <time>2021-02-13T12:43:30.000Z</time>
      </trkpt>
      <trkpt lat="54.497462" lon="9.569114">
        <ele>-3.313388</ele>
        <time>2021-02-13T12:43:34.000Z</time>
      </trkpt>
      <trkpt lat="54.497444" lon="9.569105">
        <ele>-3.307321</ele>
        <time>2021-02-13T12:43:35.000Z</time>
      </trkpt>
      <trkpt lat="54.497401" lon="9.569072">
        <ele>-3.292082</ele>
        <time>2021-02-13T12:43:38.000Z</time>
      </trkpt>
      <trkpt lat="54.497363" lon="9.569019">
        <ele>-3.276252</ele>
        <time>2021-02-13T12:43:41.000Z</time>
      </trkpt>
      <trkpt lat="54.497303" lon="9.568923">
        <ele>-3.249740</ele>
        <time>2021-02-13T12:43:46.000Z</time>
      </trkpt>
      <trkpt lat="54.497278" lon="9.568885">
        <ele>-3.238946</ele>
        <time>2021-02-13T12:43:48.000Z</time>
      </trkpt>
      <trkpt lat="54.497240" lon="9.568823">
        <ele>-3.222000</ele>
        <time>2021-02-13T12:43:52.000Z</time>
      </trkpt>
      <trkpt lat="54.497229" lon="9.568803">
        <ele>-3.216822</ele>
        <time>2021-02-13T12:43:53.000Z</time>
      </trkpt>
      <trkpt lat="54.497220" lon="9.568780">
        <ele>-3.211608</ele>
        <time>2021-02-13T12:43:54.000Z</time>
      </trkpt>
      <trkpt lat="54.497167" lon="9.568680">
        <ele>-3.186158</ele>
        <time>2021-02-13T12:43:59.000Z</time>
      </trkpt>
      <trkpt lat="54.497152" lon="9.568665">
        <ele>-3.180543</ele>
        <time>2021-02-13T12:44:00.000Z</time>
      </trkpt>
      <trkpt lat="54.497104" lon="9.568606">
        <ele>-3.161453</ele>
        <time>2021-02-13T12:44:04.000Z</time>
      </trkpt>
      <trkpt lat="54.497085" lon="9.568553">
        <ele>-3.149744</ele>
        <time>2021-02-13T12:44:07.000Z</time>
      </trkpt>
      <trkpt lat="54.497055" lon="9.568412">
        <ele>-3.121515</ele>
        <time>2021-02-13T12:44:13.000Z</time>
      </trkpt>
      <trkpt lat="54.497015" lon="9.568374">
        <ele>-3.106727</ele>
        <time>2021-02-13T12:44:16.000Z</time>
      </trkpt>
      <trkpt lat="54.496988" lon="9.568342">
        <ele>-3.096117</ele>
        <time>2021-02-13T12:44:18.000Z</time>
      </trkpt>
      <trkpt lat="54.496972" lon="9.568325">
        <ele>-3.090031</ele>
        <time>2021-02-13T12:44:19.000Z</time>
      </trkpt>
      <trkpt lat="54.496896" lon="9.568232">
        <ele>-3.059850</ele>
        <time>2021-02-13T12:44:25.000Z</time>
      </trkpt>
      <trkpt lat="54.496843" lon="9.568146">
        <ele>-3.036276</ele>
        <time>2021-02-13T12:44:30.000Z</time>
      </trkpt>
      <trkpt lat="54.496812" lon="9.568138">
        <ele>-3.026130</ele>
        <time>2021-02-13T12:44:32.000Z</time>
      </trkpt>
      <trkpt lat="54.496729" lon="9.568105">
        <ele>-3.033906</ele>
        <time>2021-02-13T12:44:38.000Z</time>
      </trkpt>
      <trkpt lat="54.496662" lon="9.568068">
        <ele>-3.268465</ele>
        <time>2021-02-13T12:44:42.000Z</time>
      </trkpt>
      <trkpt lat="54.496637" lon="9.568042">
        <ele>-3.365827</ele>
        <time>2021-02-13T12:44:44.000Z</time>
      </trkpt>
      <trkpt lat="54.496616" lon="9.567991">
        <ele>-3.486863</ele>
        <time>2021-02-13T12:44:47.000Z</time>
      </trkpt>
      <trkpt lat="54.496608" lon="9.567974">
        <ele>-3.529224</ele>
        <time>2021-02-13T12:44:48.000Z</time>
      </trkpt>
      <trkpt lat="54.496600" lon="9.567929">
        <ele>-3.620335</ele>
        <time>2021-02-13T12:44:50.000Z</time>
      </trkpt>
      <trkpt lat="54.496595" lon="9.567910">
        <ele>-3.660719</ele>
        <time>2021-02-13T12:44:51.000Z</time>
      </trkpt>
      <trkpt lat="54.496566" lon="9.567865">
        <ele>-3.790858</ele>
        <time>2021-02-13T12:44:54.000Z</time>
      </trkpt>
      <trkpt lat="54.496540" lon="9.567808">
        <ele>-3.931180</ele>
        <time>2021-02-13T12:44:57.000Z</time>
      </trkpt>
      <trkpt lat="54.496525" lon="9.567793">
        <ele>-3.989005</ele>
        <time>2021-02-13T12:44:58.000Z</time>
      </trkpt>
      <trkpt lat="54.496495" lon="9.567765">
        <ele>-4.102760</ele>
        <time>2021-02-13T12:45:00.000Z</time>
      </trkpt>
      <trkpt lat="54.496435" lon="9.567751">
        <ele>-4.304606</ele>
        <time>2021-02-13T12:45:03.000Z</time>
      </trkpt>
      <trkpt lat="54.496387" lon="9.567730">
        <ele>-4.469704</ele>
        <time>2021-02-13T12:45:06.000Z</time>
      </trkpt>
      <trkpt lat="54.496360" lon="9.567727">
        <ele>-4.559900</ele>
        <time>2021-02-13T12:45:08.000Z</time>
      </trkpt>
      <trkpt lat="54.496351" lon="9.567714">
        <ele>-4.599061</ele>
        <time>2021-02-13T12:45:09.000Z</time>
      </trkpt>
      <trkpt lat="54.496324" lon="9.567701">
        <ele>-4.692521</ele>
        <time>2021-02-13T12:45:11.000Z</time>
      </trkpt>
      <trkpt lat="54.496264" lon="9.567690">
        <ele>-4.893670</ele>
        <time>2021-02-13T12:45:13.000Z</time>
      </trkpt>
      <trkpt lat="54.496184" lon="9.567643">
        <ele>-5.175456</ele>
        <time>2021-02-13T12:45:17.000Z</time>
      </trkpt>
      <trkpt lat="54.496107" lon="9.567589">
        <ele>-5.452618</ele>
        <time>2021-02-13T12:45:21.000Z</time>
      </trkpt>
      <trkpt lat="54.496109" lon="9.567551">
        <ele>-5.526489</ele>
        <time>2021-02-13T12:45:22.000Z</time>
      </trkpt>
      <trkpt lat="54.496059" lon="9.567459">
        <ele>-5.770431</ele>
        <time>2021-02-13T12:45:27.000Z</time>
      </trkpt>
      <trkpt lat="54.496053" lon="9.567438">
        <ele>-5.815742</ele>
        <time>2021-02-13T12:45:29.000Z</time>
      </trkpt>
      <trkpt lat="54.496043" lon="9.567398">
        <ele>-5.900053</ele>
        <time>2021-02-13T12:45:31.000Z</time>
      </trkpt>
      <trkpt lat="54.496007" lon="9.567298">
        <ele>-6.127836</ele>
        <time>2021-02-13T12:45:36.000Z</time>
      </trkpt>
      <trkpt lat="54.495982" lon="9.567256">
        <ele>-6.244273</ele>
        <time>2021-02-13T12:45:39.000Z</time>
      </trkpt>
      <trkpt lat="54.495902" lon="9.567174">
        <ele>-6.554639</ele>
        <time>2021-02-13T12:45:46.000Z</time>
      </trkpt>
      <trkpt lat="54.495892" lon="9.567167">
        <ele>-6.590624</ele>
        <time>2021-02-13T12:45:47.000Z</time>
      </trkpt>
      <trkpt lat="54.495850" lon="9.567139">
        <ele>-6.740765</ele>
        <time>2021-02-13T12:45:52.000Z</time>
      </trkpt>
      <trkpt lat="54.495832" lon="9.567123">
        <ele>-6.808294</ele>
        <time>2021-02-13T12:45:54.000Z</time>
      </trkpt>
      <trkpt lat="54.495755" lon="9.567065">
        <ele>-7.088470</ele>
        <time>2021-02-13T12:45:59.000Z</time>
      </trkpt>
      <trkpt lat="54.495660" lon="9.567019">
        <ele>-7.417448</ele>
        <time>2021-02-13T12:46:07.000Z</time>
      </trkpt>
      <trkpt lat="54.495629" lon="9.566979">
        <ele>-7.546588</ele>
        <time>2021-02-13T12:46:10.000Z</time>
      </trkpt>
      <trkpt lat="54.495583" lon="9.566929">
        <ele>-7.727933</ele>
        <time>2021-02-13T12:46:14.000Z</time>
      </trkpt>
      <trkpt lat="54.495553" lon="9.566886">
        <ele>-7.858057</ele>
        <time>2021-02-13T12:46:17.000Z</time>
      </trkpt>
      <trkpt lat="54.495509" lon="9.566834">
        <ele>-8.035963</ele>
        <time>2021-02-13T12:46:21.000Z</time>
      </trkpt>
      <trkpt lat="54.495497" lon="9.566825">
        <ele>-8.079596</ele>
        <time>2021-02-13T12:46:22.000Z</time>
      </trkpt>
      <trkpt lat="54.495462" lon="9.566805">
        <ele>-8.202531</ele>
        <time>2021-02-13T12:46:25.000Z</time>
      </trkpt>
      <trkpt lat="54.495433" lon="9.566791">
        <ele>-8.302934</ele>
        <time>2021-02-13T12:46:28.000Z</time>
      </trkpt>
      <trkpt lat="54.495425" lon="9.566787">
        <ele>-8.330705</ele>
        <time>2021-02-13T12:46:29.000Z</time>
      </trkpt>
      <trkpt lat="54.495358" lon="9.566795">
        <ele>-8.554594</ele>
        <time>2021-02-13T12:46:33.000Z</time>
      </trkpt>
      <trkpt lat="54.495345" lon="9.566783">
        <ele>-8.603766</ele>
        <time>2021-02-13T12:46:34.000Z</time>
      </trkpt>
      <trkpt lat="54.495313" lon="9.566768">
        <ele>-8.714324</ele>
        <time>2021-02-13T12:46:36.000Z</time>
      </trkpt>
      <trkpt lat="54.495247" lon="9.566740">
        <ele>-8.940924</ele>
        <time>2021-02-13T12:46:40.000Z</time>
      </trkpt>
      <trkpt lat="54.495201" lon="9.566733">
        <ele>-8.800927</ele>
        <time>2021-02-13T12:46:43.000Z</time>
      </trkpt>
      <trkpt lat="54.495147" lon="9.566720">
        <ele>-8.432886</ele>
        <time>2021-02-13T12:46:47.000Z</time>
      </trkpt>
      <trkpt lat="54.495098" lon="9.566666">
        <ele>-8.040196</ele>
        <time>2021-02-13T12:46:51.000Z</time>
      </trkpt>
      <trkpt lat="54.495087" lon="9.566656">
        <ele>-7.956234</ele>
        <time>2021-02-13T12:46:52.000Z</time>
      </trkpt>
      <trkpt lat="54.495070" lon="9.566635">
        <ele>-7.815009</ele>
        <time>2021-02-13T12:46:54.000Z</time>
      </trkpt>
      <trkpt lat="54.495046" lon="9.566613">
        <ele>-7.631484</ele>
        <time>2021-02-13T12:46:56.000Z</time>
      </trkpt>
      <trkpt lat="54.495004" lon="9.566564">
        <ele>-7.289040</ele>
        <time>2021-02-13T12:47:01.000Z</time>
      </trkpt>
      <trkpt lat="54.494968" lon="9.566567">
        <ele>-7.045758</ele>
        <time>2021-02-13T12:47:05.000Z</time>
      </trkpt>
      <trkpt lat="54.494966" lon="9.566556">
        <ele>-7.000572</ele>
        <time>2021-02-13T12:47:07.000Z</time>
      </trkpt>
      <trkpt lat="54.494963" lon="9.566556">
        <ele>-6.980323</ele>
        <time>2021-02-13T12:47:09.000Z</time>
      </trkpt>
      <trkpt lat="54.494905" lon="9.566549">
        <ele>-6.587867</ele>
        <time>2021-02-13T12:47:15.000Z</time>
      </trkpt>
      <trkpt lat="54.494816" lon="9.566533">
        <ele>-5.983858</ele>
        <time>2021-02-13T12:47:22.000Z</time>
      </trkpt>
      <trkpt lat="54.494718" lon="9.566461">
        <ele>-5.264665</ele>
        <time>2021-02-13T12:47:30.000Z</time>
      </trkpt>
      <trkpt lat="54.494644" lon="9.566341">
        <ele>-4.578521</ele>
        <time>2021-02-13T12:47:37.000Z</time>
      </trkpt>
      <trkpt lat="54.494620" lon="9.566315">
        <ele>-4.387125</ele>
        <time>2021-02-13T12:47:39.000Z</time>
      </trkpt>
      <trkpt lat="54.494562" lon="9.566143">
        <ele>-3.607434</ele>
        <time>2021-02-13T12:47:48.000Z</time>
      </trkpt>
      <trkpt lat="54.494508" lon="9.566016">
        <ele>-2.990401</ele>
        <time>2021-02-13T12:47:55.000Z</time>
      </trkpt>
      <trkpt lat="54.494492" lon="9.565983">
        <ele>-2.821879</ele>
        <time>2021-02-13T12:47:57.000Z</time>
      </trkpt>
      <trkpt lat="54.494472" lon="9.565946">
        <ele>-2.623729</ele>
        <time>2021-02-13T12:48:00.000Z</time>
      </trkpt>
      <trkpt lat="54.494464" lon="9.565925">
        <ele>-2.525274</ele>
        <time>2021-02-13T12:48:02.000Z</time>
      </trkpt>
      <trkpt lat="54.494458" lon="9.565915">
        <ele>-2.468909</ele>
        <time>2021-02-13T12:48:04.000Z</time>
      </trkpt>
      <trkpt lat="54.494451" lon="9.565902">
        <ele>-2.399413</ele>
        <time>2021-02-13T12:48:10.000Z</time>
      </trkpt>
      <trkpt lat="54.494419" lon="9.565877">
        <ele>-2.162221</ele>
        <time>2021-02-13T12:48:16.000Z</time>
      </trkpt>
      <trkpt lat="54.494398" lon="9.565842">
        <ele>-1.964942</ele>
        <time>2021-02-13T12:48:19.000Z</time>
      </trkpt>
      <trkpt lat="54.494381" lon="9.565805">
        <ele>-1.779993</ele>
        <time>2021-02-13T12:48:22.000Z</time>
      </trkpt>
      <trkpt lat="54.494379" lon="9.565765">
        <ele>-1.622603</ele>
        <time>2021-02-13T12:48:24.000Z</time>
      </trkpt>
      <trkpt lat="54.494377" lon="9.565721">
        <ele>-1.449585</ele>
        <time>2021-02-13T12:48:26.000Z</time>
      </trkpt>
      <trkpt lat="54.494377" lon="9.565702">
        <ele>-1.375101</ele>
        <time>2021-02-13T12:48:27.000Z</time>
      </trkpt>
      <trkpt lat="54.494374" lon="9.565664">
        <ele>-1.224762</ele>
        <time>2021-02-13T12:48:29.000Z</time>
      </trkpt>
      <trkpt lat="54.494370" lon="9.565640">
        <ele>-1.126879</ele>
        <time>2021-02-13T12:48:30.000Z</time>
      </trkpt>
      <trkpt lat="54.494368" lon="9.565620">
        <ele>-1.047320</ele>
        <time>2021-02-13T12:48:31.000Z</time>
      </trkpt>
      <trkpt lat="54.494364" lon="9.565571">
        <ele>-0.853340</ele>
        <time>2021-02-13T12:48:33.000Z</time>
      </trkpt>
      <trkpt lat="54.494364" lon="9.565501">
        <ele>-0.578924</ele>
        <time>2021-02-13T12:48:36.000Z</time>
      </trkpt>
      <trkpt lat="54.494334" lon="9.565319">
        <ele>0.162739</ele>
        <time>2021-02-13T12:48:44.000Z</time>
      </trkpt>
      <trkpt lat="54.494303" lon="9.565176">
        <ele>0.761113</ele>
        <time>2021-02-13T12:48:50.000Z</time>
      </trkpt>
      <trkpt lat="54.494298" lon="9.565159">
        <ele>0.835816</ele>
        <time>2021-02-13T12:48:51.000Z</time>
      </trkpt>
      <trkpt lat="54.494288" lon="9.565118">
        <ele>1.010144</ele>
        <time>2021-02-13T12:48:53.000Z</time>
      </trkpt>
      <trkpt lat="54.494275" lon="9.565055">
        <ele>1.272245</ele>
        <time>2021-02-13T12:48:56.000Z</time>
      </trkpt>
      <trkpt lat="54.494258" lon="9.564988">
        <ele>1.558873</ele>
        <time>2021-02-13T12:48:59.000Z</time>
      </trkpt>
      <trkpt lat="54.494247" lon="9.564946">
        <ele>1.739490</ele>
        <time>2021-02-13T12:49:01.000Z</time>
      </trkpt>
      <trkpt lat="54.494237" lon="9.564901">
        <ele>1.928374</ele>
        <time>2021-02-13T12:49:03.000Z</time>
      </trkpt>
      <trkpt lat="54.494233" lon="9.564880">
        <ele>2.015014</ele>
        <time>2021-02-13T12:49:04.000Z</time>
      </trkpt>
      <trkpt lat="54.494220" lon="9.564836">
        <ele>2.208542</ele>
        <time>2021-02-13T12:49:06.000Z</time>
      </trkpt>
      <trkpt lat="54.494208" lon="9.564786">
        <ele>2.420631</ele>
        <time>2021-02-13T12:49:08.000Z</time>
      </trkpt>
      <trkpt lat="54.494202" lon="9.564763">
        <ele>2.519475</ele>
        <time>2021-02-13T12:49:09.000Z</time>
      </trkpt>
      <trkpt lat="54.494182" lon="9.564681">
        <ele>2.868132</ele>
        <time>2021-02-13T12:49:13.000Z</time>
      </trkpt>
      <trkpt lat="54.494170" lon="9.564589">
        <ele>3.173388</ele>
        <time>2021-02-13T12:49:18.000Z</time>
      </trkpt>
      <trkpt lat="54.494159" lon="9.564531">
        <ele>3.250067</ele>
        <time>2021-02-13T12:49:21.000Z</time>
      </trkpt>
      <trkpt lat="54.494149" lon="9.564503">
        <ele>3.291377</ele>
        <time>2021-02-13T12:49:23.000Z</time>
      </trkpt>
      <trkpt lat="54.494151" lon="9.564492">
        <ele>3.305863</ele>
        <time>2021-02-13T12:49:25.000Z</time>
      </trkpt>
      <trkpt lat="54.494152" lon="9.564485">
        <ele>3.314922</ele>
        <time>2021-02-13T12:49:27.000Z</time>
      </trkpt>
      <trkpt lat="54.494161" lon="9.564475">
        <ele>3.338100</ele>
        <time>2021-02-13T12:49:33.000Z</time>
      </trkpt>
      <trkpt lat="54.494163" lon="9.564474">
        <ele>3.342607</ele>
        <time>2021-02-13T12:49:38.000Z</time>
      </trkpt>
      <trkpt lat="54.494162" lon="9.564474">
        <ele>3.344770</ele>
        <time>2021-02-13T12:49:39.000Z</time>
      </trkpt>
      <trkpt lat="54.494160" lon="9.564495">
        <ele>3.371515</ele>
        <time>2021-02-13T12:49:48.000Z</time>
      </trkpt>
      <trkpt lat="54.494163" lon="9.564494">
        <ele>3.378127</ele>
        <time>2021-02-13T12:49:55.000Z</time>
      </trkpt>
      <trkpt lat="54.494161" lon="9.564496">
        <ele>3.383132</ele>
        <time>2021-02-13T12:49:57.000Z</time>
      </trkpt>
      <trkpt lat="54.494148" lon="9.564466">
        <ele>3.430172</ele>
        <time>2021-02-13T12:50:05.000Z</time>
      </trkpt>
      <trkpt lat="54.494151" lon="9.564419">
        <ele>3.489595</ele>
        <time>2021-02-13T12:50:09.000Z</time>
      </trkpt>
      <trkpt lat="54.494153" lon="9.564383">
        <ele>3.535044</ele>
        <time>2021-02-13T12:50:12.000Z</time>
      </trkpt>
      <trkpt lat="54.494125" lon="9.564257">
        <ele>3.704590</ele>
        <time>2021-02-13T12:50:18.000Z</time>
      </trkpt>
      <trkpt lat="54.494115" lon="9.564212">
        <ele>3.765143</ele>
        <time>2021-02-13T12:50:20.000Z</time>
      </trkpt>
      <trkpt lat="54.494085" lon="9.564126">
        <ele>3.891220</ele>
        <time>2021-02-13T12:50:25.000Z</time>
      </trkpt>
      <trkpt lat="54.494083" lon="9.564077">
        <ele>3.952953</ele>
        <time>2021-02-13T12:50:27.000Z</time>
      </trkpt>
      <trkpt lat="54.494042" lon="9.563907">
        <ele>4.184289</ele>
        <time>2021-02-13T12:50:34.000Z</time>
      </trkpt>
      <trkpt lat="54.494023" lon="9.563862">
        <ele>4.254209</ele>
        <time>2021-02-13T12:50:36.000Z</time>
      </trkpt>
      <trkpt lat="54.493985" lon="9.563751">
        <ele>4.416139</ele>
        <time>2021-02-13T12:50:42.000Z</time>
      </trkpt>
      <trkpt lat="54.493959" lon="9.563620">
        <ele>4.590122</ele>
        <time>2021-02-13T12:50:49.000Z</time>
      </trkpt>
      <trkpt lat="54.493947" lon="9.563562">
        <ele>4.667501</ele>
        <time>2021-02-13T12:50:53.000Z</time>
      </trkpt>
      <trkpt lat="54.493940" lon="9.563551">
        <ele>4.688008</ele>
        <time>2021-02-13T12:50:54.000Z</time>
      </trkpt>
      <trkpt lat="54.493904" lon="9.563494">
        <ele>4.793838</ele>
        <time>2021-02-13T12:50:58.000Z</time>
      </trkpt>
      <trkpt lat="54.493884" lon="9.563465">
        <ele>4.850417</ele>
        <time>2021-02-13T12:51:00.000Z</time>
      </trkpt>
      <trkpt lat="54.493850" lon="9.563408">
        <ele>4.953103</ele>
        <time>2021-02-13T12:51:05.000Z</time>
      </trkpt>
      <trkpt lat="54.493844" lon="9.563403">
        <ele>4.967527</ele>
        <time>2021-02-13T12:51:06.000Z</time>
      </trkpt>
      <trkpt lat="54.493832" lon="9.563385">
        <ele>5.001966</ele>
        <time>2021-02-13T12:51:08.000Z</time>
      </trkpt>
      <trkpt lat="54.493826" lon="9.563374">
        <ele>5.020931</ele>
        <time>2021-02-13T12:51:09.000Z</time>
      </trkpt>
      <trkpt lat="54.493807" lon="9.563344">
        <ele>5.076715</ele>
        <time>2021-02-13T12:51:12.000Z</time>
      </trkpt>
      <trkpt lat="54.493801" lon="9.563335">
        <ele>5.093934</ele>
        <time>2021-02-13T12:51:13.000Z</time>
      </trkpt>
      <trkpt lat="54.493798" lon="9.563322">
        <ele>5.111514</ele>
        <time>2021-02-13T12:51:14.000Z</time>
      </trkpt>
      <trkpt lat="54.493797" lon="9.563303">
        <ele>5.135491</ele>
        <time>2021-02-13T12:51:15.000Z</time>
      </trkpt>
      <trkpt lat="54.493798" lon="9.563240">
        <ele>5.214696</ele>
        <time>2021-02-13T12:51:18.000Z</time>
      </trkpt>
      <trkpt lat="54.493806" lon="9.563096">
        <ele>5.396496</ele>
        <time>2021-02-13T12:51:25.000Z</time>
      </trkpt>
      <trkpt lat="54.493803" lon="9.563078">
        <ele>5.420031</ele>
        <time>2021-02-13T12:51:26.000Z</time>
      </trkpt>
      <trkpt lat="54.493769" lon="9.562986">
        <ele>5.557075</ele>
        <time>2021-02-13T12:51:31.000Z</time>
      </trkpt>
      <trkpt lat="54.493760" lon="9.562967">
        <ele>5.587889</ele>
        <time>2021-02-13T12:51:32.000Z</time>
      </trkpt>
      <trkpt lat="54.493742" lon="9.562924">
        <ele>5.654503</ele>
        <time>2021-02-13T12:51:34.000Z</time>
      </trkpt>
      <trkpt lat="54.493709" lon="9.562844">
        <ele>5.777822</ele>
        <time>2021-02-13T12:51:38.000Z</time>
      </trkpt>
      <trkpt lat="54.493695" lon="9.562794">
        <ele>5.847582</ele>
        <time>2021-02-13T12:51:40.000Z</time>
      </trkpt>
      <trkpt lat="54.493681" lon="9.562753">
        <ele>5.907355</ele>
        <time>2021-02-13T12:51:42.000Z</time>
      </trkpt>
      <trkpt lat="54.493634" lon="9.562641">
        <ele>6.081010</ele>
        <time>2021-02-13T12:51:47.000Z</time>
      </trkpt>
      <trkpt lat="54.493576" lon="9.562495">
        <ele>6.303314</ele>
        <time>2021-02-13T12:51:53.000Z</time>
      </trkpt>
      <trkpt lat="54.493563" lon="9.562478">
        <ele>6.338638</ele>
        <time>2021-02-13T12:51:54.000Z</time>
      </trkpt>
      <trkpt lat="54.493490" lon="9.562403">
        <ele>6.522586</ele>
        <time>2021-02-13T12:52:00.000Z</time>
      </trkpt>
      <trkpt lat="54.493453" lon="9.562367">
        <ele>6.614549</ele>
        <time>2021-02-13T12:52:03.000Z</time>
      </trkpt>
      <trkpt lat="54.493433" lon="9.562344">
        <ele>6.666592</ele>
        <time>2021-02-13T12:52:05.000Z</time>
      </trkpt>
      <trkpt lat="54.493425" lon="9.562335">
        <ele>6.687271</ele>
        <time>2021-02-13T12:52:06.000Z</time>
      </trkpt>
      <trkpt lat="54.493415" lon="9.562319">
        <ele>6.716810</ele>
        <time>2021-02-13T12:52:08.000Z</time>
      </trkpt>
      <trkpt lat="54.493401" lon="9.562305">
        <ele>6.751844</ele>
        <time>2021-02-13T12:52:10.000Z</time>
      </trkpt>
      <trkpt lat="54.493368" lon="9.562257">
        <ele>6.845322</ele>
        <time>2021-02-13T12:52:13.000Z</time>
      </trkpt>
      <trkpt lat="54.493350" lon="9.562211">
        <ele>6.915031</ele>
        <time>2021-02-13T12:52:15.000Z</time>
      </trkpt>
      <trkpt lat="54.493340" lon="9.562150">
        <ele>6.994689</ele>
        <time>2021-02-13T12:52:18.000Z</time>
      </trkpt>
      <trkpt lat="54.493341" lon="9.562128">
        <ele>7.022423</ele>
        <time>2021-02-13T12:52:19.000Z</time>
      </trkpt>
      <trkpt lat="54.493336" lon="9.562090">
        <ele>7.063326</ele>
        <time>2021-02-13T12:52:21.000Z</time>
      </trkpt>
      <trkpt lat="54.493323" lon="9.562047">
        <ele>7.110731</ele>
        <time>2021-02-13T12:52:25.000Z</time>
      </trkpt>
      <trkpt lat="54.493318" lon="9.562039">
        <ele>7.122223</ele>
        <time>2021-02-13T12:52:26.000Z</time>
      </trkpt>
      <trkpt lat="54.493319" lon="9.562031">
        <ele>7.130225</ele>
        <time>2021-02-13T12:52:28.000Z</time>
      </trkpt>
      <trkpt lat="54.493308" lon="9.562027">
        <ele>7.149154</ele>
        <time>2021-02-13T12:52:30.000Z</time>
      </trkpt>
      <trkpt lat="54.493298" lon="9.562018">
        <ele>7.168153</ele>
        <time>2021-02-13T12:52:32.000Z</time>
      </trkpt>
      <trkpt lat="54.493294" lon="9.562017">
        <ele>7.174958</ele>
        <time>2021-02-13T12:52:33.000Z</time>
      </trkpt>
      <trkpt lat="54.493253" lon="9.562012">
        <ele>7.244162</ele>
        <time>2021-02-13T12:52:38.000Z</time>
      </trkpt>
      <trkpt lat="54.493241" lon="9.562010">
        <ele>7.264461</ele>
        <time>2021-02-13T12:52:39.000Z</time>
      </trkpt>
      <trkpt lat="54.493232" lon="9.562005">
        <ele>7.280383</ele>
        <time>2021-02-13T12:52:40.000Z</time>
      </trkpt>
      <trkpt lat="54.493223" lon="9.562004">
        <ele>7.295568</ele>
        <time>2021-02-13T12:52:41.000Z</time>
      </trkpt>
      <trkpt lat="54.493184" lon="9.561995">
        <ele>7.361819</ele>
        <time>2021-02-13T12:52:44.000Z</time>
      </trkpt>
      <trkpt lat="54.493155" lon="9.561988">
        <ele>7.411124</ele>
        <time>2021-02-13T12:52:46.000Z</time>
      </trkpt>
      <trkpt lat="54.493140" lon="9.561981">
        <ele>7.437290</ele>
        <time>2021-02-13T12:52:47.000Z</time>
      </trkpt>
      <trkpt lat="54.493122" lon="9.561974">
        <ele>7.468360</ele>
        <time>2021-02-13T12:52:48.000Z</time>
      </trkpt>
      <trkpt lat="54.493076" lon="9.561937">
        <ele>7.553845</ele>
        <time>2021-02-13T12:52:51.000Z</time>
      </trkpt>
      <trkpt lat="54.493052" lon="9.561928">
        <ele>7.595201</ele>
        <time>2021-02-13T12:52:53.000Z</time>
      </trkpt>
      <trkpt lat="54.493047" lon="9.561922">
        <ele>7.605462</ele>
        <time>2021-02-13T12:52:54.000Z</time>
      </trkpt>
      <trkpt lat="54.493000" lon="9.561885">
        <ele>7.692475</ele>
        <time>2021-02-13T12:52:58.000Z</time>
      </trkpt>
      <trkpt lat="54.492973" lon="9.561865">
        <ele>7.741963</ele>
        <time>2021-02-13T12:53:00.000Z</time>
      </trkpt>
      <trkpt lat="54.492949" lon="9.561854">
        <ele>7.783779</ele>
        <time>2021-02-13T12:53:02.000Z</time>
      </trkpt>
      <trkpt lat="54.492920" lon="9.561831">
        <ele>7.837537</ele>
        <time>2021-02-13T12:53:05.000Z</time>
      </trkpt>
      <trkpt lat="54.492900" lon="9.561818">
        <ele>7.873531</ele>
        <time>2021-02-13T12:53:07.000Z</time>
      </trkpt>
      <trkpt lat="54.492865" lon="9.561790">
        <ele>7.938510</ele>
        <time>2021-02-13T12:53:10.000Z</time>
      </trkpt>
      <trkpt lat="54.492849" lon="9.561782">
        <ele>7.966562</ele>
        <time>2021-02-13T12:53:12.000Z</time>
      </trkpt>
      <trkpt lat="54.492837" lon="9.561771">
        <ele>7.989452</ele>
        <time>2021-02-13T12:53:13.000Z</time>
      </trkpt>
      <trkpt lat="54.492791" lon="9.561742">
        <ele>8.071930</ele>
        <time>2021-02-13T12:53:17.000Z</time>
      </trkpt>
      <trkpt lat="54.492772" lon="9.561723">
        <ele>8.108924</ele>
        <time>2021-02-13T12:53:19.000Z</time>
      </trkpt>
      <trkpt lat="54.492763" lon="9.561708">
        <ele>8.130014</ele>
        <time>2021-02-13T12:53:20.000Z</time>
      </trkpt>
      <trkpt lat="54.492718" lon="9.561637">
        <ele>8.232782</ele>
        <time>2021-02-13T12:53:25.000Z</time>
      </trkpt>
      <trkpt lat="54.492705" lon="9.561611">
        <ele>8.266331</ele>
        <time>2021-02-13T12:53:27.000Z</time>
      </trkpt>
      <trkpt lat="54.492670" lon="9.561576">
        <ele>8.334478</ele>
        <time>2021-02-13T12:53:31.000Z</time>
      </trkpt>
      <trkpt lat="54.492639" lon="9.561558">
        <ele>8.389561</ele>
        <time>2021-02-13T12:53:34.000Z</time>
      </trkpt>
      <trkpt lat="54.492625" lon="9.561554">
        <ele>8.413455</ele>
        <time>2021-02-13T12:53:36.000Z</time>
      </trkpt>
      <trkpt lat="54.492620" lon="9.561543">
        <ele>8.427114</ele>
        <time>2021-02-13T12:53:40.000Z</time>
      </trkpt>
      <trkpt lat="54.492589" lon="9.561535">
        <ele>8.479892</ele>
        <time>2021-02-13T12:53:44.000Z</time>
      </trkpt>
      <trkpt lat="54.492566" lon="9.561525">
        <ele>8.519832</ele>
        <time>2021-02-13T12:53:46.000Z</time>
      </trkpt>
      <trkpt lat="54.492466" lon="9.561519">
        <ele>8.688303</ele>
        <time>2021-02-13T12:53:53.000Z</time>
      </trkpt>
      <trkpt lat="54.492400" lon="9.561435">
        <ele>8.826492</ele>
        <time>2021-02-13T12:53:59.000Z</time>
      </trkpt>
      <trkpt lat="54.492338" lon="9.561391">
        <ele>8.939401</ele>
        <time>2021-02-13T12:54:04.000Z</time>
      </trkpt>
      <trkpt lat="54.492328" lon="9.561375">
        <ele>8.962385</ele>
        <time>2021-02-13T12:54:06.000Z</time>
      </trkpt>
      <trkpt lat="54.492319" lon="9.561370">
        <ele>8.978308</ele>
        <time>2021-02-13T12:54:07.000Z</time>
      </trkpt>
      <trkpt lat="54.492250" lon="9.561301">
        <ele>9.112656</ele>
        <time>2021-02-13T12:54:12.000Z</time>
      </trkpt>
      <trkpt lat="54.492228" lon="9.561260">
        <ele>9.167242</ele>
        <time>2021-02-13T12:54:15.000Z</time>
      </trkpt>
      <trkpt lat="54.492208" lon="9.561241">
        <ele>9.205702</ele>
        <time>2021-02-13T12:54:17.000Z</time>
      </trkpt>
      <trkpt lat="54.492196" lon="9.561237">
        <ele>9.226281</ele>
        <time>2021-02-13T12:54:18.000Z</time>
      </trkpt>
      <trkpt lat="54.492131" lon="9.561209">
        <ele>9.339094</ele>
        <time>2021-02-13T12:54:22.000Z</time>
      </trkpt>
      <trkpt lat="54.492099" lon="9.561181">
        <ele>9.399531</ele>
        <time>2021-02-13T12:54:25.000Z</time>
      </trkpt>
      <trkpt lat="54.492036" lon="9.561130">
        <ele>9.516744</ele>
        <time>2021-02-13T12:54:30.000Z</time>
      </trkpt>
      <trkpt lat="54.492011" lon="9.561107">
        <ele>9.564468</ele>
        <time>2021-02-13T12:54:32.000Z</time>
      </trkpt>
      <trkpt lat="54.491882" lon="9.561007">
        <ele>9.802664</ele>
        <time>2021-02-13T12:54:40.000Z</time>
      </trkpt>
      <trkpt lat="54.491823" lon="9.560943">
        <ele>9.920074</ele>
        <time>2021-02-13T12:54:44.000Z</time>
      </trkpt>
      <trkpt lat="54.491808" lon="9.560933">
        <ele>9.947157</ele>
        <time>2021-02-13T12:54:45.000Z</time>
      </trkpt>
      <trkpt lat="54.491770" lon="9.560908">
        <ele>10.015649</ele>
        <time>2021-02-13T12:54:47.000Z</time>
      </trkpt>
      <trkpt lat="54.491715" lon="9.560867">
        <ele>9.979947</ele>
        <time>2021-02-13T12:54:52.000Z</time>
      </trkpt>
      <trkpt lat="54.491679" lon="9.560844">
        <ele>9.878431</ele>
        <time>2021-02-13T12:54:54.000Z</time>
      </trkpt>
      <trkpt lat="54.491625" lon="9.560794">
        <ele>9.716333</ele>
        <time>2021-02-13T12:54:58.000Z</time>
      </trkpt>
      <trkpt lat="54.491604" lon="9.560774">
        <ele>9.652886</ele>
        <time>2021-02-13T12:55:00.000Z</time>
      </trkpt>
      <trkpt lat="54.491603" lon="9.560759">
        <ele>9.629702</ele>
        <time>2021-02-13T12:55:01.000Z</time>
      </trkpt>
      <trkpt lat="54.491585" lon="9.560733">
        <ele>9.567585</ele>
        <time>2021-02-13T12:55:04.000Z</time>
      </trkpt>
      <trkpt lat="54.491574" lon="9.560720">
        <ele>9.532312</ele>
        <time>2021-02-13T12:55:05.000Z</time>
      </trkpt>
      <trkpt lat="54.491537" lon="9.560672">
        <ele>9.409833</ele>
        <time>2021-02-13T12:55:09.000Z</time>
      </trkpt>
      <trkpt lat="54.491518" lon="9.560653">
        <ele>9.351743</ele>
        <time>2021-02-13T12:55:11.000Z</time>
      </trkpt>
      <trkpt lat="54.491491" lon="9.560632">
        <ele>9.273417</ele>
        <time>2021-02-13T12:55:13.000Z</time>
      </trkpt>
      <trkpt lat="54.491450" lon="9.560601">
        <ele>9.155031</ele>
        <time>2021-02-13T12:55:17.000Z</time>
      </trkpt>
      <trkpt lat="54.491372" lon="9.560585">
        <ele>8.947361</ele>
        <time>2021-02-13T12:55:23.000Z</time>
      </trkpt>
      <trkpt lat="54.491359" lon="9.560588">
        <ele>8.912685</ele>
        <time>2021-02-13T12:55:24.000Z</time>
      </trkpt>
      <trkpt lat="54.491346" lon="9.560586">
        <ele>8.878179</ele>
        <time>2021-02-13T12:55:25.000Z</time>
      </trkpt>
      <trkpt lat="54.491281" lon="9.560567">
        <ele>8.703876</ele>
        <time>2021-02-13T12:55:30.000Z</time>
      </trkpt>
      <trkpt lat="54.491216" lon="9.560613">
        <ele>8.518082</ele>
        <time>2021-02-13T12:55:37.000Z</time>
      </trkpt>
      <trkpt lat="54.491198" lon="9.560628">
        <ele>8.465213</ele>
        <time>2021-02-13T12:55:39.000Z</time>
      </trkpt>
      <trkpt lat="54.491152" lon="9.560659">
        <ele>8.334617</ele>
        <time>2021-02-13T12:55:43.000Z</time>
      </trkpt>
      <trkpt lat="54.491075" lon="9.560697">
        <ele>8.122850</ele>
        <time>2021-02-13T12:55:50.000Z</time>
      </trkpt>
      <trkpt lat="54.491034" lon="9.560690">
        <ele>8.013925</ele>
        <time>2021-02-13T12:55:54.000Z</time>
      </trkpt>
      <trkpt lat="54.491007" lon="9.560698">
        <ele>7.941495</ele>
        <time>2021-02-13T12:55:57.000Z</time>
      </trkpt>
      <trkpt lat="54.490984" lon="9.560709">
        <ele>7.878386</ele>
        <time>2021-02-13T12:56:00.000Z</time>
      </trkpt>
      <trkpt lat="54.490956" lon="9.560722">
        <ele>7.801717</ele>
        <time>2021-02-13T12:56:04.000Z</time>
      </trkpt>
      <trkpt lat="54.490954" lon="9.560721">
        <ele>7.796211</ele>
        <time>2021-02-13T12:56:05.000Z</time>
      </trkpt>
      <trkpt lat="54.490936" lon="9.560749">
        <ele>7.732076</ele>
        <time>2021-02-13T12:56:11.000Z</time>
      </trkpt>
      <trkpt lat="54.490934" lon="9.560758">
        <ele>7.717279</ele>
        <time>2021-02-13T12:56:14.000Z</time>
      </trkpt>
      <trkpt lat="54.490935" lon="9.560765">
        <ele>7.706210</ele>
        <time>2021-02-13T12:56:16.000Z</time>
      </trkpt>
      <trkpt lat="54.490919" lon="9.560738">
        <ele>7.646979</ele>
        <time>2021-02-13T12:56:18.000Z</time>
      </trkpt>
      <trkpt lat="54.490884" lon="9.560729">
        <ele>7.553422</ele>
        <time>2021-02-13T12:56:23.000Z</time>
      </trkpt>
      <trkpt lat="54.490871" lon="9.560743">
        <ele>7.512884</ele>
        <time>2021-02-13T12:56:25.000Z</time>
      </trkpt>
      <trkpt lat="54.490839" lon="9.560788">
        <ele>7.403650</ele>
        <time>2021-02-13T12:56:28.000Z</time>
      </trkpt>
      <trkpt lat="54.490831" lon="9.560792">
        <ele>7.381626</ele>
        <time>2021-02-13T12:56:29.000Z</time>
      </trkpt>
      <trkpt lat="54.490817" lon="9.560793">
        <ele>7.344582</ele>
        <time>2021-02-13T12:56:31.000Z</time>
      </trkpt>
      <trkpt lat="54.490792" lon="9.560828">
        <ele>7.259394</ele>
        <time>2021-02-13T12:56:39.000Z</time>
      </trkpt>
      <trkpt lat="54.490765" lon="9.560856">
        <ele>7.176064</ele>
        <time>2021-02-13T12:56:45.000Z</time>
      </trkpt>
      <trkpt lat="54.490761" lon="9.560857">
        <ele>7.165378</ele>
        <time>2021-02-13T12:56:46.000Z</time>
      </trkpt>
      <trkpt lat="54.490747" lon="9.560882">
        <ele>7.112052</ele>
        <time>2021-02-13T12:56:50.000Z</time>
      </trkpt>
      <trkpt lat="54.490740" lon="9.560894">
        <ele>7.085936</ele>
        <time>2021-02-13T12:56:51.000Z</time>
      </trkpt>
      <trkpt lat="54.490732" lon="9.560893">
        <ele>7.064730</ele>
        <time>2021-02-13T12:56:57.000Z</time>
      </trkpt>
      <trkpt lat="54.490722" lon="9.560863">
        <ele>7.011616</ele>
        <time>2021-02-13T12:57:03.000Z</time>
      </trkpt>
      <trkpt lat="54.490735" lon="9.560804">
        <ele>6.914717</ele>
        <time>2021-02-13T12:57:09.000Z</time>
      </trkpt>
      <trkpt lat="54.490736" lon="9.560801">
        <ele>6.909406</ele>
        <time>2021-02-13T12:57:10.000Z</time>
      </trkpt>
      <trkpt lat="54.490738" lon="9.560789">
        <ele>6.890235</ele>
        <time>2021-02-13T12:57:12.000Z</time>
      </trkpt>
      <trkpt lat="54.490740" lon="9.560764">
        <ele>6.851483</ele>
        <time>2021-02-13T12:57:19.000Z</time>
      </trkpt>
      <trkpt lat="54.490704" lon="9.560839">
        <ele>6.702078</ele>
        <time>2021-02-13T12:57:28.000Z</time>
      </trkpt>
      <trkpt lat="54.490717" lon="9.560802">
        <ele>6.635675</ele>
        <time>2021-02-13T12:57:36.000Z</time>
      </trkpt>
      <trkpt lat="54.490731" lon="9.560769">
        <ele>6.572923</ele>
        <time>2021-02-13T12:57:43.000Z</time>
      </trkpt>
      <trkpt lat="54.490769" lon="9.560760">
        <ele>6.471515</ele>
        <time>2021-02-13T12:57:49.000Z</time>
      </trkpt>
      <trkpt lat="54.490758" lon="9.560764">
        <ele>6.441792</ele>
        <time>2021-02-13T12:57:58.000Z</time>
      </trkpt>
      <trkpt lat="54.490751" lon="9.560744">
        <ele>6.405936</ele>
        <time>2021-02-13T12:58:08.000Z</time>
      </trkpt>
      <trkpt lat="54.490746" lon="9.560732">
        <ele>6.383258</ele>
        <time>2021-02-13T12:58:11.000Z</time>
      </trkpt>
      <trkpt lat="54.490755" lon="9.560726">
        <ele>6.357743</ele>
        <time>2021-02-13T12:58:13.000Z</time>
      </trkpt>
      <trkpt lat="54.490755" lon="9.560724">
        <ele>6.354671</ele>
        <time>2021-02-13T12:58:16.000Z</time>
      </trkpt>
      <trkpt lat="54.490743" lon="9.560745">
        <ele>6.309435</ele>
        <time>2021-02-13T12:58:23.000Z</time>
      </trkpt>
      <trkpt lat="54.490734" lon="9.560757">
        <ele>6.279340</ele>
        <time>2021-02-13T12:58:26.000Z</time>
      </trkpt>
      <trkpt lat="54.490751" lon="9.560721">
        <ele>6.208095</ele>
        <time>2021-02-13T12:58:31.000Z</time>
      </trkpt>
      <trkpt lat="54.490766" lon="9.560702">
        <ele>6.158862</ele>
        <time>2021-02-13T12:58:38.000Z</time>
      </trkpt>
      <trkpt lat="54.490767" lon="9.560734">
        <ele>6.109653</ele>
        <time>2021-02-13T12:58:45.000Z</time>
      </trkpt>
      <trkpt lat="54.490765" lon="9.560761">
        <ele>6.067856</ele>
        <time>2021-02-13T12:58:52.000Z</time>
      </trkpt>
      <trkpt lat="54.490755" lon="9.560748">
        <ele>6.034729</ele>
        <time>2021-02-13T12:58:54.000Z</time>
      </trkpt>
      <trkpt lat="54.490746" lon="9.560737">
        <ele>6.005549</ele>
        <time>2021-02-13T12:58:56.000Z</time>
      </trkpt>
      <trkpt lat="54.490750" lon="9.560742">
        <ele>5.992481</ele>
        <time>2021-02-13T12:58:58.000Z</time>
      </trkpt>
      <trkpt lat="54.490753" lon="9.560756">
        <ele>5.969566</ele>
        <time>2021-02-13T12:59:00.000Z</time>
      </trkpt>
      <trkpt lat="54.490756" lon="9.560758">
        <ele>5.961061</ele>
        <time>2021-02-13T12:59:07.000Z</time>
      </trkpt>
      <trkpt lat="54.490754" lon="9.560754">
        <ele>5.952956</ele>
        <time>2021-02-13T12:59:08.000Z</time>
      </trkpt>
      <trkpt lat="54.490766" lon="9.560752">
        <ele>5.921083</ele>
        <time>2021-02-13T12:59:14.000Z</time>
      </trkpt>
      <trkpt lat="54.490782" lon="9.560672">
        <ele>5.791158</ele>
        <time>2021-02-13T12:59:16.000Z</time>
      </trkpt>
      <trkpt lat="54.490792" lon="9.560675">
        <ele>5.764322</ele>
        <time>2021-02-13T12:59:17.000Z</time>
      </trkpt>
      <trkpt lat="54.490797" lon="9.560659">
        <ele>5.736423</ele>
        <time>2021-02-13T12:59:25.000Z</time>
      </trkpt>
      <trkpt lat="54.490752" lon="9.560757">
        <ele>5.544591</ele>
        <time>2021-02-13T12:59:30.000Z</time>
      </trkpt>
      <trkpt lat="54.490746" lon="9.560774">
        <ele>5.514044</ele>
        <time>2021-02-13T12:59:36.000Z</time>
      </trkpt>
      <trkpt lat="54.490759" lon="9.560796">
        <ele>5.465852</ele>
        <time>2021-02-13T12:59:43.000Z</time>
      </trkpt>
      <trkpt lat="54.490764" lon="9.560796">
        <ele>5.452633</ele>
        <time>2021-02-13T12:59:47.000Z</time>
      </trkpt>
      <trkpt lat="54.490761" lon="9.560805">
        <ele>5.436699</ele>
        <time>2021-02-13T12:59:49.000Z</time>
      </trkpt>
      <trkpt lat="54.490787" lon="9.560775">
        <ele>5.353952</ele>
        <time>2021-02-13T12:59:59.000Z</time>
      </trkpt>
      <trkpt lat="54.490783" lon="9.560760">
        <ele>5.328607</ele>
        <time>2021-02-13T13:00:00.000Z</time>
      </trkpt>
      <trkpt lat="54.490776" lon="9.560758">
        <ele>5.309848</ele>
        <time>2021-02-13T13:00:03.000Z</time>
      </trkpt>
      <trkpt lat="54.490775" lon="9.560767">
        <ele>5.316937</ele>
        <time>2021-02-13T13:00:05.000Z</time>
      </trkpt>
      <trkpt lat="54.490759" lon="9.560805">
        <ele>5.367095</ele>
        <time>2021-02-13T13:00:07.000Z</time>
      </trkpt>
      <trkpt lat="54.490750" lon="9.560820">
        <ele>5.390143</ele>
        <time>2021-02-13T13:00:08.000Z</time>
      </trkpt>
      <trkpt lat="54.490753" lon="9.560807">
        <ele>5.405092</ele>
        <time>2021-02-13T13:00:09.000Z</time>
      </trkpt>
      <trkpt lat="54.490734" lon="9.560802">
        <ele>5.440457</ele>
        <time>2021-02-13T13:00:13.000Z</time>
      </trkpt>
      <trkpt lat="54.490725" lon="9.560796">
        <ele>5.458215</ele>
        <time>2021-02-13T13:00:14.000Z</time>
      </trkpt>
      <trkpt lat="54.490725" lon="9.560808">
        <ele>5.471039</ele>
        <time>2021-02-13T13:00:17.000Z</time>
      </trkpt>
      <trkpt lat="54.490724" lon="9.560817">
        <ele>5.480832</ele>
        <time>2021-02-13T13:00:19.000Z</time>
      </trkpt>
      <trkpt lat="54.490716" lon="9.560828">
        <ele>5.499670</ele>
        <time>2021-02-13T13:00:21.000Z</time>
      </trkpt>
      <trkpt lat="54.490703" lon="9.560836">
        <ele>5.525071</ele>
        <time>2021-02-13T13:00:23.000Z</time>
      </trkpt>
      <trkpt lat="54.490707" lon="9.560741">
        <ele>5.626863</ele>
        <time>2021-02-13T13:00:30.000Z</time>
      </trkpt>
      <trkpt lat="54.490705" lon="9.560694">
        <ele>5.677227</ele>
        <time>2021-02-13T13:00:38.000Z</time>
      </trkpt>
      <trkpt lat="54.490681" lon="9.560703">
        <ele>5.722421</ele>
        <time>2021-02-13T13:00:45.000Z</time>
      </trkpt>
      <trkpt lat="54.490674" lon="9.560738">
        <ele>5.761980</ele>
        <time>2021-02-13T13:00:51.000Z</time>
      </trkpt>
      <trkpt lat="54.490677" lon="9.560738">
        <ele>5.767500</ele>
        <time>2021-02-13T13:00:53.000Z</time>
      </trkpt>
      <trkpt lat="54.490666" lon="9.560772">
        <ele>5.809093</ele>
        <time>2021-02-13T13:00:58.000Z</time>
      </trkpt>
      <trkpt lat="54.490655" lon="9.560787">
        <ele>5.834911</ele>
        <time>2021-02-13T13:01:01.000Z</time>
      </trkpt>
      <trkpt lat="54.490650" lon="9.560793">
        <ele>5.846125</ele>
        <time>2021-02-13T13:01:02.000Z</time>
      </trkpt>
      <trkpt lat="54.490615" lon="9.560829">
        <ele>5.921140</ele>
        <time>2021-02-13T13:01:07.000Z</time>
      </trkpt>
      <trkpt lat="54.490611" lon="9.560830">
        <ele>5.928577</ele>
        <time>2021-02-13T13:01:08.000Z</time>
      </trkpt>
      <trkpt lat="54.490578" lon="9.560889">
        <ele>6.016112</ele>
        <time>2021-02-13T13:01:11.000Z</time>
      </trkpt>
      <trkpt lat="54.490557" lon="9.560889">
        <ele>6.054751</ele>
        <time>2021-02-13T13:01:13.000Z</time>
      </trkpt>
      <trkpt lat="54.490544" lon="9.560881">
        <ele>6.080152</ele>
        <time>2021-02-13T13:01:14.000Z</time>
      </trkpt>
      <trkpt lat="54.490534" lon="9.560866">
        <ele>6.104555</ele>
        <time>2021-02-13T13:01:15.000Z</time>
      </trkpt>
      <trkpt lat="54.490530" lon="9.560851">
        <ele>6.122194</ele>
        <time>2021-02-13T13:01:16.000Z</time>
      </trkpt>
      <trkpt lat="54.490538" lon="9.560815">
        <ele>6.163387</ele>
        <time>2021-02-13T13:01:18.000Z</time>
      </trkpt>
      <trkpt lat="54.490544" lon="9.560801">
        <ele>6.181981</ele>
        <time>2021-02-13T13:01:19.000Z</time>
      </trkpt>
      <trkpt lat="54.490547" lon="9.560764">
        <ele>6.221906</ele>
        <time>2021-02-13T13:01:24.000Z</time>
      </trkpt>
      <trkpt lat="54.490552" lon="9.560754">
        <ele>6.236008</ele>
        <time>2021-02-13T13:01:26.000Z</time>
      </trkpt>
      <trkpt lat="54.490566" lon="9.560726">
        <ele>6.275491</ele>
        <time>2021-02-13T13:01:28.000Z</time>
      </trkpt>
      <trkpt lat="54.490577" lon="9.560695">
        <ele>6.314314</ele>
        <time>2021-02-13T13:01:30.000Z</time>
      </trkpt>
      <trkpt lat="54.490595" lon="9.560668">
        <ele>6.358240</ele>
        <time>2021-02-13T13:01:31.000Z</time>
      </trkpt>
      <trkpt lat="54.490624" lon="9.560645">
        <ele>6.416987</ele>
        <time>2021-02-13T13:01:33.000Z</time>
      </trkpt>
      <trkpt lat="54.490645" lon="9.560623">
        <ele>6.462217</ele>
        <time>2021-02-13T13:01:34.000Z</time>
      </trkpt>
      <trkpt lat="54.490698" lon="9.560525">
        <ele>6.605320</ele>
        <time>2021-02-13T13:01:38.000Z</time>
      </trkpt>
      <trkpt lat="54.490694" lon="9.560495">
        <ele>6.638215</ele>
        <time>2021-02-13T13:01:41.000Z</time>
      </trkpt>
      <trkpt lat="54.490687" lon="9.560431">
        <ele>6.707813</ele>
        <time>2021-02-13T13:01:46.000Z</time>
      </trkpt>
      <trkpt lat="54.490682" lon="9.560421">
        <ele>6.721915</ele>
        <time>2021-02-13T13:01:47.000Z</time>
      </trkpt>
      <trkpt lat="54.490671" lon="9.560407">
        <ele>6.747084</ele>
        <time>2021-02-13T13:01:49.000Z</time>
      </trkpt>
      <trkpt lat="54.490640" lon="9.560384">
        <ele>6.809193</ele>
        <time>2021-02-13T13:01:52.000Z</time>
      </trkpt>
      <trkpt lat="54.490627" lon="9.560380">
        <ele>6.833491</ele>
        <time>2021-02-13T13:01:53.000Z</time>
      </trkpt>
      <trkpt lat="54.490605" lon="9.560342">
        <ele>6.890830</ele>
        <time>2021-02-13T13:01:56.000Z</time>
      </trkpt>
      <trkpt lat="54.490572" lon="9.560300">
        <ele>6.966337</ele>
        <time>2021-02-13T13:02:00.000Z</time>
      </trkpt>
      <trkpt lat="54.490566" lon="9.560289">
        <ele>6.982464</ele>
        <time>2021-02-13T13:02:01.000Z</time>
      </trkpt>
      <trkpt lat="54.490569" lon="9.560287">
        <ele>6.988383</ele>
        <time>2021-02-13T13:02:02.000Z</time>
      </trkpt>
      <trkpt lat="54.490571" lon="9.560230">
        <ele>7.049410</ele>
        <time>2021-02-13T13:02:07.000Z</time>
      </trkpt>
      <trkpt lat="54.490566" lon="9.560195">
        <ele>7.087929</ele>
        <time>2021-02-13T13:02:10.000Z</time>
      </trkpt>
      <trkpt lat="54.490565" lon="9.560183">
        <ele>7.100885</ele>
        <time>2021-02-13T13:02:11.000Z</time>
      </trkpt>
      <trkpt lat="54.490562" lon="9.560102">
        <ele>7.187626</ele>
        <time>2021-02-13T13:02:14.000Z</time>
      </trkpt>
      <trkpt lat="54.490557" lon="9.559995">
        <ele>7.302346</ele>
        <time>2021-02-13T13:02:20.000Z</time>
      </trkpt>
      <trkpt lat="54.490555" lon="9.559981">
        <ele>7.317754</ele>
        <time>2021-02-13T13:02:21.000Z</time>
      </trkpt>
      <trkpt lat="54.490551" lon="9.559960">
        <ele>7.341373</ele>
        <time>2021-02-13T13:02:22.000Z</time>
      </trkpt>
      <trkpt lat="54.490552" lon="9.559917">
        <ele>7.387364</ele>
        <time>2021-02-13T13:02:24.000Z</time>
      </trkpt>
      <trkpt lat="54.490547" lon="9.559811">
        <ele>7.501019</ele>
        <time>2021-02-13T13:02:28.000Z</time>
      </trkpt>
      <trkpt lat="54.490537" lon="9.559767">
        <ele>7.551513</ele>
        <time>2021-02-13T13:02:29.000Z</time>
      </trkpt>
      <trkpt lat="54.490533" lon="9.559730">
        <ele>7.591734</ele>
        <time>2021-02-13T13:02:31.000Z</time>
      </trkpt>
      <trkpt lat="54.490534" lon="9.559718">
        <ele>7.604690</ele>
        <time>2021-02-13T13:02:32.000Z</time>
      </trkpt>
      <trkpt lat="54.490501" lon="9.559641">
        <ele>7.706956</ele>
        <time>2021-02-13T13:02:33.000Z</time>
      </trkpt>
      <trkpt lat="54.490497" lon="9.559630">
        <ele>7.720826</ele>
        <time>2021-02-13T13:02:35.000Z</time>
      </trkpt>
      <trkpt lat="54.490497" lon="9.559608">
        <ele>7.744337</ele>
        <time>2021-02-13T13:02:37.000Z</time>
      </trkpt>
      <trkpt lat="54.490501" lon="9.559594">
        <ele>7.761011</ele>
        <time>2021-02-13T13:02:39.000Z</time>
      </trkpt>
      <trkpt lat="54.490501" lon="9.559590">
        <ele>7.765286</ele>
        <time>2021-02-13T13:02:41.000Z</time>
      </trkpt>
      <trkpt lat="54.490503" lon="9.559589">
        <ele>7.769118</ele>
        <time>2021-02-13T13:02:43.000Z</time>
      </trkpt>
      <trkpt lat="54.490510" lon="9.559618">
        <ele>7.802680</ele>
        <time>2021-02-13T13:02:45.000Z</time>
      </trkpt>
      <trkpt lat="54.490512" lon="9.559569">
        <ele>7.855176</ele>
        <time>2021-02-13T13:02:48.000Z</time>
      </trkpt>
      <trkpt lat="54.490504" lon="9.559442">
        <ele>7.991697</ele>
        <time>2021-02-13T13:02:54.000Z</time>
      </trkpt>
      <trkpt lat="54.490479" lon="9.559268">
        <ele>8.183256</ele>
        <time>2021-02-13T13:03:01.000Z</time>
      </trkpt>
      <trkpt lat="54.490464" lon="9.559153">
        <ele>8.309218</ele>
        <time>2021-02-13T13:03:06.000Z</time>
      </trkpt>
      <trkpt lat="54.490465" lon="9.559139">
        <ele>8.324292</ele>
        <time>2021-02-13T13:03:07.000Z</time>
      </trkpt>
      <trkpt lat="54.490468" lon="9.559104">
        <ele>8.362102</ele>
        <time>2021-02-13T13:03:09.000Z</time>
      </trkpt>
      <trkpt lat="54.490458" lon="9.559026">
        <ele>8.447467</ele>
        <time>2021-02-13T13:03:14.000Z</time>
      </trkpt>
      <trkpt lat="54.490452" lon="9.558984">
        <ele>8.493691</ele>
        <time>2021-02-13T13:03:16.000Z</time>
      </trkpt>
      <trkpt lat="54.490447" lon="9.558967">
        <ele>8.514055</ele>
        <time>2021-02-13T13:03:17.000Z</time>
      </trkpt>
      <trkpt lat="54.490440" lon="9.558944">
        <ele>8.541805</ele>
        <time>2021-02-13T13:03:18.000Z</time>
      </trkpt>
      <trkpt lat="54.490437" lon="9.558930">
        <ele>8.557753</ele>
        <time>2021-02-13T13:03:19.000Z</time>
      </trkpt>
      <trkpt lat="54.490428" lon="9.558881">
        <ele>8.612675</ele>
        <time>2021-02-13T13:03:22.000Z</time>
      </trkpt>
      <trkpt lat="54.490422" lon="9.558845">
        <ele>8.642033</ele>
        <time>2021-02-13T13:03:24.000Z</time>
      </trkpt>
      <trkpt lat="54.490417" lon="9.558673">
        <ele>8.770081</ele>
        <time>2021-02-13T13:03:30.000Z</time>
      </trkpt>
      <trkpt lat="54.490419" lon="9.558591">
        <ele>8.831105</ele>
        <time>2021-02-13T13:03:33.000Z</time>
      </trkpt>
      <trkpt lat="54.490419" lon="9.558524">
        <ele>8.880922</ele>
        <time>2021-02-13T13:03:36.000Z</time>
      </trkpt>
      <trkpt lat="54.490417" lon="9.558509">
        <ele>8.892365</ele>
        <time>2021-02-13T13:03:37.000Z</time>
      </trkpt>
      <trkpt lat="54.490421" lon="9.558451">
        <ele>8.935793</ele>
        <time>2021-02-13T13:03:40.000Z</time>
      </trkpt>
      <trkpt lat="54.490420" lon="9.558415">
        <ele>8.962591</ele>
        <time>2021-02-13T13:03:41.000Z</time>
      </trkpt>
      <trkpt lat="54.490419" lon="9.558383">
        <ele>8.986419</ele>
        <time>2021-02-13T13:03:42.000Z</time>
      </trkpt>
      <trkpt lat="54.490396" lon="9.558165">
        <ele>9.151162</ele>
        <time>2021-02-13T13:03:51.000Z</time>
      </trkpt>
      <trkpt lat="54.490383" lon="9.558017">
        <ele>9.262457</ele>
        <time>2021-02-13T13:03:58.000Z</time>
      </trkpt>
      <trkpt lat="54.490364" lon="9.557941">
        <ele>9.323977</ele>
        <time>2021-02-13T13:04:02.000Z</time>
      </trkpt>
      <trkpt lat="54.490358" lon="9.557905">
        <ele>9.351825</ele>
        <time>2021-02-13T13:04:04.000Z</time>
      </trkpt>
      <trkpt lat="54.490359" lon="9.557887">
        <ele>9.365270</ele>
        <time>2021-02-13T13:04:05.000Z</time>
      </trkpt>
      <trkpt lat="54.490358" lon="9.557818">
        <ele>9.416590</ele>
        <time>2021-02-13T13:04:09.000Z</time>
      </trkpt>
      <trkpt lat="54.490353" lon="9.557780">
        <ele>9.445560</ele>
        <time>2021-02-13T13:04:12.000Z</time>
      </trkpt>
      <trkpt lat="54.490368" lon="9.557727">
        <ele>9.489397</ele>
        <time>2021-02-13T13:04:16.000Z</time>
      </trkpt>
      <trkpt lat="54.490372" lon="9.557717">
        <ele>9.498425</ele>
        <time>2021-02-13T13:04:17.000Z</time>
      </trkpt>
      <trkpt lat="54.490371" lon="9.557698">
        <ele>9.512610</ele>
        <time>2021-02-13T13:04:18.000Z</time>
      </trkpt>
      <trkpt lat="54.490375" lon="9.557628">
        <ele>9.564908</ele>
        <time>2021-02-13T13:04:22.000Z</time>
      </trkpt>
      <trkpt lat="54.490377" lon="9.557610">
        <ele>9.578535</ele>
        <time>2021-02-13T13:04:23.000Z</time>
      </trkpt>
      <trkpt lat="54.490380" lon="9.557596">
        <ele>9.589630</ele>
        <time>2021-02-13T13:04:24.000Z</time>
      </trkpt>
      <trkpt lat="54.490388" lon="9.557564">
        <ele>9.615534</ele>
        <time>2021-02-13T13:04:26.000Z</time>
      </trkpt>
      <trkpt lat="54.490393" lon="9.557520">
        <ele>9.648869</ele>
        <time>2021-02-13T13:04:28.000Z</time>
      </trkpt>
      <trkpt lat="54.490401" lon="9.557480">
        <ele>9.680325</ele>
        <time>2021-02-13T13:04:30.000Z</time>
      </trkpt>
      <trkpt lat="54.490405" lon="9.557462">
        <ele>9.694654</ele>
        <time>2021-02-13T13:04:31.000Z</time>
      </trkpt>
      <trkpt lat="54.490408" lon="9.557446">
        <ele>9.707155</ele>
        <time>2021-02-13T13:04:32.000Z</time>
      </trkpt>
      <trkpt lat="54.490410" lon="9.557330">
        <ele>9.793444</ele>
        <time>2021-02-13T13:04:38.000Z</time>
      </trkpt>
      <trkpt lat="54.490409" lon="9.557297">
        <ele>9.818014</ele>
        <time>2021-02-13T13:04:40.000Z</time>
      </trkpt>
      <trkpt lat="54.490409" lon="9.557280">
        <ele>9.830654</ele>
        <time>2021-02-13T13:04:41.000Z</time>
      </trkpt>
      <trkpt lat="54.490411" lon="9.557266">
        <ele>9.841374</ele>
        <time>2021-02-13T13:04:42.000Z</time>
      </trkpt>
      <trkpt lat="54.490414" lon="9.557237">
        <ele>9.863276</ele>
        <time>2021-02-13T13:04:44.000Z</time>
      </trkpt>
      <trkpt lat="54.490411" lon="9.557162">
        <ele>9.919173</ele>
        <time>2021-02-13T13:04:48.000Z</time>
      </trkpt>
      <trkpt lat="54.490415" lon="9.557090">
        <ele>9.972952</ele>
        <time>2021-02-13T13:04:51.000Z</time>
      </trkpt>
      <trkpt lat="54.490416" lon="9.557046">
        <ele>10.005692</ele>
        <time>2021-02-13T13:04:53.000Z</time>
      </trkpt>
      <trkpt lat="54.490417" lon="9.557029">
        <ele>10.018397</ele>
        <time>2021-02-13T13:04:54.000Z</time>
      </trkpt>
      <trkpt lat="54.490415" lon="9.557013">
        <ele>10.030566</ele>
        <time>2021-02-13T13:04:55.000Z</time>
      </trkpt>
      <trkpt lat="54.490418" lon="9.556994">
        <ele>10.045206</ele>
        <time>2021-02-13T13:04:56.000Z</time>
      </trkpt>
      <trkpt lat="54.490423" lon="9.556936">
        <ele>10.088803</ele>
        <time>2021-02-13T13:04:59.000Z</time>
      </trkpt>
      <trkpt lat="54.490426" lon="9.556904">
        <ele>10.112905</ele>
        <time>2021-02-13T13:05:00.000Z</time>
      </trkpt>
      <trkpt lat="54.490435" lon="9.556840">
        <ele>10.161866</ele>
        <time>2021-02-13T13:05:03.000Z</time>
      </trkpt>
      <trkpt lat="54.490439" lon="9.556793">
        <ele>10.197185</ele>
        <time>2021-02-13T13:05:06.000Z</time>
      </trkpt>
      <trkpt lat="54.490446" lon="9.556761">
        <ele>10.222610</ele>
        <time>2021-02-13T13:05:08.000Z</time>
      </trkpt>
      <trkpt lat="54.490450" lon="9.556726">
        <ele>10.249132</ele>
        <time>2021-02-13T13:05:10.000Z</time>
      </trkpt>
      <trkpt lat="54.490450" lon="9.556678">
        <ele>10.284822</ele>
        <time>2021-02-13T13:05:12.000Z</time>
      </trkpt>
      <trkpt lat="54.490451" lon="9.556582">
        <ele>10.356213</ele>
        <time>2021-02-13T13:05:16.000Z</time>
      </trkpt>
      <trkpt lat="54.490451" lon="9.556558">
        <ele>10.374058</ele>
        <time>2021-02-13T13:05:17.000Z</time>
      </trkpt>
      <trkpt lat="54.490450" lon="9.556403">
        <ele>10.489313</ele>
        <time>2021-02-13T13:05:23.000Z</time>
      </trkpt>
      <trkpt lat="54.490455" lon="9.556363">
        <ele>10.519735</ele>
        <time>2021-02-13T13:05:25.000Z</time>
      </trkpt>
      <trkpt lat="54.490460" lon="9.556318">
        <ele>10.553801</ele>
        <time>2021-02-13T13:05:27.000Z</time>
      </trkpt>
      <trkpt lat="54.490478" lon="9.556251">
        <ele>10.608689</ele>
        <time>2021-02-13T13:05:31.000Z</time>
      </trkpt>
      <trkpt lat="54.490481" lon="9.556233">
        <ele>10.622612</ele>
        <time>2021-02-13T13:05:32.000Z</time>
      </trkpt>
      <trkpt lat="54.490484" lon="9.556126">
        <ele>10.702263</ele>
        <time>2021-02-13T13:05:37.000Z</time>
      </trkpt>
      <trkpt lat="54.490486" lon="9.556105">
        <ele>10.718086</ele>
        <time>2021-02-13T13:05:38.000Z</time>
      </trkpt>
      <trkpt lat="54.490489" lon="9.556073">
        <ele>10.742187</ele>
        <time>2021-02-13T13:05:40.000Z</time>
      </trkpt>
      <trkpt lat="54.490478" lon="9.556004">
        <ele>10.795388</ele>
        <time>2021-02-13T13:05:44.000Z</time>
      </trkpt>
      <trkpt lat="54.490466" lon="9.555992">
        <ele>10.813153</ele>
        <time>2021-02-13T13:05:46.000Z</time>
      </trkpt>
      <trkpt lat="54.490442" lon="9.555969">
        <ele>10.848314</ele>
        <time>2021-02-13T13:05:48.000Z</time>
      </trkpt>
      <trkpt lat="54.490435" lon="9.555954">
        <ele>10.862621</ele>
        <time>2021-02-13T13:05:49.000Z</time>
      </trkpt>
      <trkpt lat="54.490429" lon="9.555942">
        <ele>10.874394</ele>
        <time>2021-02-13T13:05:50.000Z</time>
      </trkpt>
      <trkpt lat="54.490408" lon="9.555916">
        <ele>10.907506</ele>
        <time>2021-02-13T13:05:52.000Z</time>
      </trkpt>
      <trkpt lat="54.490382" lon="9.555878">
        <ele>10.883478</ele>
        <time>2021-02-13T13:05:56.000Z</time>
      </trkpt>
      <trkpt lat="54.490378" lon="9.555864">
        <ele>10.869805</ele>
        <time>2021-02-13T13:05:57.000Z</time>
      </trkpt>
      <trkpt lat="54.490375" lon="9.555855">
        <ele>10.860711</ele>
        <time>2021-02-13T13:05:58.000Z</time>
      </trkpt>
      <trkpt lat="54.490370" lon="9.555847">
        <ele>10.850413</ele>
        <time>2021-02-13T13:05:59.000Z</time>
      </trkpt>
      <trkpt lat="54.490360" lon="9.555820">
        <ele>10.822351</ele>
        <time>2021-02-13T13:06:00.000Z</time>
      </trkpt>
      <trkpt lat="54.490346" lon="9.555790">
        <ele>10.788626</ele>
        <time>2021-02-13T13:06:01.000Z</time>
      </trkpt>
      <trkpt lat="54.490316" lon="9.555770">
        <ele>10.740089</ele>
        <time>2021-02-13T13:06:04.000Z</time>
      </trkpt>
      <trkpt lat="54.490308" lon="9.555767">
        <ele>10.727736</ele>
        <time>2021-02-13T13:06:05.000Z</time>
      </trkpt>
      <trkpt lat="54.490293" lon="9.555763">
        <ele>10.704835</ele>
        <time>2021-02-13T13:06:07.000Z</time>
      </trkpt>
      <trkpt lat="54.490278" lon="9.555756">
        <ele>10.681387</ele>
        <time>2021-02-13T13:06:09.000Z</time>
      </trkpt>
      <trkpt lat="54.490267" lon="9.555727">
        <ele>10.651034</ele>
        <time>2021-02-13T13:06:11.000Z</time>
      </trkpt>
      <trkpt lat="54.490268" lon="9.555719">
        <ele>10.643863</ele>
        <time>2021-02-13T13:06:12.000Z</time>
      </trkpt>
      <trkpt lat="54.490268" lon="9.555709">
        <ele>10.635100</ele>
        <time>2021-02-13T13:06:13.000Z</time>
      </trkpt>
      <trkpt lat="54.490273" lon="9.555689">
        <ele>10.616018</ele>
        <time>2021-02-13T13:06:17.000Z</time>
      </trkpt>
      <trkpt lat="54.490289" lon="9.555683">
        <ele>10.591312</ele>
        <time>2021-02-13T13:06:19.000Z</time>
      </trkpt>
      <trkpt lat="54.490296" lon="9.555678">
        <ele>10.579878</ele>
        <time>2021-02-13T13:06:20.000Z</time>
      </trkpt>
      <trkpt lat="54.490319" lon="9.555617">
        <ele>10.516146</ele>
        <time>2021-02-13T13:06:21.000Z</time>
      </trkpt>
      <trkpt lat="54.490301" lon="9.555617">
        <ele>10.488989</ele>
        <time>2021-02-13T13:06:24.000Z</time>
      </trkpt>
      <trkpt lat="54.490291" lon="9.555617">
        <ele>10.473901</ele>
        <time>2021-02-13T13:06:25.000Z</time>
      </trkpt>
      <trkpt lat="54.490212" lon="9.555569">
        <ele>10.347505</ele>
        <time>2021-02-13T13:06:31.000Z</time>
      </trkpt>
      <trkpt lat="54.490141" lon="9.555570">
        <ele>10.240381</ele>
        <time>2021-02-13T13:06:37.000Z</time>
      </trkpt>
      <trkpt lat="54.490142" lon="9.555583">
        <ele>10.228889</ele>
        <time>2021-02-13T13:06:39.000Z</time>
      </trkpt>
      <trkpt lat="54.490125" lon="9.555576">
        <ele>10.202517</ele>
        <time>2021-02-13T13:06:42.000Z</time>
      </trkpt>
      <trkpt lat="54.490116" lon="9.555574">
        <ele>10.188825</ele>
        <time>2021-02-13T13:06:43.000Z</time>
      </trkpt>
      <trkpt lat="54.490049" lon="9.555544">
        <ele>10.084377</ele>
        <time>2021-02-13T13:06:49.000Z</time>
      </trkpt>
      <trkpt lat="54.490036" lon="9.555538">
        <ele>10.064070</ele>
        <time>2021-02-13T13:06:50.000Z</time>
      </trkpt>
      <trkpt lat="54.489972" lon="9.555556">
        <ele>9.966231</ele>
        <time>2021-02-13T13:06:57.000Z</time>
      </trkpt>
      <trkpt lat="54.489950" lon="9.555520">
        <ele>9.920437</ele>
        <time>2021-02-13T13:07:04.000Z</time>
      </trkpt>
      <trkpt lat="54.489925" lon="9.555495">
        <ele>9.876817</ele>
        <time>2021-02-13T13:07:06.000Z</time>
      </trkpt>
      <trkpt lat="54.489920" lon="9.555460">
        <ele>9.845231</ele>
        <time>2021-02-13T13:07:08.000Z</time>
      </trkpt>
      <trkpt lat="54.489922" lon="9.555431">
        <ele>9.819638</ele>
        <time>2021-02-13T13:07:10.000Z</time>
      </trkpt>
      <trkpt lat="54.489930" lon="9.555370">
        <ele>9.764835</ele>
        <time>2021-02-13T13:07:13.000Z</time>
      </trkpt>
      <trkpt lat="54.489959" lon="9.555306">
        <ele>9.693701</ele>
        <time>2021-02-13T13:07:15.000Z</time>
      </trkpt>
      <trkpt lat="54.490007" lon="9.555224">
        <ele>9.591679</ele>
        <time>2021-02-13T13:07:17.000Z</time>
      </trkpt>
      <trkpt lat="54.490121" lon="9.554816">
        <ele>9.194911</ele>
        <time>2021-02-13T13:07:26.000Z</time>
      </trkpt>
      <trkpt lat="54.490147" lon="9.554783">
        <ele>9.146176</ele>
        <time>2021-02-13T13:07:28.000Z</time>
      </trkpt>
      <trkpt lat="54.490118" lon="9.554751">
        <ele>9.094207</ele>
        <time>2021-02-13T13:07:30.000Z</time>
      </trkpt>
      <trkpt lat="54.490054" lon="9.554793">
        <ele>8.990870</ele>
        <time>2021-02-13T13:07:34.000Z</time>
      </trkpt>
      <trkpt lat="54.489945" lon="9.554659">
        <ele>8.788794</ele>
        <time>2021-02-13T13:07:40.000Z</time>
      </trkpt>
      <trkpt lat="54.489918" lon="9.554614">
        <ele>8.732096</ele>
        <time>2021-02-13T13:07:42.000Z</time>
      </trkpt>
      <trkpt lat="54.489854" lon="9.554538">
        <ele>8.614795</ele>
        <time>2021-02-13T13:07:46.000Z</time>
      </trkpt>
      <trkpt lat="54.489840" lon="9.554520">
        <ele>8.588432</ele>
        <time>2021-02-13T13:07:47.000Z</time>
      </trkpt>
      <trkpt lat="54.489837" lon="9.554493">
        <ele>8.564342</ele>
        <time>2021-02-13T13:07:48.000Z</time>
      </trkpt>
      <trkpt lat="54.489874" lon="9.554435">
        <ele>8.488845</ele>
        <time>2021-02-13T13:07:50.000Z</time>
      </trkpt>
      <trkpt lat="54.489896" lon="9.554414">
        <ele>8.450892</ele>
        <time>2021-02-13T13:07:51.000Z</time>
      </trkpt>
      <trkpt lat="54.489988" lon="9.554325">
        <ele>8.291675</ele>
        <time>2021-02-13T13:07:56.000Z</time>
      </trkpt>
      <trkpt lat="54.490015" lon="9.554267">
        <ele>8.226537</ele>
        <time>2021-02-13T13:07:58.000Z</time>
      </trkpt>
      <trkpt lat="54.490098" lon="9.554220">
        <ele>8.350677</ele>
        <time>2021-02-13T13:08:03.000Z</time>
      </trkpt>
      <trkpt lat="54.490129" lon="9.554203">
        <ele>8.414086</ele>
        <time>2021-02-13T13:08:05.000Z</time>
      </trkpt>
      <trkpt lat="54.490143" lon="9.554193">
        <ele>8.443627</ele>
        <time>2021-02-13T13:08:06.000Z</time>
      </trkpt>
      <trkpt lat="54.490200" lon="9.554185">
        <ele>8.555086</ele>
        <time>2021-02-13T13:08:10.000Z</time>
      </trkpt>
      <trkpt lat="54.490226" lon="9.554191">
        <ele>8.606213</ele>
        <time>2021-02-13T13:08:12.000Z</time>
      </trkpt>
      <trkpt lat="54.490309" lon="9.554216">
        <ele>8.770435</ele>
        <time>2021-02-13T13:08:18.000Z</time>
      </trkpt>
      <trkpt lat="54.490349" lon="9.554217">
        <ele>8.848402</ele>
        <time>2021-02-13T13:08:20.000Z</time>
      </trkpt>
      <trkpt lat="54.490433" lon="9.554194">
        <ele>9.014173</ele>
        <time>2021-02-13T13:08:26.000Z</time>
      </trkpt>
      <trkpt lat="54.490491" lon="9.554092">
        <ele>9.175762</ele>
        <time>2021-02-13T13:08:33.000Z</time>
      </trkpt>
      <trkpt lat="54.490491" lon="9.554009">
        <ele>9.269721</ele>
        <time>2021-02-13T13:08:36.000Z</time>
      </trkpt>
      <trkpt lat="54.490461" lon="9.553907">
        <ele>9.399148</ele>
        <time>2021-02-13T13:08:39.000Z</time>
      </trkpt>
      <trkpt lat="54.490447" lon="9.553734">
        <ele>9.596882</ele>
        <time>2021-02-13T13:08:46.000Z</time>
      </trkpt>
      <trkpt lat="54.490440" lon="9.553635">
        <ele>9.709781</ele>
        <time>2021-02-13T13:08:50.000Z</time>
      </trkpt>
      <trkpt lat="54.490434" lon="9.553584">
        <ele>9.768688</ele>
        <time>2021-02-13T13:08:52.000Z</time>
      </trkpt>
      <trkpt lat="54.490433" lon="9.553401">
        <ele>9.975860</ele>
        <time>2021-02-13T13:09:00.000Z</time>
      </trkpt>
      <trkpt lat="54.490413" lon="9.553267">
        <ele>10.132481</ele>
        <time>2021-02-13T13:09:05.000Z</time>
      </trkpt>
      <trkpt lat="54.490397" lon="9.553184">
        <ele>10.231480</ele>
        <time>2021-02-13T13:09:08.000Z</time>
      </trkpt>
      <trkpt lat="54.490390" lon="9.553113">
        <ele>10.313004</ele>
        <time>2021-02-13T13:09:11.000Z</time>
      </trkpt>
      <trkpt lat="54.490388" lon="9.553056">
        <ele>10.377648</ele>
        <time>2021-02-13T13:09:13.000Z</time>
      </trkpt>
      <trkpt lat="54.490386" lon="9.552977">
        <ele>10.467164</ele>
        <time>2021-02-13T13:09:16.000Z</time>
      </trkpt>
      <trkpt lat="54.490382" lon="9.552929">
        <ele>10.522058</ele>
        <time>2021-02-13T13:09:18.000Z</time>
      </trkpt>
      <trkpt lat="54.490366" lon="9.552789">
        <ele>10.683583</ele>
        <time>2021-02-13T13:09:24.000Z</time>
      </trkpt>
      <trkpt lat="54.490358" lon="9.552667">
        <ele>10.822569</ele>
        <time>2021-02-13T13:09:30.000Z</time>
      </trkpt>
      <trkpt lat="54.490359" lon="9.552625">
        <ele>10.870155</ele>
        <time>2021-02-13T13:09:32.000Z</time>
      </trkpt>
      <trkpt lat="54.490351" lon="9.552529">
        <ele>10.979943</ele>
        <time>2021-02-13T13:09:36.000Z</time>
      </trkpt>
      <trkpt lat="54.490342" lon="9.552408">
        <ele>11.118039</ele>
        <time>2021-02-13T13:09:41.000Z</time>
      </trkpt>
      <trkpt lat="54.490340" lon="9.552379">
        <ele>11.151098</ele>
        <time>2021-02-13T13:09:42.000Z</time>
      </trkpt>
      <trkpt lat="54.490339" lon="9.552273">
        <ele>11.271111</ele>
        <time>2021-02-13T13:09:46.000Z</time>
      </trkpt>
      <trkpt lat="54.490346" lon="9.552212">
        <ele>11.341500</ele>
        <time>2021-02-13T13:09:48.000Z</time>
      </trkpt>
      <trkpt lat="54.490365" lon="9.552009">
        <ele>11.574268</ele>
        <time>2021-02-13T13:09:55.000Z</time>
      </trkpt>
      <trkpt lat="54.490362" lon="9.551945">
        <ele>11.646955</ele>
        <time>2021-02-13T13:09:57.000Z</time>
      </trkpt>
      <trkpt lat="54.490363" lon="9.551927">
        <ele>11.667424</ele>
        <time>2021-02-13T13:09:58.000Z</time>
      </trkpt>
      <trkpt lat="54.490364" lon="9.551912">
        <ele>11.684516</ele>
        <time>2021-02-13T13:10:00.000Z</time>
      </trkpt>
      <trkpt lat="54.490372" lon="9.551909">
        <ele>11.700474</ele>
        <time>2021-02-13T13:10:01.000Z</time>
      </trkpt>
      <trkpt lat="54.490373" lon="9.551891">
        <ele>11.718731</ele>
        <time>2021-02-13T13:10:06.000Z</time>
      </trkpt>
      <trkpt lat="54.490372" lon="9.551888">
        <ele>11.721688</ele>
        <time>2021-02-13T13:10:08.000Z</time>
      </trkpt>
      <trkpt lat="54.490372" lon="9.551796">
        <ele>11.800342</ele>
        <time>2021-02-13T13:10:12.000Z</time>
      </trkpt>
      <trkpt lat="54.490360" lon="9.551699">
        <ele>11.885130</ele>
        <time>2021-02-13T13:10:16.000Z</time>
      </trkpt>
      <trkpt lat="54.490364" lon="9.551598">
        <ele>11.971679</ele>
        <time>2021-02-13T13:10:19.000Z</time>
      </trkpt>
      <trkpt lat="54.490379" lon="9.551470">
        <ele>12.083315</ele>
        <time>2021-02-13T13:10:25.000Z</time>
      </trkpt>
      <trkpt lat="54.490373" lon="9.551462">
        <ele>12.094485</ele>
        <time>2021-02-13T13:10:26.000Z</time>
      </trkpt>
      <trkpt lat="54.490376" lon="9.551466">
        <ele>12.100070</ele>
        <time>2021-02-13T13:10:29.000Z</time>
      </trkpt>
      <trkpt lat="54.490380" lon="9.551471">
        <ele>12.107346</ele>
        <time>2021-02-13T13:10:31.000Z</time>
      </trkpt>
      <trkpt lat="54.490408" lon="9.551389">
        <ele>12.188667</ele>
        <time>2021-02-13T13:10:36.000Z</time>
      </trkpt>
      <trkpt lat="54.490414" lon="9.551361">
        <ele>12.214182</ele>
        <time>2021-02-13T13:10:37.000Z</time>
      </trkpt>
      <trkpt lat="54.490443" lon="9.551254">
        <ele>12.315129</ele>
        <time>2021-02-13T13:10:40.000Z</time>
      </trkpt>
      <trkpt lat="54.490443" lon="9.551207">
        <ele>12.355310</ele>
        <time>2021-02-13T13:10:43.000Z</time>
      </trkpt>
      <trkpt lat="54.490444" lon="9.551182">
        <ele>12.376734</ele>
        <time>2021-02-13T13:10:44.000Z</time>
      </trkpt>
      <trkpt lat="54.490435" lon="9.551052">
        <ele>12.488662</ele>
        <time>2021-02-13T13:10:49.000Z</time>
      </trkpt>
      <trkpt lat="54.490433" lon="9.550959">
        <ele>12.568225</ele>
        <time>2021-02-13T13:10:53.000Z</time>
      </trkpt>
      <trkpt lat="54.490429" lon="9.550899">
        <ele>12.619857</ele>
        <time>2021-02-13T13:10:55.000Z</time>
      </trkpt>
      <trkpt lat="54.490450" lon="9.550823">
        <ele>12.691810</ele>
        <time>2021-02-13T13:10:57.000Z</time>
      </trkpt>
      <trkpt lat="54.490463" lon="9.550745">
        <ele>12.761185</ele>
        <time>2021-02-13T13:11:00.000Z</time>
      </trkpt>
      <trkpt lat="54.490469" lon="9.550711">
        <ele>12.791565</ele>
        <time>2021-02-13T13:11:02.000Z</time>
      </trkpt>
      <trkpt lat="54.490469" lon="9.550681">
        <ele>12.817213</ele>
        <time>2021-02-13T13:11:04.000Z</time>
      </trkpt>
      <trkpt lat="54.490467" lon="9.550663">
        <ele>12.832881</ele>
        <time>2021-02-13T13:11:06.000Z</time>
      </trkpt>
      <trkpt lat="54.490466" lon="9.550583">
        <ele>12.901291</ele>
        <time>2021-02-13T13:11:09.000Z</time>
      </trkpt>
      <trkpt lat="54.490460" lon="9.550453">
        <ele>13.012782</ele>
        <time>2021-02-13T13:11:12.000Z</time>
      </trkpt>
      <trkpt lat="54.490459" lon="9.550426">
        <ele>13.035912</ele>
        <time>2021-02-13T13:11:14.000Z</time>
      </trkpt>
      <trkpt lat="54.490449" lon="9.550267">
        <ele>13.172641</ele>
        <time>2021-02-13T13:11:18.000Z</time>
      </trkpt>
      <trkpt lat="54.490430" lon="9.550156">
        <ele>13.271573</ele>
        <time>2021-02-13T13:11:23.000Z</time>
      </trkpt>
      <trkpt lat="54.490420" lon="9.550098">
        <ele>13.323297</ele>
        <time>2021-02-13T13:11:25.000Z</time>
      </trkpt>
      <trkpt lat="54.490394" lon="9.549962">
        <ele>13.445704</ele>
        <time>2021-02-13T13:11:30.000Z</time>
      </trkpt>
      <trkpt lat="54.490373" lon="9.549816">
        <ele>13.574294</ele>
        <time>2021-02-13T13:11:37.000Z</time>
      </trkpt>
      <trkpt lat="54.490351" lon="9.549639">
        <ele>13.729043</ele>
        <time>2021-02-13T13:11:44.000Z</time>
      </trkpt>
      <trkpt lat="54.490345" lon="9.549590">
        <ele>13.771856</ele>
        <time>2021-02-13T13:11:46.000Z</time>
      </trkpt>
      <trkpt lat="54.490304" lon="9.549432">
        <ele>13.919802</ele>
        <time>2021-02-13T13:11:52.000Z</time>
      </trkpt>
      <trkpt lat="54.490248" lon="9.549247">
        <ele>14.098155</ele>
        <time>2021-02-13T13:11:59.000Z</time>
      </trkpt>
      <trkpt lat="54.490228" lon="9.549199">
        <ele>14.148658</ele>
        <time>2021-02-13T13:12:01.000Z</time>
      </trkpt>
      <trkpt lat="54.490206" lon="9.549097">
        <ele>14.241680</ele>
        <time>2021-02-13T13:12:06.000Z</time>
      </trkpt>
      <trkpt lat="54.490212" lon="9.549048">
        <ele>14.284492</ele>
        <time>2021-02-13T13:12:08.000Z</time>
      </trkpt>
      <trkpt lat="54.490205" lon="9.548927">
        <ele>14.414752</ele>
        <time>2021-02-13T13:12:12.000Z</time>
      </trkpt>
      <trkpt lat="54.490259" lon="9.548778">
        <ele>14.700407</ele>
        <time>2021-02-13T13:12:18.000Z</time>
      </trkpt>
      <trkpt lat="54.490300" lon="9.548705">
        <ele>14.865572</ele>
        <time>2021-02-13T13:12:22.000Z</time>
      </trkpt>
      <trkpt lat="54.490324" lon="9.548680">
        <ele>14.944122</ele>
        <time>2021-02-13T13:12:24.000Z</time>
      </trkpt>
      <trkpt lat="54.490341" lon="9.548672">
        <ele>14.993473</ele>
        <time>2021-02-13T13:12:25.000Z</time>
      </trkpt>
      <trkpt lat="54.490412" lon="9.548651">
        <ele>15.195204</ele>
        <time>2021-02-13T13:12:30.000Z</time>
      </trkpt>
      <trkpt lat="54.490420" lon="9.548643">
        <ele>15.221111</ele>
        <time>2021-02-13T13:12:31.000Z</time>
      </trkpt>
      <trkpt lat="54.490444" lon="9.548609">
        <ele>15.308145</ele>
        <time>2021-02-13T13:12:34.000Z</time>
      </trkpt>
      <trkpt lat="54.490455" lon="9.548572">
        <ele>15.375750</ele>
        <time>2021-02-13T13:12:36.000Z</time>
      </trkpt>
      <trkpt lat="54.490459" lon="9.548518">
        <ele>15.464292</ele>
        <time>2021-02-13T13:12:38.000Z</time>
      </trkpt>
      <trkpt lat="54.490453" lon="9.548445">
        <ele>15.584209</ele>
        <time>2021-02-13T13:12:41.000Z</time>
      </trkpt>
      <trkpt lat="54.490455" lon="9.548368">
        <ele>15.709575</ele>
        <time>2021-02-13T13:12:44.000Z</time>
      </trkpt>
      <trkpt lat="54.490462" lon="9.548282">
        <ele>15.850820</ele>
        <time>2021-02-13T13:12:47.000Z</time>
      </trkpt>
      <trkpt lat="54.490459" lon="9.548226">
        <ele>15.942291</ele>
        <time>2021-02-13T13:12:49.000Z</time>
      </trkpt>
      <trkpt lat="54.490457" lon="9.548208">
        <ele>15.972099</ele>
        <time>2021-02-13T13:12:50.000Z</time>
      </trkpt>
      <trkpt lat="54.490457" lon="9.548168">
        <ele>16.037159</ele>
        <time>2021-02-13T13:12:52.000Z</time>
      </trkpt>
      <trkpt lat="54.490463" lon="9.548141">
        <ele>16.084178</ele>
        <time>2021-02-13T13:12:54.000Z</time>
      </trkpt>
      <trkpt lat="54.490474" lon="9.548097">
        <ele>16.162092</ele>
        <time>2021-02-13T13:12:56.000Z</time>
      </trkpt>
      <trkpt lat="54.490479" lon="9.548073">
        <ele>16.203563</ele>
        <time>2021-02-13T13:12:57.000Z</time>
      </trkpt>
      <trkpt lat="54.490484" lon="9.548055">
        <ele>16.236015</ele>
        <time>2021-02-13T13:12:58.000Z</time>
      </trkpt>
      <trkpt lat="54.490527" lon="9.547944">
        <ele>16.453026</ele>
        <time>2021-02-13T13:13:04.000Z</time>
      </trkpt>
      <trkpt lat="54.490541" lon="9.547826">
        <ele>16.648916</ele>
        <time>2021-02-13T13:13:09.000Z</time>
      </trkpt>
      <trkpt lat="54.490543" lon="9.547806">
        <ele>16.681924</ele>
        <time>2021-02-13T13:13:10.000Z</time>
      </trkpt>
      <trkpt lat="54.490556" lon="9.547744">
        <ele>16.789136</ele>
        <time>2021-02-13T13:13:13.000Z</time>
      </trkpt>
      <trkpt lat="54.490564" lon="9.547628">
        <ele>16.979135</ele>
        <time>2021-02-13T13:13:19.000Z</time>
      </trkpt>
      <trkpt lat="54.490563" lon="9.547531">
        <ele>17.136930</ele>
        <time>2021-02-13T13:13:23.000Z</time>
      </trkpt>
      <trkpt lat="54.490573" lon="9.547457">
        <ele>17.260505</ele>
        <time>2021-02-13T13:13:26.000Z</time>
      </trkpt>
      <trkpt lat="54.490567" lon="9.547352">
        <ele>17.432111</ele>
        <time>2021-02-13T13:13:30.000Z</time>
      </trkpt>
      <trkpt lat="54.490576" lon="9.547305">
        <ele>17.512603</ele>
        <time>2021-02-13T13:13:32.000Z</time>
      </trkpt>
      <trkpt lat="54.490580" lon="9.547284">
        <ele>17.548549</ele>
        <time>2021-02-13T13:13:33.000Z</time>
      </trkpt>
      <trkpt lat="54.490598" lon="9.547200">
        <ele>17.694176</ele>
        <time>2021-02-13T13:13:37.000Z</time>
      </trkpt>
      <trkpt lat="54.490602" lon="9.547150">
        <ele>17.776268</ele>
        <time>2021-02-13T13:13:39.000Z</time>
      </trkpt>
      <trkpt lat="54.490606" lon="9.547128">
        <ele>17.813763</ele>
        <time>2021-02-13T13:13:40.000Z</time>
      </trkpt>
      <trkpt lat="54.490620" lon="9.547042">
        <ele>17.959031</ele>
        <time>2021-02-13T13:13:44.000Z</time>
      </trkpt>
      <trkpt lat="54.490621" lon="9.546981">
        <ele>18.058287</ele>
        <time>2021-02-13T13:13:47.000Z</time>
      </trkpt>
      <trkpt lat="54.490631" lon="9.546872">
        <ele>18.237772</ele>
        <time>2021-02-13T13:13:52.000Z</time>
      </trkpt>
      <trkpt lat="54.490647" lon="9.546777">
        <ele>18.398653</ele>
        <time>2021-02-13T13:13:56.000Z</time>
      </trkpt>
      <trkpt lat="54.490661" lon="9.546723">
        <ele>18.494836</ele>
        <time>2021-02-13T13:13:58.000Z</time>
      </trkpt>
      <trkpt lat="54.490730" lon="9.546618">
        <ele>18.752711</ele>
        <time>2021-02-13T13:14:05.000Z</time>
      </trkpt>
      <trkpt lat="54.490741" lon="9.546451">
        <ele>19.026075</ele>
        <time>2021-02-13T13:14:12.000Z</time>
      </trkpt>
      <trkpt lat="54.490753" lon="9.546355">
        <ele>19.185792</ele>
        <time>2021-02-13T13:14:16.000Z</time>
      </trkpt>
      <trkpt lat="54.490755" lon="9.546312">
        <ele>19.255955</ele>
        <time>2021-02-13T13:14:18.000Z</time>
      </trkpt>
      <trkpt lat="54.490763" lon="9.546147">
        <ele>19.387903</ele>
        <time>2021-02-13T13:14:25.000Z</time>
      </trkpt>
      <trkpt lat="54.490762" lon="9.546014">
        <ele>19.374401</ele>
        <time>2021-02-13T13:14:29.000Z</time>
      </trkpt>
      <trkpt lat="54.490766" lon="9.545946">
        <ele>19.367462</ele>
        <time>2021-02-13T13:14:32.000Z</time>
      </trkpt>
      <trkpt lat="54.490778" lon="9.545849">
        <ele>19.357395</ele>
        <time>2021-02-13T13:14:38.000Z</time>
      </trkpt>
      <trkpt lat="54.490781" lon="9.545829">
        <ele>19.355298</ele>
        <time>2021-02-13T13:14:39.000Z</time>
      </trkpt>
      <trkpt lat="54.490783" lon="9.545809">
        <ele>19.353238</ele>
        <time>2021-02-13T13:14:40.000Z</time>
      </trkpt>
      <trkpt lat="54.490803" lon="9.545716">
        <ele>19.343170</ele>
        <time>2021-02-13T13:14:46.000Z</time>
      </trkpt>
      <trkpt lat="54.490828" lon="9.545581">
        <ele>19.328786</ele>
        <time>2021-02-13T13:14:53.000Z</time>
      </trkpt>
      <trkpt lat="54.490847" lon="9.545435">
        <ele>19.313598</ele>
        <time>2021-02-13T13:15:01.000Z</time>
      </trkpt>
      <trkpt lat="54.490864" lon="9.545389">
        <ele>19.308063</ele>
        <time>2021-02-13T13:15:04.000Z</time>
      </trkpt>
      <trkpt lat="54.490885" lon="9.545335">
        <ele>19.301466</ele>
        <time>2021-02-13T13:15:07.000Z</time>
      </trkpt>
      <trkpt lat="54.490899" lon="9.545277">
        <ele>19.295090</ele>
        <time>2021-02-13T13:15:10.000Z</time>
      </trkpt>
      <trkpt lat="54.490901" lon="9.545258">
        <ele>19.293130</ele>
        <time>2021-02-13T13:15:11.000Z</time>
      </trkpt>
      <trkpt lat="54.490902" lon="9.545243">
        <ele>19.291597</ele>
        <time>2021-02-13T13:15:12.000Z</time>
      </trkpt>
      <trkpt lat="54.490906" lon="9.545219">
        <ele>19.289063</ele>
        <time>2021-02-13T13:15:14.000Z</time>
      </trkpt>
      <trkpt lat="54.490908" lon="9.545202">
        <ele>19.287302</ele>
        <time>2021-02-13T13:15:15.000Z</time>
      </trkpt>
      <trkpt lat="54.490905" lon="9.545165">
        <ele>19.283509</ele>
        <time>2021-02-13T13:15:17.000Z</time>
      </trkpt>
      <trkpt lat="54.490915" lon="9.545092">
        <ele>19.275896</ele>
        <time>2021-02-13T13:15:22.000Z</time>
      </trkpt>
      <trkpt lat="54.490924" lon="9.545049">
        <ele>19.271256</ele>
        <time>2021-02-13T13:15:24.000Z</time>
      </trkpt>
      <trkpt lat="54.490927" lon="9.545025">
        <ele>19.268764</ele>
        <time>2021-02-13T13:15:25.000Z</time>
      </trkpt>
      <trkpt lat="54.490936" lon="9.544908">
        <ele>19.256783</ele>
        <time>2021-02-13T13:15:31.000Z</time>
      </trkpt>
      <trkpt lat="54.490946" lon="9.544725">
        <ele>19.238124</ele>
        <time>2021-02-13T13:15:39.000Z</time>
      </trkpt>
      <trkpt lat="54.490975" lon="9.544590">
        <ele>19.223512</ele>
        <time>2021-02-13T13:15:46.000Z</time>
      </trkpt>
      <trkpt lat="54.490975" lon="9.544556">
        <ele>19.220061</ele>
        <time>2021-02-13T13:15:48.000Z</time>
      </trkpt>
      <trkpt lat="54.490973" lon="9.544537">
        <ele>19.218100</ele>
        <time>2021-02-13T13:15:49.000Z</time>
      </trkpt>
      <trkpt lat="54.490960" lon="9.544468">
        <ele>19.210737</ele>
        <time>2021-02-13T13:15:53.000Z</time>
      </trkpt>
      <trkpt lat="54.490992" lon="9.544346">
        <ele>19.197148</ele>
        <time>2021-02-13T13:15:59.000Z</time>
      </trkpt>
      <trkpt lat="54.491000" lon="9.544323">
        <ele>19.194426</ele>
        <time>2021-02-13T13:16:00.000Z</time>
      </trkpt>
      <trkpt lat="54.491012" lon="9.544256">
        <ele>19.187309</ele>
        <time>2021-02-13T13:16:03.000Z</time>
      </trkpt>
      <trkpt lat="54.491008" lon="9.544199">
        <ele>19.181481</ele>
        <time>2021-02-13T13:16:06.000Z</time>
      </trkpt>
      <trkpt lat="54.491006" lon="9.544162">
        <ele>19.177708</ele>
        <time>2021-02-13T13:16:08.000Z</time>
      </trkpt>
      <trkpt lat="54.491000" lon="9.544127">
        <ele>19.174004</ele>
        <time>2021-02-13T13:16:10.000Z</time>
      </trkpt>
      <trkpt lat="54.490998" lon="9.544094">
        <ele>19.170636</ele>
        <time>2021-02-13T13:16:12.000Z</time>
      </trkpt>
      <trkpt lat="54.491010" lon="9.544016">
        <ele>19.162445</ele>
        <time>2021-02-13T13:16:16.000Z</time>
      </trkpt>
      <trkpt lat="54.491025" lon="9.543976">
        <ele>19.157611</ele>
        <time>2021-02-13T13:16:18.000Z</time>
      </trkpt>
      <trkpt lat="54.491084" lon="9.543835">
        <ele>19.139970</ele>
        <time>2021-02-13T13:16:25.000Z</time>
      </trkpt>
      <trkpt lat="54.491104" lon="9.543750">
        <ele>19.130661</ele>
        <time>2021-02-13T13:16:28.000Z</time>
      </trkpt>
      <trkpt lat="54.491111" lon="9.543723">
        <ele>19.127659</ele>
        <time>2021-02-13T13:16:29.000Z</time>
      </trkpt>
      <trkpt lat="54.491113" lon="9.543653">
        <ele>19.120544</ele>
        <time>2021-02-13T13:16:31.000Z</time>
      </trkpt>
      <trkpt lat="54.491123" lon="9.543616">
        <ele>19.116402</ele>
        <time>2021-02-13T13:16:33.000Z</time>
      </trkpt>
      <trkpt lat="54.491131" lon="9.543593">
        <ele>19.113680</ele>
        <time>2021-02-13T13:16:35.000Z</time>
      </trkpt>
      <trkpt lat="54.491137" lon="9.543569">
        <ele>19.111028</ele>
        <time>2021-02-13T13:16:37.000Z</time>
      </trkpt>
      <trkpt lat="54.491141" lon="9.543560">
        <ele>19.109877</ele>
        <time>2021-02-13T13:16:38.000Z</time>
      </trkpt>
      <trkpt lat="54.491151" lon="9.543543">
        <ele>19.107421</ele>
        <time>2021-02-13T13:16:40.000Z</time>
      </trkpt>
      <trkpt lat="54.491158" lon="9.543521">
        <ele>19.104875</ele>
        <time>2021-02-13T13:16:43.000Z</time>
      </trkpt>
      <trkpt lat="54.491162" lon="9.543496">
        <ele>19.102243</ele>
        <time>2021-02-13T13:16:45.000Z</time>
      </trkpt>
      <trkpt lat="54.491164" lon="9.543476">
        <ele>19.100182</ele>
        <time>2021-02-13T13:16:46.000Z</time>
      </trkpt>
      <trkpt lat="54.491166" lon="9.543461">
        <ele>19.098620</ele>
        <time>2021-02-13T13:16:47.000Z</time>
      </trkpt>
      <trkpt lat="54.491170" lon="9.543444">
        <ele>19.096758</ele>
        <time>2021-02-13T13:16:48.000Z</time>
      </trkpt>
      <trkpt lat="54.491175" lon="9.543429">
        <ele>19.095003</ele>
        <time>2021-02-13T13:16:49.000Z</time>
      </trkpt>
      <trkpt lat="54.491178" lon="9.543412">
        <ele>19.093199</ele>
        <time>2021-02-13T13:16:50.000Z</time>
      </trkpt>
      <trkpt lat="54.491186" lon="9.543375">
        <ele>19.089191</ele>
        <time>2021-02-13T13:16:52.000Z</time>
      </trkpt>
      <trkpt lat="54.491193" lon="9.543324">
        <ele>19.083871</ele>
        <time>2021-02-13T13:16:55.000Z</time>
      </trkpt>
      <trkpt lat="54.491194" lon="9.543258">
        <ele>18.781460</ele>
        <time>2021-02-13T13:16:58.000Z</time>
      </trkpt>
      <trkpt lat="54.491195" lon="9.543240">
        <ele>18.657605</ele>
        <time>2021-02-13T13:16:59.000Z</time>
      </trkpt>
      <trkpt lat="54.491180" lon="9.543153">
        <ele>18.035990</ele>
        <time>2021-02-13T13:17:03.000Z</time>
      </trkpt>
      <trkpt lat="54.491177" lon="9.543116">
        <ele>17.780098</ele>
        <time>2021-02-13T13:17:05.000Z</time>
      </trkpt>
      <trkpt lat="54.491181" lon="9.543079">
        <ele>17.522311</ele>
        <time>2021-02-13T13:17:07.000Z</time>
      </trkpt>
      <trkpt lat="54.491188" lon="9.543036">
        <ele>17.216429</ele>
        <time>2021-02-13T13:17:09.000Z</time>
      </trkpt>
      <trkpt lat="54.491201" lon="9.542990">
        <ele>16.866031</ele>
        <time>2021-02-13T13:17:12.000Z</time>
      </trkpt>
      <trkpt lat="54.491211" lon="9.542942">
        <ele>16.516741</ele>
        <time>2021-02-13T13:17:15.000Z</time>
      </trkpt>
      <trkpt lat="54.491220" lon="9.542904">
        <ele>16.235649</ele>
        <time>2021-02-13T13:17:17.000Z</time>
      </trkpt>
      <trkpt lat="54.491233" lon="9.542868">
        <ele>15.945293</ele>
        <time>2021-02-13T13:17:20.000Z</time>
      </trkpt>
      <trkpt lat="54.491232" lon="9.542817">
        <ele>15.595765</ele>
        <time>2021-02-13T13:17:24.000Z</time>
      </trkpt>
      <trkpt lat="54.491225" lon="9.542786">
        <ele>15.367946</ele>
        <time>2021-02-13T13:17:28.000Z</time>
      </trkpt>
      <trkpt lat="54.491225" lon="9.542782">
        <ele>15.340548</ele>
        <time>2021-02-13T13:17:29.000Z</time>
      </trkpt>
      <trkpt lat="54.491221" lon="9.542772">
        <ele>15.257381</ele>
        <time>2021-02-13T13:17:30.000Z</time>
      </trkpt>
      <trkpt lat="54.491233" lon="9.542762">
        <ele>15.100162</ele>
        <time>2021-02-13T13:17:32.000Z</time>
      </trkpt>
      <trkpt lat="54.491233" lon="9.542662">
        <ele>14.415204</ele>
        <time>2021-02-13T13:17:37.000Z</time>
      </trkpt>
      <trkpt lat="54.491221" lon="9.542626">
        <ele>14.130898</ele>
        <time>2021-02-13T13:17:41.000Z</time>
      </trkpt>
      <trkpt lat="54.491206" lon="9.542620">
        <ele>13.949294</ele>
        <time>2021-02-13T13:17:43.000Z</time>
      </trkpt>
      <trkpt lat="54.491204" lon="9.542611">
        <ele>13.883290</ele>
        <time>2021-02-13T13:17:44.000Z</time>
      </trkpt>
      <trkpt lat="54.491214" lon="9.542617">
        <ele>13.758406</ele>
        <time>2021-02-13T13:17:47.000Z</time>
      </trkpt>
      <trkpt lat="54.491216" lon="9.542615">
        <ele>13.731131</ele>
        <time>2021-02-13T13:17:49.000Z</time>
      </trkpt>
      <trkpt lat="54.491221" lon="9.542593">
        <ele>13.569315</ele>
        <time>2021-02-13T13:17:53.000Z</time>
      </trkpt>
      <trkpt lat="54.491240" lon="9.542535">
        <ele>13.113209</ele>
        <time>2021-02-13T13:17:57.000Z</time>
      </trkpt>
      <trkpt lat="54.491247" lon="9.542523">
        <ele>12.996717</ele>
        <time>2021-02-13T13:17:58.000Z</time>
      </trkpt>
      <trkpt lat="54.491254" lon="9.542500">
        <ele>12.818859</ele>
        <time>2021-02-13T13:18:00.000Z</time>
      </trkpt>
      <trkpt lat="54.491260" lon="9.542470">
        <ele>12.601531</ele>
        <time>2021-02-13T13:18:02.000Z</time>
      </trkpt>
      <trkpt lat="54.491281" lon="9.542383">
        <ele>11.956208</ele>
        <time>2021-02-13T13:18:06.000Z</time>
      </trkpt>
      <trkpt lat="54.491281" lon="9.542333">
        <ele>11.613729</ele>
        <time>2021-02-13T13:18:07.000Z</time>
      </trkpt>
      <trkpt lat="54.491284" lon="9.542260">
        <ele>11.112461</ele>
        <time>2021-02-13T13:18:10.000Z</time>
      </trkpt>
      <trkpt lat="54.491284" lon="9.542260">
        <ele>11.112461</ele>
        <time>2021-02-13T13:18:11.000Z</time>
      </trkpt>
      <trkpt lat="54.491285" lon="9.542237">
        <ele>10.954480</ele>
        <time>2021-02-13T13:18:12.000Z</time>
      </trkpt>
      <trkpt lat="54.491288" lon="9.542189">
        <ele>10.623802</ele>
        <time>2021-02-13T13:18:14.000Z</time>
      </trkpt>
      <trkpt lat="54.491283" lon="9.542068">
        <ele>9.792909</ele>
        <time>2021-02-13T13:18:19.000Z</time>
      </trkpt>
      <trkpt lat="54.491283" lon="9.542053">
        <ele>9.690166</ele>
        <time>2021-02-13T13:18:20.000Z</time>
      </trkpt>
      <trkpt lat="54.491283" lon="9.542053">
        <ele>9.690166</ele>
        <time>2021-02-13T13:18:21.000Z</time>
      </trkpt>
      <trkpt lat="54.491286" lon="9.542034">
        <ele>9.555301</ele>
        <time>2021-02-13T13:18:23.000Z</time>
      </trkpt>
      <trkpt lat="54.491286" lon="9.542034">
        <ele>9.555301</ele>
        <time>2021-02-13T13:18:24.000Z</time>
      </trkpt>
      <trkpt lat="54.491287" lon="9.542021">
        <ele>9.465479</ele>
        <time>2021-02-13T13:18:25.000Z</time>
      </trkpt>
      <trkpt lat="54.491290" lon="9.542002">
        <ele>9.330614</ele>
        <time>2021-02-13T13:18:26.000Z</time>
      </trkpt>
      <trkpt lat="54.491294" lon="9.541991">
        <ele>9.241721</ele>
        <time>2021-02-13T13:18:27.000Z</time>
      </trkpt>
      <trkpt lat="54.491299" lon="9.541971">
        <ele>9.092579</ele>
        <time>2021-02-13T13:18:29.000Z</time>
      </trkpt>
      <trkpt lat="54.491321" lon="9.541895">
        <ele>8.510943</ele>
        <time>2021-02-13T13:18:33.000Z</time>
      </trkpt>
      <trkpt lat="54.491329" lon="9.541890">
        <ele>8.410577</ele>
        <time>2021-02-13T13:18:35.000Z</time>
      </trkpt>
      <trkpt lat="54.491339" lon="9.541887">
        <ele>8.290872</ele>
        <time>2021-02-13T13:18:36.000Z</time>
      </trkpt>
      <trkpt lat="54.491354" lon="9.541872">
        <ele>8.086307</ele>
        <time>2021-02-13T13:18:38.000Z</time>
      </trkpt>
      <trkpt lat="54.491371" lon="9.541840">
        <ele>7.789265</ele>
        <time>2021-02-13T13:18:41.000Z</time>
      </trkpt>
      <trkpt lat="54.491371" lon="9.541840">
        <ele>7.789265</ele>
        <time>2021-02-13T13:18:42.000Z</time>
      </trkpt>
      <trkpt lat="54.491375" lon="9.541836">
        <ele>7.734714</ele>
        <time>2021-02-13T13:18:43.000Z</time>
      </trkpt>
      <trkpt lat="54.491385" lon="9.541814">
        <ele>7.543365</ele>
        <time>2021-02-13T13:18:45.000Z</time>
      </trkpt>
      <trkpt lat="54.491392" lon="9.541779">
        <ele>7.289816</ele>
        <time>2021-02-13T13:18:49.000Z</time>
      </trkpt>
      <trkpt lat="54.491392" lon="9.541741">
        <ele>7.029533</ele>
        <time>2021-02-13T13:18:51.000Z</time>
      </trkpt>
      <trkpt lat="54.491410" lon="9.541701">
        <ele>6.682943</ele>
        <time>2021-02-13T13:18:55.000Z</time>
      </trkpt>
      <trkpt lat="54.491415" lon="9.541673">
        <ele>6.482296</ele>
        <time>2021-02-13T13:18:58.000Z</time>
      </trkpt>
      <trkpt lat="54.491413" lon="9.541647">
        <ele>6.302653</ele>
        <time>2021-02-13T13:19:00.000Z</time>
      </trkpt>
      <trkpt lat="54.491413" lon="9.541607">
        <ele>6.028671</ele>
        <time>2021-02-13T13:19:02.000Z</time>
      </trkpt>
      <trkpt lat="54.491413" lon="9.541607">
        <ele>6.028671</ele>
        <time>2021-02-13T13:19:03.000Z</time>
      </trkpt>
      <trkpt lat="54.491428" lon="9.541562">
        <ele>5.673289</ele>
        <time>2021-02-13T13:19:05.000Z</time>
      </trkpt>
      <trkpt lat="54.491437" lon="9.541500">
        <ele>5.235555</ele>
        <time>2021-02-13T13:19:07.000Z</time>
      </trkpt>
      <trkpt lat="54.491439" lon="9.541415">
        <ele>4.652866</ele>
        <time>2021-02-13T13:19:10.000Z</time>
      </trkpt>
      <trkpt lat="54.491437" lon="9.541401">
        <ele>4.554115</ele>
        <time>2021-02-13T13:19:12.000Z</time>
      </trkpt>
      <trkpt lat="54.491437" lon="9.541401">
        <ele>4.554115</ele>
        <time>2021-02-13T13:19:13.000Z</time>
      </trkpt>
      <trkpt lat="54.491451" lon="9.541381">
        <ele>4.339582</ele>
        <time>2021-02-13T13:19:16.000Z</time>
      </trkpt>
      <trkpt lat="54.491466" lon="9.541359">
        <ele>4.107207</ele>
        <time>2021-02-13T13:19:19.000Z</time>
      </trkpt>
      <trkpt lat="54.491472" lon="9.541352">
        <ele>4.021735</ele>
        <time>2021-02-13T13:19:20.000Z</time>
      </trkpt>
      <trkpt lat="54.491481" lon="9.541331">
        <ele>3.842977</ele>
        <time>2021-02-13T13:19:22.000Z</time>
      </trkpt>
      <trkpt lat="54.491483" lon="9.541314">
        <ele>3.724170</ele>
        <time>2021-02-13T13:19:23.000Z</time>
      </trkpt>
      <trkpt lat="54.491484" lon="9.541315">
        <ele>3.710532</ele>
        <time>2021-02-13T13:19:24.000Z</time>
      </trkpt>
      <trkpt lat="54.491489" lon="9.541277">
        <ele>3.443655</ele>
        <time>2021-02-13T13:19:27.000Z</time>
      </trkpt>
      <trkpt lat="54.491500" lon="9.541248">
        <ele>3.206412</ele>
        <time>2021-02-13T13:19:32.000Z</time>
      </trkpt>
      <trkpt lat="54.491528" lon="9.541201">
        <ele>2.745252</ele>
        <time>2021-02-13T13:19:37.000Z</time>
      </trkpt>
      <trkpt lat="54.491530" lon="9.541194">
        <ele>2.691818</ele>
        <time>2021-02-13T13:19:40.000Z</time>
      </trkpt>
      <trkpt lat="54.491529" lon="9.541184">
        <ele>2.622315</ele>
        <time>2021-02-13T13:19:41.000Z</time>
      </trkpt>
      <trkpt lat="54.491514" lon="9.541099">
        <ele>2.013826</ele>
        <time>2021-02-13T13:19:48.000Z</time>
      </trkpt>
      <trkpt lat="54.491479" lon="9.541012">
        <ele>1.288934</ele>
        <time>2021-02-13T13:19:54.000Z</time>
      </trkpt>
      <trkpt lat="54.491463" lon="9.540950">
        <ele>0.824232</ele>
        <time>2021-02-13T13:19:57.000Z</time>
      </trkpt>
      <trkpt lat="54.491464" lon="9.540895">
        <ele>0.447322</ele>
        <time>2021-02-13T13:20:00.000Z</time>
      </trkpt>
      <trkpt lat="54.491465" lon="9.540878">
        <ele>0.330285</ele>
        <time>2021-02-13T13:20:01.000Z</time>
      </trkpt>
      <trkpt lat="54.491453" lon="9.540848">
        <ele>0.080784</ele>
        <time>2021-02-13T13:20:02.000Z</time>
      </trkpt>
      <trkpt lat="54.491437" lon="9.540806">
        <ele>-0.263254</ele>
        <time>2021-02-13T13:20:04.000Z</time>
      </trkpt>
      <trkpt lat="54.491425" lon="9.540755">
        <ele>-0.640157</ele>
        <time>2021-02-13T13:20:06.000Z</time>
      </trkpt>
      <trkpt lat="54.491421" lon="9.540735">
        <ele>-0.785042</ele>
        <time>2021-02-13T13:20:07.000Z</time>
      </trkpt>
      <trkpt lat="54.491417" lon="9.540717">
        <ele>-0.917049</ele>
        <time>2021-02-13T13:20:08.000Z</time>
      </trkpt>
      <trkpt lat="54.491406" lon="9.540662">
        <ele>-1.315483</ele>
        <time>2021-02-13T13:20:11.000Z</time>
      </trkpt>
      <trkpt lat="54.491408" lon="9.540626">
        <ele>-1.563192</ele>
        <time>2021-02-13T13:20:13.000Z</time>
      </trkpt>
      <trkpt lat="54.491410" lon="9.540588">
        <ele>-1.824541</ele>
        <time>2021-02-13T13:20:15.000Z</time>
      </trkpt>
      <trkpt lat="54.491419" lon="9.540517">
        <ele>-2.164988</ele>
        <time>2021-02-13T13:20:19.000Z</time>
      </trkpt>
      <trkpt lat="54.491425" lon="9.540475">
        <ele>-2.219626</ele>
        <time>2021-02-13T13:20:21.000Z</time>
      </trkpt>
      <trkpt lat="54.491432" lon="9.540350">
        <ele>-2.378267</ele>
        <time>2021-02-13T13:20:27.000Z</time>
      </trkpt>
      <trkpt lat="54.491460" lon="9.540237">
        <ele>-2.533463</ele>
        <time>2021-02-13T13:20:34.000Z</time>
      </trkpt>
      <trkpt lat="54.491462" lon="9.540220">
        <ele>-2.555375</ele>
        <time>2021-02-13T13:20:35.000Z</time>
      </trkpt>
      <trkpt lat="54.491462" lon="9.540220">
        <ele>-2.555375</ele>
        <time>2021-02-13T13:20:36.000Z</time>
      </trkpt>
      <trkpt lat="54.491467" lon="9.540114">
        <ele>-2.689722</ele>
        <time>2021-02-13T13:20:41.000Z</time>
      </trkpt>
      <trkpt lat="54.491465" lon="9.540036">
        <ele>-2.788352</ele>
        <time>2021-02-13T13:20:45.000Z</time>
      </trkpt>
      <trkpt lat="54.491491" lon="9.539883">
        <ele>-2.989734</ele>
        <time>2021-02-13T13:20:51.000Z</time>
      </trkpt>
      <trkpt lat="54.491506" lon="9.539779">
        <ele>-3.125104</ele>
        <time>2021-02-13T13:20:53.000Z</time>
      </trkpt>
      <trkpt lat="54.491515" lon="9.539728">
        <ele>-3.192439</ele>
        <time>2021-02-13T13:20:56.000Z</time>
      </trkpt>
      <trkpt lat="54.491528" lon="9.539661">
        <ele>-3.281675</ele>
        <time>2021-02-13T13:20:58.000Z</time>
      </trkpt>
      <trkpt lat="54.491527" lon="9.539587">
        <ele>-3.375182</ele>
        <time>2021-02-13T13:21:01.000Z</time>
      </trkpt>
      <trkpt lat="54.491527" lon="9.539565">
        <ele>-3.402974</ele>
        <time>2021-02-13T13:21:02.000Z</time>
      </trkpt>
      <trkpt lat="54.491529" lon="9.539513">
        <ele>-3.468807</ele>
        <time>2021-02-13T13:21:04.000Z</time>
      </trkpt>
      <trkpt lat="54.491525" lon="9.539439">
        <ele>-3.562693</ele>
        <time>2021-02-13T13:21:09.000Z</time>
      </trkpt>
      <trkpt lat="54.491529" lon="9.539402">
        <ele>-3.610236</ele>
        <time>2021-02-13T13:21:10.000Z</time>
      </trkpt>
      <trkpt lat="54.491530" lon="9.539383">
        <ele>-3.634336</ele>
        <time>2021-02-13T13:21:11.000Z</time>
      </trkpt>
      <trkpt lat="54.491528" lon="9.539359">
        <ele>-3.664965</ele>
        <time>2021-02-13T13:21:12.000Z</time>
      </trkpt>
      <trkpt lat="54.491527" lon="9.539335">
        <ele>-3.695361</ele>
        <time>2021-02-13T13:21:13.000Z</time>
      </trkpt>
      <trkpt lat="54.491535" lon="9.539306">
        <ele>-3.735918</ele>
        <time>2021-02-13T13:21:15.000Z</time>
      </trkpt>
      <trkpt lat="54.491520" lon="9.539179">
        <ele>-3.899636</ele>
        <time>2021-02-13T13:21:21.000Z</time>
      </trkpt>
      <trkpt lat="54.491515" lon="9.539022">
        <ele>-4.098266</ele>
        <time>2021-02-13T13:21:26.000Z</time>
      </trkpt>
      <trkpt lat="54.491514" lon="9.538966">
        <ele>-4.169043</ele>
        <time>2021-02-13T13:21:28.000Z</time>
      </trkpt>
      <trkpt lat="54.491522" lon="9.538858">
        <ele>-4.306580</ele>
        <time>2021-02-13T13:21:32.000Z</time>
      </trkpt>
      <trkpt lat="54.491518" lon="9.538818">
        <ele>-4.357854</ele>
        <time>2021-02-13T13:21:34.000Z</time>
      </trkpt>
      <trkpt lat="54.491518" lon="9.538793">
        <ele>-4.389436</ele>
        <time>2021-02-13T13:21:35.000Z</time>
      </trkpt>
      <trkpt lat="54.491521" lon="9.538776">
        <ele>-4.411881</ele>
        <time>2021-02-13T13:21:37.000Z</time>
      </trkpt>
      <trkpt lat="54.491536" lon="9.538715">
        <ele>-4.495561</ele>
        <time>2021-02-13T13:21:41.000Z</time>
      </trkpt>
      <trkpt lat="54.491536" lon="9.538696">
        <ele>-4.519563</ele>
        <time>2021-02-13T13:21:42.000Z</time>
      </trkpt>
      <trkpt lat="54.491546" lon="9.538672">
        <ele>-4.556876</ele>
        <time>2021-02-13T13:21:44.000Z</time>
      </trkpt>
      <trkpt lat="54.491556" lon="9.538642">
        <ele>-4.600571</ele>
        <time>2021-02-13T13:21:45.000Z</time>
      </trkpt>
      <trkpt lat="54.491562" lon="9.538622">
        <ele>-4.629008</ele>
        <time>2021-02-13T13:21:46.000Z</time>
      </trkpt>
      <trkpt lat="54.491559" lon="9.538569">
        <ele>-4.696278</ele>
        <time>2021-02-13T13:21:49.000Z</time>
      </trkpt>
      <trkpt lat="54.491557" lon="9.538541">
        <ele>-4.731916</ele>
        <time>2021-02-13T13:21:50.000Z</time>
      </trkpt>
      <trkpt lat="54.491551" lon="9.538525">
        <ele>-4.755975</ele>
        <time>2021-02-13T13:21:51.000Z</time>
      </trkpt>
      <trkpt lat="54.491544" lon="9.538430">
        <ele>-4.876946</ele>
        <time>2021-02-13T13:21:55.000Z</time>
      </trkpt>
      <trkpt lat="54.491556" lon="9.538261">
        <ele>-5.092027</ele>
        <time>2021-02-13T13:22:03.000Z</time>
      </trkpt>
      <trkpt lat="54.491543" lon="9.538214">
        <ele>-5.157789</ele>
        <time>2021-02-13T13:22:05.000Z</time>
      </trkpt>
      <trkpt lat="54.491539" lon="9.538191">
        <ele>-5.188119</ele>
        <time>2021-02-13T13:22:10.000Z</time>
      </trkpt>
      <trkpt lat="54.491522" lon="9.538204">
        <ele>-5.228576</ele>
        <time>2021-02-13T13:22:12.000Z</time>
      </trkpt>
      <trkpt lat="54.491533" lon="9.538193">
        <ele>-5.256243</ele>
        <time>2021-02-13T13:22:18.000Z</time>
      </trkpt>
      <trkpt lat="54.491544" lon="9.538229">
        <ele>-5.307630</ele>
        <time>2021-02-13T13:22:26.000Z</time>
      </trkpt>
      <trkpt lat="54.491543" lon="9.538198">
        <ele>-5.346851</ele>
        <time>2021-02-13T13:22:29.000Z</time>
      </trkpt>
      <trkpt lat="54.491566" lon="9.538119">
        <ele>-5.458485</ele>
        <time>2021-02-13T13:22:34.000Z</time>
      </trkpt>
      <trkpt lat="54.491571" lon="9.538093">
        <ele>-5.493083</ele>
        <time>2021-02-13T13:22:36.000Z</time>
      </trkpt>
      <trkpt lat="54.491576" lon="9.538079">
        <ele>-5.513844</ele>
        <time>2021-02-13T13:22:37.000Z</time>
      </trkpt>
      <trkpt lat="54.491576" lon="9.538062">
        <ele>-5.535320</ele>
        <time>2021-02-13T13:22:38.000Z</time>
      </trkpt>
      <trkpt lat="54.491586" lon="9.537991">
        <ele>-5.627611</ele>
        <time>2021-02-13T13:22:41.000Z</time>
      </trkpt>
      <trkpt lat="54.491595" lon="9.537943">
        <ele>-5.691329</ele>
        <time>2021-02-13T13:22:45.000Z</time>
      </trkpt>
      <trkpt lat="54.491577" lon="9.537872">
        <ele>-5.789192</ele>
        <time>2021-02-13T13:22:48.000Z</time>
      </trkpt>
      <trkpt lat="54.491574" lon="9.537850">
        <ele>-5.817739</ele>
        <time>2021-02-13T13:22:50.000Z</time>
      </trkpt>
      <trkpt lat="54.491589" lon="9.537719">
        <ele>-5.986412</ele>
        <time>2021-02-13T13:22:56.000Z</time>
      </trkpt>
      <trkpt lat="54.491589" lon="9.537688">
        <ele>-6.025573</ele>
        <time>2021-02-13T13:23:00.000Z</time>
      </trkpt>
      <trkpt lat="54.491594" lon="9.537674">
        <ele>-6.036527</ele>
        <time>2021-02-13T13:23:01.000Z</time>
      </trkpt>
      <trkpt lat="54.491600" lon="9.537662">
        <ele>-6.016963</ele>
        <time>2021-02-13T13:23:02.000Z</time>
      </trkpt>
      <trkpt lat="54.491608" lon="9.537500">
        <ele>-5.816072</ele>
        <time>2021-02-13T13:23:09.000Z</time>
      </trkpt>
      <trkpt lat="54.491602" lon="9.537410">
        <ele>-5.704137</ele>
        <time>2021-02-13T13:23:15.000Z</time>
      </trkpt>
      <trkpt lat="54.491596" lon="9.537395">
        <ele>-5.681633</ele>
        <time>2021-02-13T13:23:16.000Z</time>
      </trkpt>
      <trkpt lat="54.491580" lon="9.537378">
        <ele>-5.641635</ele>
        <time>2021-02-13T13:23:18.000Z</time>
      </trkpt>
      <trkpt lat="54.491581" lon="9.537343">
        <ele>-5.598337</ele>
        <time>2021-02-13T13:23:20.000Z</time>
      </trkpt>
      <trkpt lat="54.491588" lon="9.537287">
        <ele>-5.527558</ele>
        <time>2021-02-13T13:23:23.000Z</time>
      </trkpt>
      <trkpt lat="54.491590" lon="9.537245">
        <ele>-5.475489</ele>
        <time>2021-02-13T13:23:25.000Z</time>
      </trkpt>
      <trkpt lat="54.491608" lon="9.537192">
        <ele>-5.399628</ele>
        <time>2021-02-13T13:23:28.000Z</time>
      </trkpt>
      <trkpt lat="54.491612" lon="9.537171">
        <ele>-5.372320</ele>
        <time>2021-02-13T13:23:29.000Z</time>
      </trkpt>
      <trkpt lat="54.491632" lon="9.537112">
        <ele>-5.287912</ele>
        <time>2021-02-13T13:23:33.000Z</time>
      </trkpt>
      <trkpt lat="54.491626" lon="9.537096">
        <ele>-5.264380</ele>
        <time>2021-02-13T13:23:34.000Z</time>
      </trkpt>
      <trkpt lat="54.491625" lon="9.537039">
        <ele>-5.193918</ele>
        <time>2021-02-13T13:23:38.000Z</time>
      </trkpt>
      <trkpt lat="54.491624" lon="9.537019">
        <ele>-5.169114</ele>
        <time>2021-02-13T13:23:39.000Z</time>
      </trkpt>
      <trkpt lat="54.491630" lon="9.536903">
        <ele>-5.025216</ele>
        <time>2021-02-13T13:23:43.000Z</time>
      </trkpt>
      <trkpt lat="54.491639" lon="9.536883">
        <ele>-4.993955</ele>
        <time>2021-02-13T13:23:44.000Z</time>
      </trkpt>
      <trkpt lat="54.491664" lon="9.536760">
        <ele>-4.832938</ele>
        <time>2021-02-13T13:23:47.000Z</time>
      </trkpt>
      <trkpt lat="54.491662" lon="9.536724">
        <ele>-4.788254</ele>
        <time>2021-02-13T13:23:48.000Z</time>
      </trkpt>
      <trkpt lat="54.491675" lon="9.536701">
        <ele>-4.748599</ele>
        <time>2021-02-13T13:23:52.000Z</time>
      </trkpt>
      <trkpt lat="54.491677" lon="9.536704">
        <ele>-4.742956</ele>
        <time>2021-02-13T13:23:55.000Z</time>
      </trkpt>
      <trkpt lat="54.491669" lon="9.536657">
        <ele>-4.682440</ele>
        <time>2021-02-13T13:24:02.000Z</time>
      </trkpt>
      <trkpt lat="54.491675" lon="9.536604">
        <ele>-4.615721</ele>
        <time>2021-02-13T13:24:06.000Z</time>
      </trkpt>
      <trkpt lat="54.491681" lon="9.536590">
        <ele>-4.594223</ele>
        <time>2021-02-13T13:24:07.000Z</time>
      </trkpt>
      <trkpt lat="54.491696" lon="9.536569">
        <ele>-4.553095</ele>
        <time>2021-02-13T13:24:09.000Z</time>
      </trkpt>
      <trkpt lat="54.491721" lon="9.536564">
        <ele>-4.499553</ele>
        <time>2021-02-13T13:24:12.000Z</time>
      </trkpt>
      <trkpt lat="54.491758" lon="9.536542">
        <ele>-4.416280</ele>
        <time>2021-02-13T13:24:16.000Z</time>
      </trkpt>
      <trkpt lat="54.491806" lon="9.536570">
        <ele>-4.308466</ele>
        <time>2021-02-13T13:24:22.000Z</time>
      </trkpt>
      <trkpt lat="54.491829" lon="9.536600">
        <ele>-4.247081</ele>
        <time>2021-02-13T13:24:24.000Z</time>
      </trkpt>
      <trkpt lat="54.491941" lon="9.536659">
        <ele>-3.997915</ele>
        <time>2021-02-13T13:24:31.000Z</time>
      </trkpt>
      <trkpt lat="54.492019" lon="9.536695">
        <ele>-3.826124</ele>
        <time>2021-02-13T13:24:36.000Z</time>
      </trkpt>
      <trkpt lat="54.492042" lon="9.536717">
        <ele>-3.770151</ele>
        <time>2021-02-13T13:24:38.000Z</time>
      </trkpt>
      <trkpt lat="54.492079" lon="9.536754">
        <ele>-3.679125</ele>
        <time>2021-02-13T13:24:40.000Z</time>
      </trkpt>
      <trkpt lat="54.492137" lon="9.536779">
        <ele>-3.551932</ele>
        <time>2021-02-13T13:24:44.000Z</time>
      </trkpt>
      <trkpt lat="54.492228" lon="9.536840">
        <ele>-3.344188</ele>
        <time>2021-02-13T13:24:52.000Z</time>
      </trkpt>
      <trkpt lat="54.492239" lon="9.536850">
        <ele>-3.317726</ele>
        <time>2021-02-13T13:24:53.000Z</time>
      </trkpt>
      <trkpt lat="54.492295" lon="9.536902">
        <ele>-3.182373</ele>
        <time>2021-02-13T13:24:59.000Z</time>
      </trkpt>
      <trkpt lat="54.492304" lon="9.536913">
        <ele>-3.158893</ele>
        <time>2021-02-13T13:25:00.000Z</time>
      </trkpt>
      <trkpt lat="54.492377" lon="9.536987">
        <ele>-2.978679</ele>
        <time>2021-02-13T13:25:08.000Z</time>
      </trkpt>
      <trkpt lat="54.492418" lon="9.537006">
        <ele>-2.888354</ele>
        <time>2021-02-13T13:25:11.000Z</time>
      </trkpt>
      <trkpt lat="54.492456" lon="9.537035">
        <ele>-2.799929</ele>
        <time>2021-02-13T13:25:13.000Z</time>
      </trkpt>
      <trkpt lat="54.492562" lon="9.537108">
        <ele>-2.557061</ele>
        <time>2021-02-13T13:25:22.000Z</time>
      </trkpt>
      <trkpt lat="54.492613" lon="9.537153">
        <ele>-2.435149</ele>
        <time>2021-02-13T13:25:26.000Z</time>
      </trkpt>
      <trkpt lat="54.492653" lon="9.537176">
        <ele>-2.345435</ele>
        <time>2021-02-13T13:25:29.000Z</time>
      </trkpt>
      <trkpt lat="54.492686" lon="9.537191">
        <ele>-2.272827</ele>
        <time>2021-02-13T13:25:31.000Z</time>
      </trkpt>
      <trkpt lat="54.492704" lon="9.537199">
        <ele>-2.233280</ele>
        <time>2021-02-13T13:25:32.000Z</time>
      </trkpt>
      <trkpt lat="54.492759" lon="9.537235">
        <ele>-2.172393</ele>
        <time>2021-02-13T13:25:35.000Z</time>
      </trkpt>
      <trkpt lat="54.492785" lon="9.537255">
        <ele>-2.148233</ele>
        <time>2021-02-13T13:25:37.000Z</time>
      </trkpt>
      <trkpt lat="54.492902" lon="9.537306">
        <ele>-2.045834</ele>
        <time>2021-02-13T13:25:44.000Z</time>
      </trkpt>
      <trkpt lat="54.493061" lon="9.537401">
        <ele>-1.903042</ele>
        <time>2021-02-13T13:25:54.000Z</time>
      </trkpt>
      <trkpt lat="54.493156" lon="9.537465">
        <ele>-1.816491</ele>
        <time>2021-02-13T13:26:02.000Z</time>
      </trkpt>
      <trkpt lat="54.493199" lon="9.537501">
        <ele>-1.775924</ele>
        <time>2021-02-13T13:26:08.000Z</time>
      </trkpt>
      <trkpt lat="54.493203" lon="9.537503">
        <ele>-1.772390</ele>
        <time>2021-02-13T13:26:09.000Z</time>
      </trkpt>
      <trkpt lat="54.493188" lon="9.537491">
        <ele>-1.758357</ele>
        <time>2021-02-13T13:26:17.000Z</time>
      </trkpt>
      <trkpt lat="54.493245" lon="9.537535">
        <ele>-1.705358</ele>
        <time>2021-02-13T13:26:25.000Z</time>
      </trkpt>
      <trkpt lat="54.493277" lon="9.537566">
        <ele>-1.674206</ele>
        <time>2021-02-13T13:26:27.000Z</time>
      </trkpt>
      <trkpt lat="54.493291" lon="9.537578">
        <ele>-1.660937</ele>
        <time>2021-02-13T13:26:29.000Z</time>
      </trkpt>
      <trkpt lat="54.493362" lon="9.537628">
        <ele>-1.595855</ele>
        <time>2021-02-13T13:26:34.000Z</time>
      </trkpt>
      <trkpt lat="54.493377" lon="9.537633">
        <ele>-1.582892</ele>
        <time>2021-02-13T13:26:35.000Z</time>
      </trkpt>
      <trkpt lat="54.493456" lon="9.537681">
        <ele>-1.511815</ele>
        <time>2021-02-13T13:26:40.000Z</time>
      </trkpt>
      <trkpt lat="54.493487" lon="9.537701">
        <ele>-1.483728</ele>
        <time>2021-02-13T13:26:42.000Z</time>
      </trkpt>
      <trkpt lat="54.493534" lon="9.537726">
        <ele>-1.441992</ele>
        <time>2021-02-13T13:26:44.000Z</time>
      </trkpt>
      <trkpt lat="54.493586" lon="9.537752">
        <ele>-1.396051</ele>
        <time>2021-02-13T13:26:49.000Z</time>
      </trkpt>
      <trkpt lat="54.493624" lon="9.537762">
        <ele>-1.363436</ele>
        <time>2021-02-13T13:26:52.000Z</time>
      </trkpt>
      <trkpt lat="54.493710" lon="9.537830">
        <ele>-1.283145</ele>
        <time>2021-02-13T13:26:58.000Z</time>
      </trkpt>
      <trkpt lat="54.493769" lon="9.537860">
        <ele>-1.230950</ele>
        <time>2021-02-13T13:27:01.000Z</time>
      </trkpt>
      <trkpt lat="54.493880" lon="9.537942">
        <ele>-1.128472</ele>
        <time>2021-02-13T13:27:07.000Z</time>
      </trkpt>
      <trkpt lat="54.493894" lon="9.537953">
        <ele>-1.115415</ele>
        <time>2021-02-13T13:27:08.000Z</time>
      </trkpt>
      <trkpt lat="54.493929" lon="9.537981">
        <ele>-1.082671</ele>
        <time>2021-02-13T13:27:12.000Z</time>
      </trkpt>
      <trkpt lat="54.493980" lon="9.538015">
        <ele>-1.036271</ele>
        <time>2021-02-13T13:27:15.000Z</time>
      </trkpt>
      <trkpt lat="54.493994" lon="9.538020">
        <ele>-1.024140</ele>
        <time>2021-02-13T13:27:17.000Z</time>
      </trkpt>
      <trkpt lat="54.494025" lon="9.538037">
        <ele>-0.996537</ele>
        <time>2021-02-13T13:27:19.000Z</time>
      </trkpt>
      <trkpt lat="54.494056" lon="9.538060">
        <ele>-0.967898</ele>
        <time>2021-02-13T13:27:20.000Z</time>
      </trkpt>
      <trkpt lat="54.494133" lon="9.538118">
        <ele>-0.896590</ele>
        <time>2021-02-13T13:27:25.000Z</time>
      </trkpt>
      <trkpt lat="54.494196" lon="9.538163">
        <ele>-0.838722</ele>
        <time>2021-02-13T13:27:30.000Z</time>
      </trkpt>
      <trkpt lat="54.494237" lon="9.538201">
        <ele>-0.799217</ele>
        <time>2021-02-13T13:27:34.000Z</time>
      </trkpt>
      <trkpt lat="54.494315" lon="9.538253">
        <ele>-0.728252</ele>
        <time>2021-02-13T13:27:41.000Z</time>
      </trkpt>
      <trkpt lat="54.494383" lon="9.538280">
        <ele>-0.673330</ele>
        <time>2021-02-13T13:27:45.000Z</time>
      </trkpt>
      <trkpt lat="54.494443" lon="9.538305">
        <ele>-0.632192</ele>
        <time>2021-02-13T13:27:48.000Z</time>
      </trkpt>
      <trkpt lat="54.494514" lon="9.538356">
        <ele>-0.580926</ele>
        <time>2021-02-13T13:27:52.000Z</time>
      </trkpt>
      <trkpt lat="54.494534" lon="9.538368">
        <ele>-0.566812</ele>
        <time>2021-02-13T13:27:55.000Z</time>
      </trkpt>
      <trkpt lat="54.494560" lon="9.538383">
        <ele>-0.548539</ele>
        <time>2021-02-13T13:27:57.000Z</time>
      </trkpt>
      <trkpt lat="54.494634" lon="9.538435">
        <ele>-0.495278</ele>
        <time>2021-02-13T13:28:01.000Z</time>
      </trkpt>
      <trkpt lat="54.494662" lon="9.538460">
        <ele>-0.474259</ele>
        <time>2021-02-13T13:28:02.000Z</time>
      </trkpt>
      <trkpt lat="54.494737" lon="9.538488">
        <ele>-0.423119</ele>
        <time>2021-02-13T13:28:06.000Z</time>
      </trkpt>
      <trkpt lat="54.494790" lon="9.538516">
        <ele>-0.386175</ele>
        <time>2021-02-13T13:28:10.000Z</time>
      </trkpt>
      <trkpt lat="54.494931" lon="9.538577">
        <ele>-0.289293</ele>
        <time>2021-02-13T13:28:19.000Z</time>
      </trkpt>
      <trkpt lat="54.495067" lon="9.538641">
        <ele>-0.195340</ele>
        <time>2021-02-13T13:28:27.000Z</time>
      </trkpt>
      <trkpt lat="54.495084" lon="9.538650">
        <ele>-0.183488</ele>
        <time>2021-02-13T13:28:29.000Z</time>
      </trkpt>
      <trkpt lat="54.495266" lon="9.538724">
        <ele>-0.058870</ele>
        <time>2021-02-13T13:28:38.000Z</time>
      </trkpt>
      <trkpt lat="54.495339" lon="9.538760">
        <ele>-0.008267</ele>
        <time>2021-02-13T13:28:43.000Z</time>
      </trkpt>
      <trkpt lat="54.495405" lon="9.538792">
        <ele>0.037425</ele>
        <time>2021-02-13T13:28:46.000Z</time>
      </trkpt>
      <trkpt lat="54.495500" lon="9.538823">
        <ele>0.101859</ele>
        <time>2021-02-13T13:28:53.000Z</time>
      </trkpt>
      <trkpt lat="54.495546" lon="9.538848">
        <ele>0.134004</ele>
        <time>2021-02-13T13:28:56.000Z</time>
      </trkpt>
      <trkpt lat="54.495600" lon="9.538877">
        <ele>0.171698</ele>
        <time>2021-02-13T13:29:00.000Z</time>
      </trkpt>
      <trkpt lat="54.495657" lon="9.538909">
        <ele>0.211651</ele>
        <time>2021-02-13T13:29:04.000Z</time>
      </trkpt>
      <trkpt lat="54.495756" lon="9.538996">
        <ele>0.285719</ele>
        <time>2021-02-13T13:29:11.000Z</time>
      </trkpt>
      <trkpt lat="54.495846" lon="9.539061">
        <ele>0.350756</ele>
        <time>2021-02-13T13:29:18.000Z</time>
      </trkpt>
      <trkpt lat="54.495969" lon="9.539096">
        <ele>0.433834</ele>
        <time>2021-02-13T13:29:26.000Z</time>
      </trkpt>
      <trkpt lat="54.496064" lon="9.539125">
        <ele>0.498128</ele>
        <time>2021-02-13T13:29:32.000Z</time>
      </trkpt>
      <trkpt lat="54.496064" lon="9.539125">
        <ele>0.498128</ele>
        <time>2021-02-13T13:29:33.000Z</time>
      </trkpt>
      <trkpt lat="54.496080" lon="9.539130">
        <ele>0.508965</ele>
        <time>2021-02-13T13:29:34.000Z</time>
      </trkpt>
      <trkpt lat="54.496212" lon="9.539169">
        <ele>0.487079</ele>
        <time>2021-02-13T13:29:40.000Z</time>
      </trkpt>
      <trkpt lat="54.496274" lon="9.539198">
        <ele>0.476207</ele>
        <time>2021-02-13T13:29:44.000Z</time>
      </trkpt>
      <trkpt lat="54.496351" lon="9.539194">
        <ele>0.463172</ele>
        <time>2021-02-13T13:29:48.000Z</time>
      </trkpt>
      <trkpt lat="54.496475" lon="9.539222">
        <ele>0.442010</ele>
        <time>2021-02-13T13:29:55.000Z</time>
      </trkpt>
      <trkpt lat="54.496507" lon="9.539232">
        <ele>0.436507</ele>
        <time>2021-02-13T13:29:57.000Z</time>
      </trkpt>
      <trkpt lat="54.496625" lon="9.539253">
        <ele>0.416433</ele>
        <time>2021-02-13T13:30:03.000Z</time>
      </trkpt>
      <trkpt lat="54.496661" lon="9.539260">
        <ele>0.410303</ele>
        <time>2021-02-13T13:30:06.000Z</time>
      </trkpt>
      <trkpt lat="54.496768" lon="9.539265">
        <ele>0.392190</ele>
        <time>2021-02-13T13:30:13.000Z</time>
      </trkpt>
      <trkpt lat="54.496891" lon="9.539263">
        <ele>0.371376</ele>
        <time>2021-02-13T13:30:21.000Z</time>
      </trkpt>
      <trkpt lat="54.496987" lon="9.539255">
        <ele>0.355113</ele>
        <time>2021-02-13T13:30:28.000Z</time>
      </trkpt>
      <trkpt lat="54.496987" lon="9.539255">
        <ele>0.355113</ele>
        <time>2021-02-13T13:30:29.000Z</time>
      </trkpt>
      <trkpt lat="54.497097" lon="9.539224">
        <ele>0.336252</ele>
        <time>2021-02-13T13:30:36.000Z</time>
      </trkpt>
      <trkpt lat="54.497144" lon="9.539211">
        <ele>0.328197</ele>
        <time>2021-02-13T13:30:40.000Z</time>
      </trkpt>
      <trkpt lat="54.497149" lon="9.539212">
        <ele>0.327345</ele>
        <time>2021-02-13T13:30:41.000Z</time>
      </trkpt>
      <trkpt lat="54.497153" lon="9.539213">
        <ele>0.326661</ele>
        <time>2021-02-13T13:30:42.000Z</time>
      </trkpt>
      <trkpt lat="54.497160" lon="9.539212">
        <ele>0.325473</ele>
        <time>2021-02-13T13:30:43.000Z</time>
      </trkpt>
      <trkpt lat="54.497203" lon="9.539200">
        <ele>0.318102</ele>
        <time>2021-02-13T13:30:48.000Z</time>
      </trkpt>
      <trkpt lat="54.497318" lon="9.539190">
        <ele>0.298617</ele>
        <time>2021-02-13T13:30:55.000Z</time>
      </trkpt>
      <trkpt lat="54.497410" lon="9.539178">
        <ele>0.283005</ele>
        <time>2021-02-13T13:31:02.000Z</time>
      </trkpt>
      <trkpt lat="54.497416" lon="9.539185">
        <ele>0.281779</ele>
        <time>2021-02-13T13:31:03.000Z</time>
      </trkpt>
      <trkpt lat="54.497424" lon="9.539186">
        <ele>0.280422</ele>
        <time>2021-02-13T13:31:05.000Z</time>
      </trkpt>
      <trkpt lat="54.497486" lon="9.539273">
        <ele>0.266888</ele>
        <time>2021-02-13T13:31:11.000Z</time>
      </trkpt>
      <trkpt lat="54.497514" lon="9.539344">
        <ele>0.258454</ele>
        <time>2021-02-13T13:31:13.000Z</time>
      </trkpt>
      <trkpt lat="54.497512" lon="9.539428">
        <ele>0.250193</ele>
        <time>2021-02-13T13:31:16.000Z</time>
      </trkpt>
      <trkpt lat="54.497513" lon="9.539452">
        <ele>0.247828</ele>
        <time>2021-02-13T13:31:17.000Z</time>
      </trkpt>
      <trkpt lat="54.497515" lon="9.539500">
        <ele>0.243099</ele>
        <time>2021-02-13T13:31:19.000Z</time>
      </trkpt>
      <trkpt lat="54.497516" lon="9.539572">
        <ele>0.236022</ele>
        <time>2021-02-13T13:31:22.000Z</time>
      </trkpt>
      <trkpt lat="54.497528" lon="9.539670">
        <ele>0.226180</ele>
        <time>2021-02-13T13:31:26.000Z</time>
      </trkpt>
      <trkpt lat="54.497539" lon="9.539768">
        <ele>0.216372</ele>
        <time>2021-02-13T13:31:30.000Z</time>
      </trkpt>
      <trkpt lat="54.497539" lon="9.539803">
        <ele>0.212932</ele>
        <time>2021-02-13T13:31:31.000Z</time>
      </trkpt>
      <trkpt lat="54.497539" lon="9.539862">
        <ele>0.207134</ele>
        <time>2021-02-13T13:31:32.000Z</time>
      </trkpt>
      <trkpt lat="54.497539" lon="9.539862">
        <ele>0.207134</ele>
        <time>2021-02-13T13:31:33.000Z</time>
      </trkpt>
      <trkpt lat="54.497557" lon="9.539941">
        <ele>0.131984</ele>
        <time>2021-02-13T13:31:36.000Z</time>
      </trkpt>
      <trkpt lat="54.497588" lon="9.540008">
        <ele>0.036174</ele>
        <time>2021-02-13T13:31:38.000Z</time>
      </trkpt>
      <trkpt lat="54.497591" lon="9.540064">
        <ele>-0.026723</ele>
        <time>2021-02-13T13:31:41.000Z</time>
      </trkpt>
      <trkpt lat="54.497606" lon="9.540163">
        <ele>-0.141153</ele>
        <time>2021-02-13T13:31:44.000Z</time>
      </trkpt>
      <trkpt lat="54.497610" lon="9.540184">
        <ele>-0.165871</ele>
        <time>2021-02-13T13:31:45.000Z</time>
      </trkpt>
      <trkpt lat="54.497613" lon="9.540203">
        <ele>-0.187892</ele>
        <time>2021-02-13T13:31:46.000Z</time>
      </trkpt>
      <trkpt lat="54.497616" lon="9.540380">
        <ele>-0.385936</ele>
        <time>2021-02-13T13:31:53.000Z</time>
      </trkpt>
      <trkpt lat="54.497644" lon="9.540589">
        <ele>-0.625824</ele>
        <time>2021-02-13T13:32:00.000Z</time>
      </trkpt>
      <trkpt lat="54.497656" lon="9.540636">
        <ele>-0.683246</ele>
        <time>2021-02-13T13:32:02.000Z</time>
      </trkpt>
      <trkpt lat="54.497672" lon="9.540787">
        <ele>-0.854915</ele>
        <time>2021-02-13T13:32:07.000Z</time>
      </trkpt>
      <trkpt lat="54.497658" lon="9.540849">
        <ele>-0.929314</ele>
        <time>2021-02-13T13:32:09.000Z</time>
      </trkpt>
      <trkpt lat="54.497683" lon="9.541030">
        <ele>-1.137394</ele>
        <time>2021-02-13T13:32:14.000Z</time>
      </trkpt>
      <trkpt lat="54.497720" lon="9.541221">
        <ele>-1.362583</ele>
        <time>2021-02-13T13:32:20.000Z</time>
      </trkpt>
      <trkpt lat="54.497734" lon="9.541310">
        <ele>-1.465708</ele>
        <time>2021-02-13T13:32:23.000Z</time>
      </trkpt>
      <trkpt lat="54.497735" lon="9.541339">
        <ele>-1.498199</ele>
        <time>2021-02-13T13:32:24.000Z</time>
      </trkpt>
      <trkpt lat="54.497739" lon="9.541408">
        <ele>-1.575754</ele>
        <time>2021-02-13T13:32:26.000Z</time>
      </trkpt>
      <trkpt lat="54.497751" lon="9.541475">
        <ele>-1.654170</ele>
        <time>2021-02-13T13:32:28.000Z</time>
      </trkpt>
      <trkpt lat="54.497790" lon="9.541586">
        <ele>-1.799267</ele>
        <time>2021-02-13T13:32:32.000Z</time>
      </trkpt>
      <trkpt lat="54.497876" lon="9.541620">
        <ele>-1.969200</ele>
        <time>2021-02-13T13:32:40.000Z</time>
      </trkpt>
      <trkpt lat="54.497882" lon="9.541853">
        <ele>-2.230045</ele>
        <time>2021-02-13T13:32:47.000Z</time>
      </trkpt>
      <trkpt lat="54.497921" lon="9.541989">
        <ele>-2.399683</ele>
        <time>2021-02-13T13:32:53.000Z</time>
      </trkpt>
      <trkpt lat="54.497996" lon="9.542206">
        <ele>-2.682107</ele>
        <time>2021-02-13T13:33:01.000Z</time>
      </trkpt>
      <trkpt lat="54.498142" lon="9.542401">
        <ele>-3.037947</ele>
        <time>2021-02-13T13:33:09.000Z</time>
      </trkpt>
      <trkpt lat="54.498243" lon="9.542557">
        <ele>-3.249926</ele>
        <time>2021-02-13T13:33:16.000Z</time>
      </trkpt>
      <trkpt lat="54.498335" lon="9.542739">
        <ele>-3.191501</ele>
        <time>2021-02-13T13:33:25.000Z</time>
      </trkpt>
      <trkpt lat="54.498344" lon="9.542755">
        <ele>-3.186107</ele>
        <time>2021-02-13T13:33:26.000Z</time>
      </trkpt>
      <trkpt lat="54.498383" lon="9.542864">
        <ele>-3.155108</ele>
        <time>2021-02-13T13:33:32.000Z</time>
      </trkpt>
      <trkpt lat="54.498439" lon="9.542965">
        <ele>-3.121296</ele>
        <time>2021-02-13T13:33:38.000Z</time>
      </trkpt>
      <trkpt lat="54.498446" lon="9.542972">
        <ele>-3.117921</ele>
        <time>2021-02-13T13:33:39.000Z</time>
      </trkpt>
      <trkpt lat="54.498497" lon="9.542968">
        <ele>-3.096634</ele>
        <time>2021-02-13T13:33:43.000Z</time>
      </trkpt>
      <trkpt lat="54.498531" lon="9.542976">
        <ele>-3.082326</ele>
        <time>2021-02-13T13:33:48.000Z</time>
      </trkpt>
      <trkpt lat="54.498594" lon="9.543026">
        <ele>-3.053403</ele>
        <time>2021-02-13T13:33:53.000Z</time>
      </trkpt>
      <trkpt lat="54.498700" lon="9.543146">
        <ele>-3.000510</ele>
        <time>2021-02-13T13:33:59.000Z</time>
      </trkpt>
      <trkpt lat="54.498734" lon="9.543164">
        <ele>-2.985679</ele>
        <time>2021-02-13T13:34:01.000Z</time>
      </trkpt>
      <trkpt lat="54.498873" lon="9.543246">
        <ele>-2.924417</ele>
        <time>2021-02-13T13:34:06.000Z</time>
      </trkpt>
      <trkpt lat="54.498966" lon="9.543208">
        <ele>-2.884564</ele>
        <time>2021-02-13T13:34:14.000Z</time>
      </trkpt>
      <trkpt lat="54.498970" lon="9.543264">
        <ele>-2.870902</ele>
        <time>2021-02-13T13:34:15.000Z</time>
      </trkpt>
      <trkpt lat="54.498983" lon="9.543370">
        <ele>-2.844671</ele>
        <time>2021-02-13T13:34:18.000Z</time>
      </trkpt>
      <trkpt lat="54.499045" lon="9.543466">
        <ele>-2.809906</ele>
        <time>2021-02-13T13:34:22.000Z</time>
      </trkpt>
      <trkpt lat="54.499031" lon="9.543554">
        <ele>-2.787814</ele>
        <time>2021-02-13T13:34:27.000Z</time>
      </trkpt>
      <trkpt lat="54.499029" lon="9.543589">
        <ele>-2.779298</ele>
        <time>2021-02-13T13:34:28.000Z</time>
      </trkpt>
      <trkpt lat="54.499045" lon="9.543689">
        <ele>-2.754183</ele>
        <time>2021-02-13T13:34:31.000Z</time>
      </trkpt>
      <trkpt lat="54.499052" lon="9.543726">
        <ele>-2.744761</ele>
        <time>2021-02-13T13:34:32.000Z</time>
      </trkpt>
      <trkpt lat="54.499131" lon="9.543867">
        <ele>-2.697321</ele>
        <time>2021-02-13T13:34:39.000Z</time>
      </trkpt>
      <trkpt lat="54.499239" lon="9.544083">
        <ele>-2.628306</ele>
        <time>2021-02-13T13:34:47.000Z</time>
      </trkpt>
      <trkpt lat="54.499288" lon="9.544232">
        <ele>-2.586846</ele>
        <time>2021-02-13T13:34:53.000Z</time>
      </trkpt>
      <trkpt lat="54.499297" lon="9.544259">
        <ele>-2.579308</ele>
        <time>2021-02-13T13:34:54.000Z</time>
      </trkpt>
      <trkpt lat="54.499320" lon="9.544380">
        <ele>-2.548481</ele>
        <time>2021-02-13T13:34:59.000Z</time>
      </trkpt>
      <trkpt lat="54.499327" lon="9.544408">
        <ele>-2.541100</ele>
        <time>2021-02-13T13:35:00.000Z</time>
      </trkpt>
      <trkpt lat="54.499335" lon="9.544431">
        <ele>-2.534609</ele>
        <time>2021-02-13T13:35:01.000Z</time>
      </trkpt>
      <trkpt lat="54.499365" lon="9.544534">
        <ele>-2.515375</ele>
        <time>2021-02-13T13:35:05.000Z</time>
      </trkpt>
      <trkpt lat="54.499404" lon="9.544662">
        <ele>-2.628233</ele>
        <time>2021-02-13T13:35:10.000Z</time>
      </trkpt>
      <trkpt lat="54.499421" lon="9.544742">
        <ele>-2.694744</ele>
        <time>2021-02-13T13:35:13.000Z</time>
      </trkpt>
      <trkpt lat="54.499437" lon="9.544906">
        <ele>-2.824583</ele>
        <time>2021-02-13T13:35:19.000Z</time>
      </trkpt>
      <trkpt lat="54.499447" lon="9.544948">
        <ele>-2.860025</ele>
        <time>2021-02-13T13:35:21.000Z</time>
      </trkpt>
      <trkpt lat="54.499488" lon="9.545072">
        <ele>-2.971432</ele>
        <time>2021-02-13T13:35:26.000Z</time>
      </trkpt>
      <trkpt lat="54.499512" lon="9.545149">
        <ele>-3.039663</ele>
        <time>2021-02-13T13:35:29.000Z</time>
      </trkpt>
      <trkpt lat="54.499512" lon="9.545237">
        <ele>-3.108370</ele>
        <time>2021-02-13T13:35:32.000Z</time>
      </trkpt>
      <trkpt lat="54.499403" lon="9.545340">
        <ele>-3.275534</ele>
        <time>2021-02-13T13:35:38.000Z</time>
      </trkpt>
      <trkpt lat="54.499302" lon="9.545365">
        <ele>-3.412723</ele>
        <time>2021-02-13T13:35:44.000Z</time>
      </trkpt>
      <trkpt lat="54.499287" lon="9.545371">
        <ele>-3.433427</ele>
        <time>2021-02-13T13:35:45.000Z</time>
      </trkpt>
      <trkpt lat="54.499257" lon="9.545398">
        <ele>-3.478939</ele>
        <time>2021-02-13T13:35:48.000Z</time>
      </trkpt>
      <trkpt lat="54.499229" lon="9.545426">
        <ele>-3.522472</ele>
        <time>2021-02-13T13:35:51.000Z</time>
      </trkpt>
      <trkpt lat="54.499211" lon="9.545431">
        <ele>-3.546985</ele>
        <time>2021-02-13T13:35:52.000Z</time>
      </trkpt>
      <trkpt lat="54.499121" lon="9.545518">
        <ele>-3.685752</ele>
        <time>2021-02-13T13:35:57.000Z</time>
      </trkpt>
      <trkpt lat="54.499113" lon="9.545555">
        <ele>-3.716577</ele>
        <time>2021-02-13T13:35:58.000Z</time>
      </trkpt>
      <trkpt lat="54.499049" lon="9.545814">
        <ele>-3.936342</ele>
        <time>2021-02-13T13:36:06.000Z</time>
      </trkpt>
      <trkpt lat="54.498996" lon="9.545957">
        <ele>-4.068794</ele>
        <time>2021-02-13T13:36:11.000Z</time>
      </trkpt>
      <trkpt lat="54.498976" lon="9.546021">
        <ele>-4.125538</ele>
        <time>2021-02-13T13:36:13.000Z</time>
      </trkpt>
      <trkpt lat="54.498932" lon="9.546285">
        <ele>-4.339983</ele>
        <time>2021-02-13T13:36:20.000Z</time>
      </trkpt>
      <trkpt lat="54.498900" lon="9.546480">
        <ele>-4.498195</ele>
        <time>2021-02-13T13:36:25.000Z</time>
      </trkpt>
      <trkpt lat="54.498872" lon="9.546538">
        <ele>-4.557084</ele>
        <time>2021-02-13T13:36:28.000Z</time>
      </trkpt>
      <trkpt lat="54.498846" lon="9.546594">
        <ele>-4.613064</ele>
        <time>2021-02-13T13:36:31.000Z</time>
      </trkpt>
      <trkpt lat="54.498837" lon="9.546606">
        <ele>-4.628367</ele>
        <time>2021-02-13T13:36:32.000Z</time>
      </trkpt>
      <trkpt lat="54.498828" lon="9.546614">
        <ele>-4.641985</ele>
        <time>2021-02-13T13:36:33.000Z</time>
      </trkpt>
      <trkpt lat="54.498811" lon="9.546621">
        <ele>-4.665485</ele>
        <time>2021-02-13T13:36:35.000Z</time>
      </trkpt>
      <trkpt lat="54.498804" lon="9.546617">
        <ele>-4.675402</ele>
        <time>2021-02-13T13:36:36.000Z</time>
      </trkpt>
      <trkpt lat="54.498791" lon="9.546634">
        <ele>-4.697349</ele>
        <time>2021-02-13T13:36:39.000Z</time>
      </trkpt>
      <trkpt lat="54.498782" lon="9.546647">
        <ele>-4.713142</ele>
        <time>2021-02-13T13:36:41.000Z</time>
      </trkpt>
      <trkpt lat="54.498777" lon="9.546650">
        <ele>-4.720261</ele>
        <time>2021-02-13T13:36:42.000Z</time>
      </trkpt>
      <trkpt lat="54.498780" lon="9.546674">
        <ele>-4.739429</ele>
        <time>2021-02-13T13:36:45.000Z</time>
      </trkpt>
      <trkpt lat="54.498776" lon="9.546692">
        <ele>-4.754477</ele>
        <time>2021-02-13T13:36:48.000Z</time>
      </trkpt>
      <trkpt lat="54.498732" lon="9.546755">
        <ele>-4.831413</ele>
        <time>2021-02-13T13:36:51.000Z</time>
      </trkpt>
      <trkpt lat="54.498715" lon="9.546785">
        <ele>-4.864140</ele>
        <time>2021-02-13T13:36:53.000Z</time>
      </trkpt>
      <trkpt lat="54.498724" lon="9.546909">
        <ele>-4.953356</ele>
        <time>2021-02-13T13:36:59.000Z</time>
      </trkpt>
      <trkpt lat="54.498739" lon="9.546993">
        <ele>-5.005451</ele>
        <time>2021-02-13T13:37:02.000Z</time>
      </trkpt>
      <trkpt lat="54.498754" lon="9.547107">
        <ele>-5.074740</ele>
        <time>2021-02-13T13:37:06.000Z</time>
      </trkpt>
      <trkpt lat="54.498778" lon="9.547272">
        <ele>-5.175570</ele>
        <time>2021-02-13T13:37:12.000Z</time>
      </trkpt>
      <trkpt lat="54.498749" lon="9.547518">
        <ele>-5.324367</ele>
        <time>2021-02-13T13:37:21.000Z</time>
      </trkpt>
      <trkpt lat="54.498755" lon="9.547583">
        <ele>-5.363382</ele>
        <time>2021-02-13T13:37:24.000Z</time>
      </trkpt>
      <trkpt lat="54.498757" lon="9.547635">
        <ele>-5.394273</ele>
        <time>2021-02-13T13:37:27.000Z</time>
      </trkpt>
      <trkpt lat="54.498798" lon="9.547750">
        <ele>-5.474265</ele>
        <time>2021-02-13T13:37:31.000Z</time>
      </trkpt>
      <trkpt lat="54.498807" lon="9.547770">
        <ele>-5.489263</ele>
        <time>2021-02-13T13:37:32.000Z</time>
      </trkpt>
      <trkpt lat="54.498870" lon="9.547849">
        <ele>-5.568815</ele>
        <time>2021-02-13T13:37:38.000Z</time>
      </trkpt>
      <trkpt lat="54.498943" lon="9.547883">
        <ele>-5.646008</ele>
        <time>2021-02-13T13:37:45.000Z</time>
      </trkpt>
      <trkpt lat="54.498961" lon="9.547878">
        <ele>-5.664619</ele>
        <time>2021-02-13T13:37:47.000Z</time>
      </trkpt>
      <trkpt lat="54.498950" lon="9.547863">
        <ele>-5.678942</ele>
        <time>2021-02-13T13:37:53.000Z</time>
      </trkpt>
      <trkpt lat="54.498976" lon="9.547867">
        <ele>-5.705587</ele>
        <time>2021-02-13T13:37:59.000Z</time>
      </trkpt>
      <trkpt lat="54.499054" lon="9.547932">
        <ele>-5.794040</ele>
        <time>2021-02-13T13:38:06.000Z</time>
      </trkpt>
      <trkpt lat="54.499105" lon="9.547976">
        <ele>-5.852267</ele>
        <time>2021-02-13T13:38:12.000Z</time>
      </trkpt>
      <trkpt lat="54.499162" lon="9.547984">
        <ele>-5.910643</ele>
        <time>2021-02-13T13:38:19.000Z</time>
      </trkpt>
      <trkpt lat="54.499169" lon="9.547990">
        <ele>-5.918625</ele>
        <time>2021-02-13T13:38:20.000Z</time>
      </trkpt>
      <trkpt lat="54.499221" lon="9.548025">
        <ele>-5.975615</ele>
        <time>2021-02-13T13:38:26.000Z</time>
      </trkpt>
      <trkpt lat="54.499230" lon="9.548032">
        <ele>-5.985696</ele>
        <time>2021-02-13T13:38:27.000Z</time>
      </trkpt>
      <trkpt lat="54.499273" lon="9.548053">
        <ele>-6.031319</ele>
        <time>2021-02-13T13:38:30.000Z</time>
      </trkpt>
      <trkpt lat="54.499279" lon="9.548062">
        <ele>-6.039442</ele>
        <time>2021-02-13T13:38:32.000Z</time>
      </trkpt>
      <trkpt lat="54.499300" lon="9.548088">
        <ele>-6.065843</ele>
        <time>2021-02-13T13:38:34.000Z</time>
      </trkpt>
      <trkpt lat="54.499295" lon="9.548089">
        <ele>-6.070981</ele>
        <time>2021-02-13T13:38:36.000Z</time>
      </trkpt>
      <trkpt lat="54.499295" lon="9.548088">
        <ele>-6.071574</ele>
        <time>2021-02-13T13:38:37.000Z</time>
      </trkpt>
      <trkpt lat="54.499296" lon="9.548087">
        <ele>-6.072754</ele>
        <time>2021-02-13T13:38:39.000Z</time>
      </trkpt>
      <trkpt lat="54.499291" lon="9.548080">
        <ele>-6.079332</ele>
        <time>2021-02-13T13:38:41.000Z</time>
      </trkpt>
      <trkpt lat="54.499288" lon="9.548080">
        <ele>-6.082394</ele>
        <time>2021-02-13T13:38:42.000Z</time>
      </trkpt>
      <trkpt lat="54.499284" lon="9.548080">
        <ele>-6.086477</ele>
        <time>2021-02-13T13:38:43.000Z</time>
      </trkpt>
      <trkpt lat="54.499276" lon="9.548074">
        <ele>-6.095384</ele>
        <time>2021-02-13T13:38:50.000Z</time>
      </trkpt>
      <trkpt lat="54.499277" lon="9.548103">
        <ele>-6.112605</ele>
        <time>2021-02-13T13:38:53.000Z</time>
      </trkpt>
      <trkpt lat="54.499270" lon="9.548106">
        <ele>-6.119968</ele>
        <time>2021-02-13T13:38:57.000Z</time>
      </trkpt>
      <trkpt lat="54.499282" lon="9.548098">
        <ele>-6.133103</ele>
        <time>2021-02-13T13:39:04.000Z</time>
      </trkpt>
      <trkpt lat="54.499296" lon="9.548127">
        <ele>-6.155458</ele>
        <time>2021-02-13T13:39:07.000Z</time>
      </trkpt>
      <trkpt lat="54.499317" lon="9.548178">
        <ele>-6.192518</ele>
        <time>2021-02-13T13:39:11.000Z</time>
      </trkpt>
      <trkpt lat="54.499327" lon="9.548233">
        <ele>-6.226681</ele>
        <time>2021-02-13T13:39:15.000Z</time>
      </trkpt>
      <trkpt lat="54.499343" lon="9.548299">
        <ele>-6.269076</ele>
        <time>2021-02-13T13:39:19.000Z</time>
      </trkpt>
      <trkpt lat="54.499354" lon="9.548380">
        <ele>-6.318385</ele>
        <time>2021-02-13T13:39:22.000Z</time>
      </trkpt>
      <trkpt lat="54.499355" lon="9.548401">
        <ele>-6.330875</ele>
        <time>2021-02-13T13:39:23.000Z</time>
      </trkpt>
      <trkpt lat="54.499366" lon="9.548474">
        <ele>-6.375581</ele>
        <time>2021-02-13T13:39:26.000Z</time>
      </trkpt>
      <trkpt lat="54.499375" lon="9.548601">
        <ele>-6.451421</ele>
        <time>2021-02-13T13:39:30.000Z</time>
      </trkpt>
      <trkpt lat="54.499370" lon="9.548674">
        <ele>-6.494993</ele>
        <time>2021-02-13T13:39:33.000Z</time>
      </trkpt>
      <trkpt lat="54.499380" lon="9.548717">
        <ele>-6.522450</ele>
        <time>2021-02-13T13:39:35.000Z</time>
      </trkpt>
      <trkpt lat="54.499402" lon="9.548750">
        <ele>-6.552231</ele>
        <time>2021-02-13T13:39:36.000Z</time>
      </trkpt>
      <trkpt lat="54.499404" lon="9.548809">
        <ele>-6.587264</ele>
        <time>2021-02-13T13:39:38.000Z</time>
      </trkpt>
      <trkpt lat="54.499373" lon="9.548871">
        <ele>-6.635762</ele>
        <time>2021-02-13T13:39:41.000Z</time>
      </trkpt>
      <trkpt lat="54.499354" lon="9.548929">
        <ele>-6.675235</ele>
        <time>2021-02-13T13:39:43.000Z</time>
      </trkpt>
      <trkpt lat="54.499325" lon="9.548995">
        <ele>-6.724295</ele>
        <time>2021-02-13T13:39:45.000Z</time>
      </trkpt>
      <trkpt lat="54.499279" lon="9.549027">
        <ele>-6.763005</ele>
        <time>2021-02-13T13:39:48.000Z</time>
      </trkpt>
      <trkpt lat="54.499286" lon="9.549084">
        <ele>-6.763005</ele>
        <time>2021-02-13T13:39:50.000Z</time>
      </trkpt>
      <trkpt lat="54.499300" lon="9.549109">
        <ele>-6.763005</ele>
        <time>2021-02-13T13:39:51.000Z</time>
      </trkpt>
      <trkpt lat="54.499331" lon="9.549134">
        <ele>-6.763005</ele>
        <time>2021-02-13T13:39:53.000Z</time>
      </trkpt>
      <trkpt lat="54.499349" lon="9.549145">
        <ele>-6.763005</ele>
        <time>2021-02-13T13:39:54.000Z</time>
      </trkpt>
      <trkpt lat="54.499400" lon="9.549171">
        <ele>-6.763005</ele>
        <time>2021-02-13T13:39:57.000Z</time>
      </trkpt>
      <trkpt lat="54.499412" lon="9.549259">
        <ele>-6.763005</ele>
        <time>2021-02-13T13:40:00.000Z</time>
      </trkpt>
      <trkpt lat="54.499409" lon="9.549286">
        <ele>-6.763005</ele>
        <time>2021-02-13T13:40:01.000Z</time>
      </trkpt>
      <trkpt lat="54.499398" lon="9.549414">
        <ele>-6.763005</ele>
        <time>2021-02-13T13:40:07.000Z</time>
      </trkpt>
      <trkpt lat="54.499390" lon="9.549470">
        <ele>-6.763005</ele>
        <time>2021-02-13T13:40:09.000Z</time>
      </trkpt>
      <trkpt lat="54.499383" lon="9.549492">
        <ele>-6.763005</ele>
        <time>2021-02-13T13:40:10.000Z</time>
      </trkpt>
      <trkpt lat="54.499374" lon="9.549544">
        <ele>-6.763005</ele>
        <time>2021-02-13T13:40:13.000Z</time>
      </trkpt>
      <trkpt lat="54.499346" lon="9.549687">
        <ele>-6.763005</ele>
        <time>2021-02-13T13:40:20.000Z</time>
      </trkpt>
      <trkpt lat="54.499308" lon="9.549897">
        <ele>-6.763005</ele>
        <time>2021-02-13T13:40:28.000Z</time>
      </trkpt>
      <trkpt lat="54.499305" lon="9.550043">
        <ele>-6.763005</ele>
        <time>2021-02-13T13:40:33.000Z</time>
      </trkpt>
      <trkpt lat="54.499300" lon="9.550073">
        <ele>-6.763005</ele>
        <time>2021-02-13T13:40:34.000Z</time>
      </trkpt>
      <trkpt lat="54.499297" lon="9.550102">
        <ele>-6.763005</ele>
        <time>2021-02-13T13:40:35.000Z</time>
      </trkpt>
      <trkpt lat="54.499274" lon="9.550235">
        <ele>-6.763005</ele>
        <time>2021-02-13T13:40:40.000Z</time>
      </trkpt>
      <trkpt lat="54.499272" lon="9.550260">
        <ele>-6.763005</ele>
        <time>2021-02-13T13:40:42.000Z</time>
      </trkpt>
      <trkpt lat="54.499265" lon="9.550391">
        <ele>-6.763005</ele>
        <time>2021-02-13T13:40:46.000Z</time>
      </trkpt>
      <trkpt lat="54.499266" lon="9.550473">
        <ele>-6.763005</ele>
        <time>2021-02-13T13:40:49.000Z</time>
      </trkpt>
      <trkpt lat="54.499255" lon="9.550741">
        <ele>-6.763005</ele>
        <time>2021-02-13T13:40:59.000Z</time>
      </trkpt>
      <trkpt lat="54.499273" lon="9.551001">
        <ele>-6.763005</ele>
        <time>2021-02-13T13:41:08.000Z</time>
      </trkpt>
      <trkpt lat="54.499283" lon="9.551058">
        <ele>-6.763005</ele>
        <time>2021-02-13T13:41:10.000Z</time>
      </trkpt>
      <trkpt lat="54.499299" lon="9.551169">
        <ele>-6.763005</ele>
        <time>2021-02-13T13:41:14.000Z</time>
      </trkpt>
      <trkpt lat="54.499302" lon="9.551227">
        <ele>-6.763005</ele>
        <time>2021-02-13T13:41:16.000Z</time>
      </trkpt>
      <trkpt lat="54.499313" lon="9.551404">
        <ele>-6.763005</ele>
        <time>2021-02-13T13:41:22.000Z</time>
      </trkpt>
      <trkpt lat="54.499312" lon="9.551429">
        <ele>-6.763005</ele>
        <time>2021-02-13T13:41:23.000Z</time>
      </trkpt>
      <trkpt lat="54.499323" lon="9.551537">
        <ele>-6.763005</ele>
        <time>2021-02-13T13:41:29.000Z</time>
      </trkpt>
      <trkpt lat="54.499329" lon="9.551561">
        <ele>-6.763005</ele>
        <time>2021-02-13T13:41:30.000Z</time>
      </trkpt>
      <trkpt lat="54.499297" lon="9.551727">
        <ele>-6.763005</ele>
        <time>2021-02-13T13:41:36.000Z</time>
      </trkpt>
      <trkpt lat="54.499227" lon="9.551826">
        <ele>-6.763005</ele>
        <time>2021-02-13T13:41:42.000Z</time>
      </trkpt>
      <trkpt lat="54.499217" lon="9.551846">
        <ele>-6.763005</ele>
        <time>2021-02-13T13:41:43.000Z</time>
      </trkpt>
      <trkpt lat="54.499207" lon="9.551864">
        <ele>-6.763005</ele>
        <time>2021-02-13T13:41:44.000Z</time>
      </trkpt>
      <trkpt lat="54.499183" lon="9.551940">
        <ele>-6.763005</ele>
        <time>2021-02-13T13:41:47.000Z</time>
      </trkpt>
      <trkpt lat="54.499163" lon="9.551995">
        <ele>-6.763005</ele>
        <time>2021-02-13T13:41:50.000Z</time>
      </trkpt>
      <trkpt lat="54.499163" lon="9.551995">
        <ele>-6.763005</ele>
        <time>2021-02-13T13:41:51.000Z</time>
      </trkpt>
    </trkseg>
  </trk>
</gpx>